<?xml version='1.0' encoding='UTF-8'?><gpx version="1.1" creator="JPX - https://github.com/jenetics/jpx" xmlns="http://www.topografix.com/GPX/1/1"><trk><trkseg><trkpt lat="39.51384449930465" lon="8.971225523318532"><ele>175.0</ele><time>2026-05-03T07:26:06.001Z</time></trkpt><trkpt lat="39.51392778296141" lon="8.97121495368031"><ele>175.0</ele><time>2026-05-03T07:26:09.001Z</time></trkpt><trkpt lat="39.51401083717048" lon="8.971212381357374"><ele>175.0</ele><time>2026-05-03T07:26:12Z</time></trkpt><trkpt lat="39.514100090754866" lon="8.971217242256762"><ele>175.0</ele><time>2026-05-03T07:26:15Z</time></trkpt><trkpt lat="39.514191814441794" lon="8.971197346955455"><ele>175.0</ele><time>2026-05-03T07:26:18Z</time></trkpt><trkpt lat="39.51426429132394" lon="8.971187928716368"><ele>175.0</ele><time>2026-05-03T07:26:20Z</time></trkpt><trkpt lat="39.51434520556942" lon="8.971174093608996"><ele>175.0</ele><time>2026-05-03T07:26:22Z</time></trkpt><trkpt lat="39.51443572378027" lon="8.97116312269317"><ele>175.0</ele><time>2026-05-03T07:26:24Z</time></trkpt><trkpt lat="39.51452761220136" lon="8.971154729446223"><ele>175.0</ele><time>2026-05-03T07:26:26Z</time></trkpt><trkpt lat="39.514632216538644" lon="8.971158368992437"><ele>175.0</ele><time>2026-05-03T07:26:28Z</time></trkpt><trkpt lat="39.51472700229852" lon="8.971142938122536"><ele>175.0</ele><time>2026-05-03T07:26:30Z</time></trkpt><trkpt lat="39.514828485258505" lon="8.971134828650701"><ele>174.8</ele><time>2026-05-03T07:26:32Z</time></trkpt><trkpt lat="39.514928574615965" lon="8.971120405535528"><ele>174.6</ele><time>2026-05-03T07:26:34Z</time></trkpt><trkpt lat="39.51503026236053" lon="8.971107141904241"><ele>174.39999999999998</ele><time>2026-05-03T07:26:36Z</time></trkpt><trkpt lat="39.51513396267191" lon="8.971096812984126"><ele>174.2</ele><time>2026-05-03T07:26:38Z</time></trkpt><trkpt lat="39.51523821581926" lon="8.97108786570761"><ele>174.0</ele><time>2026-05-03T07:26:40Z</time></trkpt><trkpt lat="39.51534364506249" lon="8.971081432837087"><ele>173.6</ele><time>2026-05-03T07:26:42Z</time></trkpt><trkpt lat="39.515449142045995" lon="8.971075682334257"><ele>173.2</ele><time>2026-05-03T07:26:44Z</time></trkpt><trkpt lat="39.515558824806426" lon="8.97107079281423"><ele>172.79999999999998</ele><time>2026-05-03T07:26:46Z</time></trkpt><trkpt lat="39.51566727295316" lon="8.971063272530003"><ele>172.39999999999998</ele><time>2026-05-03T07:26:48Z</time></trkpt><trkpt lat="39.515777750949454" lon="8.971056700587813"><ele>172.0</ele><time>2026-05-03T07:26:50Z</time></trkpt><trkpt lat="39.51589050909593" lon="8.971049576217245"><ele>172.0</ele><time>2026-05-03T07:26:52Z</time></trkpt><trkpt lat="39.516004787260506" lon="8.971034192091606"><ele>172.0</ele><time>2026-05-03T07:26:54Z</time></trkpt><trkpt lat="39.51612013128843" lon="8.971008237244517"><ele>172.0</ele><time>2026-05-03T07:26:56Z</time></trkpt><trkpt lat="39.51622333165752" lon="8.970891004011442"><ele>172.0</ele><time>2026-05-03T07:26:58Z</time></trkpt><trkpt lat="39.51627909449751" lon="8.970839476449425"><ele>172.0</ele><time>2026-05-03T07:26:59Z</time></trkpt><trkpt lat="39.51633561204355" lon="8.97078966187673"><ele>171.00000000000003</ele><time>2026-05-03T07:27:00Z</time></trkpt><trkpt lat="39.516402470371226" lon="8.970751280708278"><ele>170.0</ele><time>2026-05-03T07:27:01Z</time></trkpt><trkpt lat="39.51646938238065" lon="8.970713426652315"><ele>169.0</ele><time>2026-05-03T07:27:02Z</time></trkpt><trkpt lat="39.5165391787798" lon="8.970674860641308"><ele>168.0</ele><time>2026-05-03T07:27:03Z</time></trkpt><trkpt lat="39.51660885074899" lon="8.970642554652754"><ele>167.0</ele><time>2026-05-03T07:27:04Z</time></trkpt><trkpt lat="39.51667986578289" lon="8.97060825074541"><ele>166.00000000000003</ele><time>2026-05-03T07:27:05Z</time></trkpt><trkpt lat="39.51674987672774" lon="8.970569999276506"><ele>165.0</ele><time>2026-05-03T07:27:06Z</time></trkpt><trkpt lat="39.51682160950385" lon="8.970532207824636"><ele>165.0</ele><time>2026-05-03T07:27:07Z</time></trkpt><trkpt lat="39.51689092328355" lon="8.970493519556026"><ele>165.0</ele><time>2026-05-03T07:27:08Z</time></trkpt><trkpt lat="39.51696276309262" lon="8.97045281792861"><ele>165.0</ele><time>2026-05-03T07:27:09Z</time></trkpt><trkpt lat="39.51703500863484" lon="8.970410149829538"><ele>165.0</ele><time>2026-05-03T07:27:10Z</time></trkpt><trkpt lat="39.517108481790544" lon="8.970373508240232"><ele>165.0</ele><time>2026-05-03T07:27:11Z</time></trkpt><trkpt lat="39.517178592288175" lon="8.970338649121196"><ele>165.0</ele><time>2026-05-03T07:27:12Z</time></trkpt><trkpt lat="39.51725218556276" lon="8.970303056936126"><ele>164.66666666666666</ele><time>2026-05-03T07:27:13Z</time></trkpt><trkpt lat="39.51732481126465" lon="8.970266119157149"><ele>164.33333333333334</ele><time>2026-05-03T07:27:14Z</time></trkpt><trkpt lat="39.51739826870295" lon="8.970229721335947"><ele>164.0</ele><time>2026-05-03T07:27:15Z</time></trkpt><trkpt lat="39.51747035372732" lon="8.970186090523685"><ele>163.66666666666669</ele><time>2026-05-03T07:27:16Z</time></trkpt><trkpt lat="39.517543084898634" lon="8.970146203938505"><ele>163.33333333333334</ele><time>2026-05-03T07:27:17Z</time></trkpt><trkpt lat="39.51761604745745" lon="8.970105306666229"><ele>163.0</ele><time>2026-05-03T07:27:18Z</time></trkpt><trkpt lat="39.51768745562199" lon="8.970068675891158"><ele>163.0</ele><time>2026-05-03T07:27:19Z</time></trkpt><trkpt lat="39.51775824877803" lon="8.97003382269503"><ele>163.0</ele><time>2026-05-03T07:27:20Z</time></trkpt><trkpt lat="39.517830902882736" lon="8.969998340050738"><ele>163.0</ele><time>2026-05-03T07:27:21Z</time></trkpt><trkpt lat="39.517902027851186" lon="8.969961045136476"><ele>163.0</ele><time>2026-05-03T07:27:22Z</time></trkpt><trkpt lat="39.51797478183062" lon="8.969930212328313"><ele>163.0</ele><time>2026-05-03T07:27:23Z</time></trkpt><trkpt lat="39.518047817801595" lon="8.969891238734375"><ele>163.0</ele><time>2026-05-03T07:27:24Z</time></trkpt><trkpt lat="39.51810657050633" lon="8.96984494487559"><ele>162.0</ele><time>2026-05-03T07:27:25Z</time></trkpt><trkpt lat="39.518181473749266" lon="8.96979160699601"><ele>161.0</ele><time>2026-05-03T07:27:26Z</time></trkpt><trkpt lat="39.51825260806938" lon="8.969735600665098"><ele>160.0</ele><time>2026-05-03T07:27:27Z</time></trkpt><trkpt lat="39.51832439664235" lon="8.969678955582927"><ele>159.0</ele><time>2026-05-03T07:27:28Z</time></trkpt><trkpt lat="39.51839643669504" lon="8.96962219413421"><ele>158.0</ele><time>2026-05-03T07:27:29Z</time></trkpt><trkpt lat="39.51846249891436" lon="8.969560855852912"><ele>157.0</ele><time>2026-05-03T07:27:30Z</time></trkpt><trkpt lat="39.51852885365335" lon="8.969489133571193"><ele>157.0</ele><time>2026-05-03T07:27:31Z</time></trkpt><trkpt lat="39.51857582762359" lon="8.969394495541277"><ele>157.0</ele><time>2026-05-03T07:27:32Z</time></trkpt><trkpt lat="39.518602795182176" lon="8.969283453234244"><ele>157.0</ele><time>2026-05-03T07:27:33Z</time></trkpt><trkpt lat="39.51862872462009" lon="8.969177728095241"><ele>157.0</ele><time>2026-05-03T07:27:34Z</time></trkpt><trkpt lat="39.51866404258643" lon="8.96907667059818"><ele>157.0</ele><time>2026-05-03T07:27:35Z</time></trkpt><trkpt lat="39.51871315245425" lon="8.96898385228204"><ele>157.0</ele><time>2026-05-03T07:27:36Z</time></trkpt><trkpt lat="39.51877758473153" lon="8.968903832381955"><ele>156.0</ele><time>2026-05-03T07:27:37Z</time></trkpt><trkpt lat="39.51884811321014" lon="8.968830696533809"><ele>155.0</ele><time>2026-05-03T07:27:38Z</time></trkpt><trkpt lat="39.518914363889984" lon="8.968753572451371"><ele>154.0</ele><time>2026-05-03T07:27:39Z</time></trkpt><trkpt lat="39.518957979658325" lon="8.968655961343732"><ele>153.0</ele><time>2026-05-03T07:27:40Z</time></trkpt><trkpt lat="39.51898288475476" lon="8.968547619737326"><ele>152.0</ele><time>2026-05-03T07:27:41Z</time></trkpt><trkpt lat="39.51899844130209" lon="8.968437768802115"><ele>151.0</ele><time>2026-05-03T07:27:42Z</time></trkpt><trkpt lat="39.51901375053909" lon="8.968329859298635"><ele>150.33333333333334</ele><time>2026-05-03T07:27:43Z</time></trkpt><trkpt lat="39.519044479832466" lon="8.968229255452025"><ele>149.66666666666669</ele><time>2026-05-03T07:27:44Z</time></trkpt><trkpt lat="39.51909367669853" lon="8.96813906450242"><ele>149.0</ele><time>2026-05-03T07:27:45Z</time></trkpt><trkpt lat="39.51913908330042" lon="8.968054181590176"><ele>148.33333333333334</ele><time>2026-05-03T07:27:46Z</time></trkpt><trkpt lat="39.519179575008" lon="8.967965859257001"><ele>147.66666666666666</ele><time>2026-05-03T07:27:47Z</time></trkpt><trkpt lat="39.51921366576648" lon="8.96787766206583"><ele>147.0</ele><time>2026-05-03T07:27:48Z</time></trkpt><trkpt lat="39.519239733739546" lon="8.967783953357989"><ele>147.0</ele><time>2026-05-03T07:27:49Z</time></trkpt><trkpt lat="39.51926357898275" lon="8.96768545928596"><ele>147.0</ele><time>2026-05-03T07:27:50Z</time></trkpt><trkpt lat="39.51929104121068" lon="8.967590492878832"><ele>147.0</ele><time>2026-05-03T07:27:51Z</time></trkpt><trkpt lat="39.519319563997094" lon="8.967501657929851"><ele>147.0</ele><time>2026-05-03T07:27:52Z</time></trkpt><trkpt lat="39.519350372689644" lon="8.967414050685047"><ele>147.0</ele><time>2026-05-03T07:27:53Z</time></trkpt><trkpt lat="39.51937606629189" lon="8.967330115499166"><ele>147.0</ele><time>2026-05-03T07:27:54Z</time></trkpt><trkpt lat="39.51939355218222" lon="8.967246523321439"><ele>147.0</ele><time>2026-05-03T07:27:55Z</time></trkpt><trkpt lat="39.5194188710541" lon="8.967153606925974"><ele>147.57142857142858</ele><time>2026-05-03T07:27:56Z</time></trkpt><trkpt lat="39.51943733125595" lon="8.967068706825382"><ele>148.14285714285714</ele><time>2026-05-03T07:27:57Z</time></trkpt><trkpt lat="39.51945740071662" lon="8.966977819906948"><ele>148.71428571428572</ele><time>2026-05-03T07:27:58Z</time></trkpt><trkpt lat="39.51948118625347" lon="8.966889221246753"><ele>149.28571428571428</ele><time>2026-05-03T07:27:59Z</time></trkpt><trkpt lat="39.519501846749435" lon="8.966798432914066"><ele>149.85714285714286</ele><time>2026-05-03T07:28:00Z</time></trkpt><trkpt lat="39.519521778947315" lon="8.966707929092731"><ele>150.42857142857144</ele><time>2026-05-03T07:28:01Z</time></trkpt><trkpt lat="39.51954106034669" lon="8.96662044166475"><ele>151.0</ele><time>2026-05-03T07:28:02Z</time></trkpt><trkpt lat="39.5195618203143" lon="8.96653290298605"><ele>151.14285714285717</ele><time>2026-05-03T07:28:03Z</time></trkpt><trkpt lat="39.51958313935524" lon="8.966445851166663"><ele>151.28571428571428</ele><time>2026-05-03T07:28:04Z</time></trkpt><trkpt lat="39.519609038942356" lon="8.966360109030258"><ele>151.42857142857144</ele><time>2026-05-03T07:28:05Z</time></trkpt><trkpt lat="39.51963169967541" lon="8.966265730102936"><ele>151.57142857142858</ele><time>2026-05-03T07:28:06Z</time></trkpt><trkpt lat="39.51964991241785" lon="8.966175676209586"><ele>151.71428571428572</ele><time>2026-05-03T07:28:07Z</time></trkpt><trkpt lat="39.5196712633876" lon="8.966085044200259"><ele>151.85714285714286</ele><time>2026-05-03T07:28:08Z</time></trkpt><trkpt lat="39.519689234424526" lon="8.965993954943606"><ele>152.0</ele><time>2026-05-03T07:28:09Z</time></trkpt><trkpt lat="39.51970181801738" lon="8.96590409595608"><ele>151.14285714285714</ele><time>2026-05-03T07:28:10Z</time></trkpt><trkpt lat="39.519714080323915" lon="8.96581565516177"><ele>150.2857142857143</ele><time>2026-05-03T07:28:11Z</time></trkpt><trkpt lat="39.519730878517024" lon="8.965729748772914"><ele>149.42857142857144</ele><time>2026-05-03T07:28:12Z</time></trkpt><trkpt lat="39.51975262595015" lon="8.965642847853452"><ele>148.57142857142856</ele><time>2026-05-03T07:28:13Z</time></trkpt><trkpt lat="39.51977733119556" lon="8.965554496033716"><ele>147.71428571428572</ele><time>2026-05-03T07:28:14Z</time></trkpt><trkpt lat="39.51979807818916" lon="8.965473819717204"><ele>146.85714285714286</ele><time>2026-05-03T07:28:15Z</time></trkpt><trkpt lat="39.519827321437276" lon="8.965395850716881"><ele>146.0</ele><time>2026-05-03T07:28:16Z</time></trkpt><trkpt lat="39.51986829470095" lon="8.96531817052447"><ele>146.0</ele><time>2026-05-03T07:28:17Z</time></trkpt><trkpt lat="39.51991289397218" lon="8.965238207179548"><ele>146.0</ele><time>2026-05-03T07:28:18Z</time></trkpt><trkpt lat="39.51995198790507" lon="8.96515181998291"><ele>146.0</ele><time>2026-05-03T07:28:19Z</time></trkpt><trkpt lat="39.519986815621074" lon="8.965064919381279"><ele>146.0</ele><time>2026-05-03T07:28:20Z</time></trkpt><trkpt lat="39.52002609693711" lon="8.964982339161827"><ele>146.0</ele><time>2026-05-03T07:28:21Z</time></trkpt><trkpt lat="39.52006830039195" lon="8.96490826116645"><ele>146.0</ele><time>2026-05-03T07:28:22Z</time></trkpt><trkpt lat="39.520109112562835" lon="8.964836109222743"><ele>146.0</ele><time>2026-05-03T07:28:23Z</time></trkpt><trkpt lat="39.52015161980434" lon="8.964762541890895"><ele>145.42857142857142</ele><time>2026-05-03T07:28:24Z</time></trkpt><trkpt lat="39.520193849436694" lon="8.964692873713535"><ele>144.85714285714286</ele><time>2026-05-03T07:28:25Z</time></trkpt><trkpt lat="39.52023270710531" lon="8.964620461977542"><ele>144.28571428571428</ele><time>2026-05-03T07:28:26Z</time></trkpt><trkpt lat="39.52026699869982" lon="8.964542932296325"><ele>143.71428571428572</ele><time>2026-05-03T07:28:27Z</time></trkpt><trkpt lat="39.52030058617536" lon="8.96446690192355"><ele>143.14285714285714</ele><time>2026-05-03T07:28:28Z</time></trkpt><trkpt lat="39.520332354579985" lon="8.964393225982462"><ele>142.57142857142856</ele><time>2026-05-03T07:28:29Z</time></trkpt><trkpt lat="39.5203702282067" lon="8.96431974929872"><ele>142.0</ele><time>2026-05-03T07:28:30Z</time></trkpt><trkpt lat="39.52040795764471" lon="8.964244751475661"><ele>142.5</ele><time>2026-05-03T07:28:31Z</time></trkpt><trkpt lat="39.520448243126964" lon="8.964172356882074"><ele>143.0</ele><time>2026-05-03T07:28:32Z</time></trkpt><trkpt lat="39.52048044978304" lon="8.964096823495632"><ele>143.5</ele><time>2026-05-03T07:28:33Z</time></trkpt><trkpt lat="39.52050999642356" lon="8.964021235698771"><ele>144.0</ele><time>2026-05-03T07:28:34Z</time></trkpt><trkpt lat="39.52054560311744" lon="8.963948554886871"><ele>144.5</ele><time>2026-05-03T07:28:35Z</time></trkpt><trkpt lat="39.52063290159259" lon="8.963830398527792"><ele>145.0</ele><time>2026-05-03T07:28:37Z</time></trkpt><trkpt lat="39.5206851244687" lon="8.963777811118813"><ele>145.0</ele><time>2026-05-03T07:28:38Z</time></trkpt><trkpt lat="39.52077480383793" lon="8.963674413565844"><ele>145.0</ele><time>2026-05-03T07:28:40Z</time></trkpt><trkpt lat="39.52085566666541" lon="8.963579987120188"><ele>145.0</ele><time>2026-05-03T07:28:42Z</time></trkpt><trkpt lat="39.52093439035512" lon="8.963490114769625"><ele>145.0</ele><time>2026-05-03T07:28:44Z</time></trkpt><trkpt lat="39.52101036492086" lon="8.96340518991509"><ele>145.0</ele><time>2026-05-03T07:28:46Z</time></trkpt><trkpt lat="39.52108387310304" lon="8.963312863100274"><ele>145.0</ele><time>2026-05-03T07:28:48Z</time></trkpt><trkpt lat="39.521149982510956" lon="8.96322403010627"><ele>145.0</ele><time>2026-05-03T07:28:50Z</time></trkpt><trkpt lat="39.52121493652039" lon="8.963123731372422"><ele>145.0</ele><time>2026-05-03T07:28:52Z</time></trkpt><trkpt lat="39.521265641413436" lon="8.963004073142399"><ele>145.0</ele><time>2026-05-03T07:28:54Z</time></trkpt><trkpt lat="39.521327640398304" lon="8.962888618995558"><ele>145.0</ele><time>2026-05-03T07:28:56Z</time></trkpt><trkpt lat="39.52138367609759" lon="8.96276953276373"><ele>145.0</ele><time>2026-05-03T07:28:58Z</time></trkpt><trkpt lat="39.52143012838745" lon="8.962655397589241"><ele>145.0</ele><time>2026-05-03T07:29:00Z</time></trkpt><trkpt lat="39.52147499316262" lon="8.962538501449488"><ele>145.0</ele><time>2026-05-03T07:29:02Z</time></trkpt><trkpt lat="39.52152327086841" lon="8.962416878129597"><ele>145.0</ele><time>2026-05-03T07:29:04Z</time></trkpt><trkpt lat="39.52159596283648" lon="8.96229874451602"><ele>145.0</ele><time>2026-05-03T07:29:06Z</time></trkpt><trkpt lat="39.52164206578615" lon="8.962241400001865"><ele>144.42857142857144</ele><time>2026-05-03T07:29:07Z</time></trkpt><trkpt lat="39.52169532825359" lon="8.962185810414512"><ele>143.85714285714286</ele><time>2026-05-03T07:29:08Z</time></trkpt><trkpt lat="39.521755133898914" lon="8.962134896126818"><ele>143.28571428571428</ele><time>2026-05-03T07:29:09Z</time></trkpt><trkpt lat="39.52181563497803" lon="8.9620876075833"><ele>142.71428571428572</ele><time>2026-05-03T07:29:10Z</time></trkpt><trkpt lat="39.52187661823798" lon="8.962042688092959"><ele>142.14285714285714</ele><time>2026-05-03T07:29:11Z</time></trkpt><trkpt lat="39.521936438175345" lon="8.9619956078264"><ele>141.57142857142858</ele><time>2026-05-03T07:29:12Z</time></trkpt><trkpt lat="39.52199017127686" lon="8.961945459607014"><ele>141.0</ele><time>2026-05-03T07:29:13Z</time></trkpt><trkpt lat="39.52204139498586" lon="8.961885705081398"><ele>140.71428571428572</ele><time>2026-05-03T07:29:14Z</time></trkpt><trkpt lat="39.52209274658254" lon="8.961830558081008"><ele>140.42857142857142</ele><time>2026-05-03T07:29:15Z</time></trkpt><trkpt lat="39.52214327435447" lon="8.961774875284988"><ele>140.14285714285714</ele><time>2026-05-03T07:29:16Z</time></trkpt><trkpt lat="39.52219369057464" lon="8.961719767566713"><ele>139.85714285714286</ele><time>2026-05-03T07:29:17Z</time></trkpt><trkpt lat="39.52224462795885" lon="8.961669944455288"><ele>139.57142857142858</ele><time>2026-05-03T07:29:18Z</time></trkpt><trkpt lat="39.522296470619295" lon="8.96162023605366"><ele>139.28571428571428</ele><time>2026-05-03T07:29:19Z</time></trkpt><trkpt lat="39.522347494872996" lon="8.961569653447029"><ele>139.0</ele><time>2026-05-03T07:29:20Z</time></trkpt><trkpt lat="39.522399270138585" lon="8.961520885983628"><ele>139.0</ele><time>2026-05-03T07:29:21Z</time></trkpt><trkpt lat="39.52245558624032" lon="8.961475093972284"><ele>139.0</ele><time>2026-05-03T07:29:22Z</time></trkpt><trkpt lat="39.52251189193267" lon="8.961429833348626"><ele>139.0</ele><time>2026-05-03T07:29:23Z</time></trkpt><trkpt lat="39.52256765433947" lon="8.961385921558074"><ele>139.0</ele><time>2026-05-03T07:29:24Z</time></trkpt><trkpt lat="39.52262226719506" lon="8.961342406183485"><ele>139.0</ele><time>2026-05-03T07:29:25Z</time></trkpt><trkpt lat="39.522680174435905" lon="8.961306026201061"><ele>139.0</ele><time>2026-05-03T07:29:26Z</time></trkpt><trkpt lat="39.52279139968552" lon="8.961233773544764"><ele>139.0</ele><time>2026-05-03T07:29:28Z</time></trkpt><trkpt lat="39.52290321279001" lon="8.961169266005342"><ele>139.0</ele><time>2026-05-03T07:29:30Z</time></trkpt><trkpt lat="39.523016477327175" lon="8.96112997969628"><ele>139.0</ele><time>2026-05-03T07:29:32Z</time></trkpt><trkpt lat="39.52312157111614" lon="8.961074181505323"><ele>139.0</ele><time>2026-05-03T07:29:34Z</time></trkpt><trkpt lat="39.52321006210057" lon="8.960998456359915"><ele>139.0</ele><time>2026-05-03T07:29:36Z</time></trkpt><trkpt lat="39.52330032859982" lon="8.96096643396235"><ele>139.0</ele><time>2026-05-03T07:29:38Z</time></trkpt><trkpt lat="39.5233784393078" lon="8.96105183954068"><ele>139.0</ele><time>2026-05-03T07:29:40Z</time></trkpt><trkpt lat="39.52345102090787" lon="8.96111405652299"><ele>139.0</ele><time>2026-05-03T07:29:42Z</time></trkpt><trkpt lat="39.52352344786714" lon="8.961175472992618"><ele>139.0</ele><time>2026-05-03T07:29:44Z</time></trkpt><trkpt lat="39.523593164127355" lon="8.961239262789142"><ele>139.0</ele><time>2026-05-03T07:29:46Z</time></trkpt><trkpt lat="39.52366247633503" lon="8.961302763465033"><ele>139.0</ele><time>2026-05-03T07:29:48Z</time></trkpt><trkpt lat="39.52373347755693" lon="8.961356399408881"><ele>139.0</ele><time>2026-05-03T07:29:50Z</time></trkpt><trkpt lat="39.523800798287255" lon="8.961413047259002"><ele>139.0</ele><time>2026-05-03T07:29:52Z</time></trkpt><trkpt lat="39.52386746899079" lon="8.961469553303658"><ele>139.0</ele><time>2026-05-03T07:29:54Z</time></trkpt><trkpt lat="39.523933272708796" lon="8.96152438042804"><ele>139.0</ele><time>2026-05-03T07:29:56Z</time></trkpt><trkpt lat="39.52399485967771" lon="8.96157638819073"><ele>138.85714285714286</ele><time>2026-05-03T07:29:58Z</time></trkpt><trkpt lat="39.52406881983572" lon="8.961628711612516"><ele>138.71428571428572</ele><time>2026-05-03T07:30:01Z</time></trkpt><trkpt lat="39.524123623875695" lon="8.961682833399488"><ele>138.57142857142858</ele><time>2026-05-03T07:30:44Z</time></trkpt><trkpt lat="39.52418484999901" lon="8.961749668725778"><ele>138.42857142857144</ele><time>2026-05-03T07:30:47Z</time></trkpt><trkpt lat="39.524239591895785" lon="8.961797658734488"><ele>138.2857142857143</ele><time>2026-05-03T07:30:49Z</time></trkpt><trkpt lat="39.52429700994077" lon="8.961844852208067"><ele>138.14285714285714</ele><time>2026-05-03T07:30:51Z</time></trkpt><trkpt lat="39.52435690316011" lon="8.961895473459844"><ele>138.0</ele><time>2026-05-03T07:30:53Z</time></trkpt><trkpt lat="39.52441774877098" lon="8.961947090256237"><ele>138.66666666666666</ele><time>2026-05-03T07:30:55Z</time></trkpt><trkpt lat="39.52447915728206" lon="8.962001053708748"><ele>139.33333333333334</ele><time>2026-05-03T07:30:57Z</time></trkpt><trkpt lat="39.52454451161549" lon="8.962053588398355"><ele>140.0</ele><time>2026-05-03T07:30:59Z</time></trkpt><trkpt lat="39.52460807673909" lon="8.962109148295474"><ele>140.66666666666669</ele><time>2026-05-03T07:31:01Z</time></trkpt><trkpt lat="39.52467144330762" lon="8.962165895354273"><ele>141.33333333333334</ele><time>2026-05-03T07:31:03Z</time></trkpt><trkpt lat="39.52473663986222" lon="8.962221936728112"><ele>142.0</ele><time>2026-05-03T07:31:05Z</time></trkpt><trkpt lat="39.52480113084847" lon="8.962277837763141"><ele>142.0</ele><time>2026-05-03T07:31:07Z</time></trkpt><trkpt lat="39.52486492892359" lon="8.962333824759279"><ele>142.0</ele><time>2026-05-03T07:31:09Z</time></trkpt><trkpt lat="39.52492876564684" lon="8.962386363525903"><ele>142.0</ele><time>2026-05-03T07:31:11Z</time></trkpt><trkpt lat="39.52499237185602" lon="8.96243909612801"><ele>142.0</ele><time>2026-05-03T07:31:13Z</time></trkpt><trkpt lat="39.5250548701298" lon="8.962493139257004"><ele>142.0</ele><time>2026-05-03T07:31:15Z</time></trkpt><trkpt lat="39.525117793854115" lon="8.96254606159561"><ele>142.0</ele><time>2026-05-03T07:31:17Z</time></trkpt><trkpt lat="39.52518097207715" lon="8.962597557458995"><ele>142.42857142857142</ele><time>2026-05-03T07:31:19Z</time></trkpt><trkpt lat="39.525241730996655" lon="8.962653505338348"><ele>142.85714285714283</ele><time>2026-05-03T07:31:21Z</time></trkpt><trkpt lat="39.52530590115546" lon="8.96270274467595"><ele>143.28571428571428</ele><time>2026-05-03T07:31:23Z</time></trkpt><trkpt lat="39.52536728844596" lon="8.962755934664756"><ele>143.71428571428572</ele><time>2026-05-03T07:31:25Z</time></trkpt><trkpt lat="39.525430292594095" lon="8.962810619335887"><ele>144.14285714285717</ele><time>2026-05-03T07:31:27Z</time></trkpt><trkpt lat="39.525493406463696" lon="8.9628612214499"><ele>144.57142857142858</ele><time>2026-05-03T07:31:29Z</time></trkpt><trkpt lat="39.5255573600852" lon="8.962911055713532"><ele>145.0</ele><time>2026-05-03T07:31:31Z</time></trkpt><trkpt lat="39.5256192375614" lon="8.962966132043022"><ele>145.0</ele><time>2026-05-03T07:31:33Z</time></trkpt><trkpt lat="39.52567924588893" lon="8.963020928573574"><ele>145.0</ele><time>2026-05-03T07:31:35Z</time></trkpt><trkpt lat="39.525740379554854" lon="8.96307571612079"><ele>145.0</ele><time>2026-05-03T07:31:37Z</time></trkpt><trkpt lat="39.525803612598565" lon="8.96312556689571"><ele>145.0</ele><time>2026-05-03T07:31:39Z</time></trkpt><trkpt lat="39.52586731612758" lon="8.963169913422492"><ele>145.0</ele><time>2026-05-03T07:31:41Z</time></trkpt><trkpt lat="39.52592956094052" lon="8.963219628467538"><ele>145.0</ele><time>2026-05-03T07:31:43Z</time></trkpt><trkpt lat="39.525988332616926" lon="8.963273235186534"><ele>145.0</ele><time>2026-05-03T07:31:45Z</time></trkpt><trkpt lat="39.52605052428616" lon="8.963324628776375"><ele>145.57142857142858</ele><time>2026-05-03T07:31:47Z</time></trkpt><trkpt lat="39.52611154830655" lon="8.963375126775619"><ele>146.14285714285717</ele><time>2026-05-03T07:31:49Z</time></trkpt><trkpt lat="39.52616994392437" lon="8.963426192765041"><ele>146.71428571428572</ele><time>2026-05-03T07:31:51Z</time></trkpt><trkpt lat="39.5262297432285" lon="8.963479371041085"><ele>147.28571428571428</ele><time>2026-05-03T07:31:53Z</time></trkpt><trkpt lat="39.52629079673535" lon="8.96353034841906"><ele>147.85714285714283</ele><time>2026-05-03T07:31:55Z</time></trkpt><trkpt lat="39.5263504032334" lon="8.96358168241054"><ele>148.42857142857142</ele><time>2026-05-03T07:31:57Z</time></trkpt><trkpt lat="39.526410858398634" lon="8.963632657038138"><ele>149.0</ele><time>2026-05-03T07:31:59Z</time></trkpt><trkpt lat="39.52647210354701" lon="8.963682575625402"><ele>149.0</ele><time>2026-05-03T07:32:01Z</time></trkpt><trkpt lat="39.52653549410836" lon="8.963725464424892"><ele>149.0</ele><time>2026-05-03T07:32:03Z</time></trkpt><trkpt lat="39.526595695235656" lon="8.96377854651561"><ele>149.0</ele><time>2026-05-03T07:32:05Z</time></trkpt><trkpt lat="39.52665525072313" lon="8.963829929924612"><ele>149.0</ele><time>2026-05-03T07:32:07Z</time></trkpt><trkpt lat="39.526715706456464" lon="8.963881847707913"><ele>149.0</ele><time>2026-05-03T07:32:09Z</time></trkpt><trkpt lat="39.526777525098176" lon="8.963929956917708"><ele>149.0</ele><time>2026-05-03T07:32:11Z</time></trkpt><trkpt lat="39.526838890212915" lon="8.963983881057104"><ele>149.0</ele><time>2026-05-03T07:32:13Z</time></trkpt><trkpt lat="39.52690010960596" lon="8.964033196969101"><ele>149.0</ele><time>2026-05-03T07:32:15Z</time></trkpt><trkpt lat="39.52696163996895" lon="8.964085452341834"><ele>149.0</ele><time>2026-05-03T07:32:17Z</time></trkpt><trkpt lat="39.52702003537222" lon="8.964136698304932"><ele>149.0</ele><time>2026-05-03T07:32:19Z</time></trkpt><trkpt lat="39.527080843339746" lon="8.964187147888751"><ele>149.0</ele><time>2026-05-03T07:32:21Z</time></trkpt><trkpt lat="39.527139679651214" lon="8.964239874723289"><ele>149.0</ele><time>2026-05-03T07:32:23Z</time></trkpt><trkpt lat="39.52719994121944" lon="8.96428960684991"><ele>149.0</ele><time>2026-05-03T07:32:25Z</time></trkpt><trkpt lat="39.527262974307455" lon="8.964331182823628"><ele>149.0</ele><time>2026-05-03T07:32:27Z</time></trkpt><trkpt lat="39.5273249328619" lon="8.964375283064248"><ele>148.33333333333331</ele><time>2026-05-03T07:32:29Z</time></trkpt><trkpt lat="39.52739775397014" lon="8.964410448978835"><ele>147.66666666666666</ele><time>2026-05-03T07:32:31Z</time></trkpt><trkpt lat="39.52748809587317" lon="8.96444963899823"><ele>147.0</ele><time>2026-05-03T07:32:33Z</time></trkpt><trkpt lat="39.52758354492883" lon="8.964537930722214"><ele>146.33333333333334</ele><time>2026-05-03T07:32:35Z</time></trkpt><trkpt lat="39.52762143865237" lon="8.964616834975528"><ele>145.66666666666669</ele><time>2026-05-03T07:32:36Z</time></trkpt><trkpt lat="39.5276478913337" lon="8.964710337786176"><ele>145.0</ele><time>2026-05-03T07:32:37Z</time></trkpt><trkpt lat="39.527659223223736" lon="8.964811805351625"><ele>145.0</ele><time>2026-05-03T07:32:38Z</time></trkpt><trkpt lat="39.527671976276665" lon="8.964919126734184"><ele>145.0</ele><time>2026-05-03T07:32:39Z</time></trkpt><trkpt lat="39.52767682550176" lon="8.965023106491403"><ele>145.0</ele><time>2026-05-03T07:32:40Z</time></trkpt><trkpt lat="39.52767550112874" lon="8.965115586353193"><ele>145.0</ele><time>2026-05-03T07:32:41Z</time></trkpt><trkpt lat="39.527752983965456" lon="8.965204827355024"><ele>145.0</ele><time>2026-05-03T07:32:43Z</time></trkpt><trkpt lat="39.52781891496167" lon="8.96515158973087"><ele>145.0</ele><time>2026-05-03T07:32:44Z</time></trkpt><trkpt lat="39.527845386644756" lon="8.96503303624206"><ele>145.0</ele><time>2026-05-03T07:32:45Z</time></trkpt><trkpt lat="39.52784932753817" lon="8.964912835106434"><ele>145.0</ele><time>2026-05-03T07:32:46Z</time></trkpt><trkpt lat="39.52785991078671" lon="8.964796331888635"><ele>145.0</ele><time>2026-05-03T07:32:47Z</time></trkpt><trkpt lat="39.52788164097388" lon="8.964691550424162"><ele>145.0</ele><time>2026-05-03T07:32:48Z</time></trkpt><trkpt lat="39.52791002041791" lon="8.964611027069258"><ele>145.0</ele><time>2026-05-03T07:32:49Z</time></trkpt><trkpt lat="39.52796425329867" lon="8.964556956420497"><ele>145.0</ele><time>2026-05-03T07:32:50Z</time></trkpt><trkpt lat="39.52803947147166" lon="8.964543856147632"><ele>143.5</ele><time>2026-05-03T07:32:51Z</time></trkpt><trkpt lat="39.52811906835503" lon="8.964573361094871"><ele>142.0</ele><time>2026-05-03T07:32:52Z</time></trkpt><trkpt lat="39.528186398404074" lon="8.964612049569386"><ele>140.5</ele><time>2026-05-03T07:32:53Z</time></trkpt><trkpt lat="39.52828478995553" lon="8.964666907917529"><ele>139.0</ele><time>2026-05-03T07:32:55Z</time></trkpt><trkpt lat="39.52830633075983" lon="8.96474445286598"><ele>137.5</ele><time>2026-05-03T07:32:57Z</time></trkpt><trkpt lat="39.52831321094726" lon="8.964837168117068"><ele>136.0</ele><time>2026-05-03T07:33:02Z</time></trkpt><trkpt lat="39.528318416455306" lon="8.964919558935142"><ele>135.99999999999997</ele><time>2026-05-03T07:33:07Z</time></trkpt><trkpt lat="39.52837691671795" lon="8.964950864171671"><ele>136.0</ele><time>2026-05-03T07:33:11Z</time></trkpt><trkpt lat="39.52844793798147" lon="8.964953718379123"><ele>136.0</ele><time>2026-05-03T07:33:16Z</time></trkpt><trkpt lat="39.52851186581558" lon="8.964922752359064"><ele>136.0</ele><time>2026-05-03T07:33:21Z</time></trkpt><trkpt lat="39.52857243886233" lon="8.964873598519631"><ele>136.0</ele><time>2026-05-03T07:33:26Z</time></trkpt><trkpt lat="39.528646797056915" lon="8.964846727941742"><ele>135.99999999999997</ele><time>2026-05-03T07:33:31Z</time></trkpt><trkpt lat="39.52871541862729" lon="8.964840661576561"><ele>136.0</ele><time>2026-05-03T07:33:36Z</time></trkpt><trkpt lat="39.52879168412887" lon="8.964842527871472"><ele>137.99999999999997</ele><time>2026-05-03T07:33:41Z</time></trkpt><trkpt lat="39.528863512445916" lon="8.9648605481176"><ele>140.0</ele><time>2026-05-03T07:33:46Z</time></trkpt><trkpt lat="39.528933516883306" lon="8.96489148133057"><ele>142.0</ele><time>2026-05-03T07:33:51Z</time></trkpt><trkpt lat="39.529002368104955" lon="8.964921727913651"><ele>144.0</ele><time>2026-05-03T07:33:56Z</time></trkpt><trkpt lat="39.52906599301528" lon="8.964963486623684"><ele>146.0</ele><time>2026-05-03T07:34:01Z</time></trkpt><trkpt lat="39.529125574659794" lon="8.965011256513023"><ele>147.99999999999997</ele><time>2026-05-03T07:34:06Z</time></trkpt><trkpt lat="39.52917412935163" lon="8.96507474445707"><ele>150.0</ele><time>2026-05-03T07:34:11Z</time></trkpt><trkpt lat="39.52922948773691" lon="8.965129911080169"><ele>149.14285714285714</ele><time>2026-05-03T07:34:16Z</time></trkpt><trkpt lat="39.52927286767651" lon="8.965204699224936"><ele>148.28571428571428</ele><time>2026-05-03T07:34:21Z</time></trkpt><trkpt lat="39.52932054184562" lon="8.96526769157396"><ele>147.42857142857144</ele><time>2026-05-03T07:34:26Z</time></trkpt><trkpt lat="39.52935919302661" lon="8.965333830112295"><ele>146.57142857142856</ele><time>2026-05-03T07:34:34Z</time></trkpt><trkpt lat="39.52940854355076" lon="8.96538666990659"><ele>145.71428571428572</ele><time>2026-05-03T07:35:40Z</time></trkpt><trkpt lat="39.529458870273956" lon="8.965466498086174"><ele>144.85714285714286</ele><time>2026-05-03T07:35:43Z</time></trkpt><trkpt lat="39.52950754200977" lon="8.965546479104509"><ele>144.0</ele><time>2026-05-03T07:35:45Z</time></trkpt><trkpt lat="39.52957638269037" lon="8.965639494082318"><ele>144.0</ele><time>2026-05-03T07:35:47Z</time></trkpt><trkpt lat="39.529660914090925" lon="8.965749811477442"><ele>144.0</ele><time>2026-05-03T07:35:49Z</time></trkpt><trkpt lat="39.52970587911225" lon="8.965813207750845"><ele>144.0</ele><time>2026-05-03T07:35:50Z</time></trkpt><trkpt lat="39.52975211308679" lon="8.965885274158232"><ele>144.0</ele><time>2026-05-03T07:35:51Z</time></trkpt><trkpt lat="39.52980364006546" lon="8.965960777813617"><ele>144.0</ele><time>2026-05-03T07:35:52Z</time></trkpt><trkpt lat="39.52985898461709" lon="8.966039876997652"><ele>144.0</ele><time>2026-05-03T07:35:53Z</time></trkpt><trkpt lat="39.529914367762764" lon="8.966119950946947"><ele>144.33333333333334</ele><time>2026-05-03T07:35:54Z</time></trkpt><trkpt lat="39.52996778019828" lon="8.966203532534092"><ele>144.66666666666666</ele><time>2026-05-03T07:35:55Z</time></trkpt><trkpt lat="39.53002299985125" lon="8.966286790448049"><ele>145.0</ele><time>2026-05-03T07:35:56Z</time></trkpt><trkpt lat="39.530076625739696" lon="8.966366110332881"><ele>145.33333333333331</ele><time>2026-05-03T07:35:57Z</time></trkpt><trkpt lat="39.53012759802041" lon="8.966439510417892"><ele>145.66666666666666</ele><time>2026-05-03T07:35:58Z</time></trkpt><trkpt lat="39.53017466642814" lon="8.966510334562674"><ele>146.0</ele><time>2026-05-03T07:35:59Z</time></trkpt><trkpt lat="39.53021992146214" lon="8.966575150292998"><ele>145.75</ele><time>2026-05-03T07:36:00Z</time></trkpt><trkpt lat="39.53030203822918" lon="8.966694726852529"><ele>145.5</ele><time>2026-05-03T07:36:02Z</time></trkpt><trkpt lat="39.53036860009115" lon="8.96680395142276"><ele>145.25</ele><time>2026-05-03T07:36:04Z</time></trkpt><trkpt lat="39.53049144277915" lon="8.966736513453903"><ele>145.0</ele><time>2026-05-03T07:36:06Z</time></trkpt><trkpt lat="39.530587828325274" lon="8.966660794587263"><ele>145.0</ele><time>2026-05-03T07:36:08Z</time></trkpt><trkpt lat="39.53071280577984" lon="8.966663733127877"><ele>145.0</ele><time>2026-05-03T07:36:10Z</time></trkpt><trkpt lat="39.53077735985746" lon="8.966690056236116"><ele>145.0</ele><time>2026-05-03T07:36:11Z</time></trkpt><trkpt lat="39.53084041512525" lon="8.96672385825283"><ele>145.0</ele><time>2026-05-03T07:36:12Z</time></trkpt><trkpt lat="39.53090428575668" lon="8.96676406437715"><ele>145.0</ele><time>2026-05-03T07:36:13Z</time></trkpt><trkpt lat="39.53097098359436" lon="8.966807571571863"><ele>145.0</ele><time>2026-05-03T07:36:14Z</time></trkpt><trkpt lat="39.53104211952193" lon="8.966843956810992"><ele>145.0</ele><time>2026-05-03T07:36:15Z</time></trkpt><trkpt lat="39.53111981912314" lon="8.966868231900566"><ele>145.0</ele><time>2026-05-03T07:36:16Z</time></trkpt><trkpt lat="39.531203889675254" lon="8.966866201555698"><ele>145.0</ele><time>2026-05-03T07:36:17Z</time></trkpt><trkpt lat="39.531283250457236" lon="8.96684381767935"><ele>145.0</ele><time>2026-05-03T07:36:18Z</time></trkpt><trkpt lat="39.53135284765921" lon="8.966806721568654"><ele>145.0</ele><time>2026-05-03T07:36:19Z</time></trkpt><trkpt lat="39.53141744315435" lon="8.966767032452417"><ele>145.0</ele><time>2026-05-03T07:36:20Z</time></trkpt><trkpt lat="39.53146923172767" lon="8.966720123199238"><ele>144.33333333333334</ele><time>2026-05-03T07:36:21Z</time></trkpt><trkpt lat="39.531561993454496" lon="8.966636583292"><ele>143.66666666666669</ele><time>2026-05-03T07:36:23Z</time></trkpt><trkpt lat="39.53163624249151" lon="8.966566797029623"><ele>143.0</ele><time>2026-05-03T07:36:25Z</time></trkpt><trkpt lat="39.531689884387035" lon="8.966498481873588"><ele>142.33333333333334</ele><time>2026-05-03T07:36:27Z</time></trkpt><trkpt lat="39.531733072442705" lon="8.966421584813945"><ele>141.66666666666666</ele><time>2026-05-03T07:36:29Z</time></trkpt><trkpt lat="39.53177324392657" lon="8.966339999241276"><ele>141.0</ele><time>2026-05-03T07:36:31Z</time></trkpt><trkpt lat="39.53180778959869" lon="8.966253201181317"><ele>141.0</ele><time>2026-05-03T07:36:33Z</time></trkpt><trkpt lat="39.53183711790712" lon="8.966159059361235"><ele>141.0</ele><time>2026-05-03T07:36:35Z</time></trkpt><trkpt lat="39.53186519712564" lon="8.966068328008888"><ele>141.0</ele><time>2026-05-03T07:36:37Z</time></trkpt><trkpt lat="39.53189514073565" lon="8.965977172595377"><ele>141.0</ele><time>2026-05-03T07:36:39Z</time></trkpt><trkpt lat="39.53192722110585" lon="8.96589189249922"><ele>141.0</ele><time>2026-05-03T07:36:41Z</time></trkpt><trkpt lat="39.53195383089449" lon="8.965808009104629"><ele>141.0</ele><time>2026-05-03T07:36:43Z</time></trkpt><trkpt lat="39.531982001701955" lon="8.965729545530447"><ele>141.0</ele><time>2026-05-03T07:36:45Z</time></trkpt><trkpt lat="39.53201445059615" lon="8.965651627686086"><ele>140.71428571428572</ele><time>2026-05-03T07:36:47Z</time></trkpt><trkpt lat="39.53204663552259" lon="8.965570960622472"><ele>140.42857142857142</ele><time>2026-05-03T07:36:49Z</time></trkpt><trkpt lat="39.5320779171671" lon="8.96549190612928"><ele>140.14285714285714</ele><time>2026-05-03T07:36:51Z</time></trkpt><trkpt lat="39.53210986822563" lon="8.965414843140243"><ele>139.85714285714286</ele><time>2026-05-03T07:36:53Z</time></trkpt><trkpt lat="39.53214129761441" lon="8.965334375306346"><ele>139.57142857142858</ele><time>2026-05-03T07:36:55Z</time></trkpt><trkpt lat="39.53217593086611" lon="8.965258262285195"><ele>139.28571428571428</ele><time>2026-05-03T07:36:57Z</time></trkpt><trkpt lat="39.53220774255799" lon="8.965182042367086"><ele>139.0</ele><time>2026-05-03T07:36:59Z</time></trkpt><trkpt lat="39.532241600967986" lon="8.965103993809523"><ele>141.66666666666669</ele><time>2026-05-03T07:37:01Z</time></trkpt><trkpt lat="39.532271128705545" lon="8.965018949095038"><ele>144.33333333333334</ele><time>2026-05-03T07:37:03Z</time></trkpt><trkpt lat="39.53230859666686" lon="8.964929436184258"><ele>147.0</ele><time>2026-05-03T07:37:05Z</time></trkpt><trkpt lat="39.5323547373164" lon="8.964835553155284"><ele>149.66666666666666</ele><time>2026-05-03T07:37:07Z</time></trkpt><trkpt lat="39.53240381303275" lon="8.964730325831649"><ele>152.33333333333331</ele><time>2026-05-03T07:37:09Z</time></trkpt><trkpt lat="39.53246290480034" lon="8.964600399609688"><ele>155.0</ele><time>2026-05-03T07:37:11Z</time></trkpt><trkpt lat="39.53249813691057" lon="8.964528194281797"><ele>155.0</ele><time>2026-05-03T07:37:12Z</time></trkpt><trkpt lat="39.53253738039974" lon="8.96445246796792"><ele>155.0</ele><time>2026-05-03T07:37:13Z</time></trkpt><trkpt lat="39.53257816447965" lon="8.96437301991892"><ele>155.0</ele><time>2026-05-03T07:37:14Z</time></trkpt><trkpt lat="39.5326226373089" lon="8.964287555346584"><ele>155.0</ele><time>2026-05-03T07:37:15Z</time></trkpt><trkpt lat="39.53267088381151" lon="8.964199758859609"><ele>155.0</ele><time>2026-05-03T07:37:16Z</time></trkpt><trkpt lat="39.53272326292515" lon="8.964106817669995"><ele>155.0</ele><time>2026-05-03T07:37:17Z</time></trkpt><trkpt lat="39.53277704583028" lon="8.96401453900383"><ele>153.6</ele><time>2026-05-03T07:37:18Z</time></trkpt><trkpt lat="39.53283540732078" lon="8.963917574562316"><ele>152.2</ele><time>2026-05-03T07:37:19Z</time></trkpt><trkpt lat="39.53289565023821" lon="8.963823091867363"><ele>150.8</ele><time>2026-05-03T07:37:20Z</time></trkpt><trkpt lat="39.532962176287434" lon="8.963730567712444"><ele>149.4</ele><time>2026-05-03T07:37:21Z</time></trkpt><trkpt lat="39.53302784152249" lon="8.963643778785967"><ele>148.0</ele><time>2026-05-03T07:37:22Z</time></trkpt><trkpt lat="39.53308907582162" lon="8.963550559904762"><ele>148.0</ele><time>2026-05-03T07:37:23Z</time></trkpt><trkpt lat="39.53313527989232" lon="8.96344795601718"><ele>148.0</ele><time>2026-05-03T07:37:24Z</time></trkpt><trkpt lat="39.53317495528376" lon="8.963344252630531"><ele>148.0</ele><time>2026-05-03T07:37:25Z</time></trkpt><trkpt lat="39.53321150136843" lon="8.963244835255491"><ele>148.0</ele><time>2026-05-03T07:37:26Z</time></trkpt><trkpt lat="39.53324964668271" lon="8.963151746199957"><ele>148.0</ele><time>2026-05-03T07:37:27Z</time></trkpt><trkpt lat="39.53329206472796" lon="8.963066986703693"><ele>148.0</ele><time>2026-05-03T07:37:28Z</time></trkpt><trkpt lat="39.53333699663718" lon="8.962987412778684"><ele>146.28571428571428</ele><time>2026-05-03T07:37:29Z</time></trkpt><trkpt lat="39.53338974095586" lon="8.96292003376392"><ele>144.57142857142856</ele><time>2026-05-03T07:37:30Z</time></trkpt><trkpt lat="39.53343945169188" lon="8.962855500499527"><ele>142.85714285714283</ele><time>2026-05-03T07:37:31Z</time></trkpt><trkpt lat="39.53348685393076" lon="8.962798408708682"><ele>141.14285714285714</ele><time>2026-05-03T07:37:32Z</time></trkpt><trkpt lat="39.53353446476394" lon="8.962736546926036"><ele>139.42857142857142</ele><time>2026-05-03T07:37:33Z</time></trkpt><trkpt lat="39.533580926374015" lon="8.962677779864277"><ele>137.7142857142857</ele><time>2026-05-03T07:37:34Z</time></trkpt><trkpt lat="39.53362609427526" lon="8.96262082320418"><ele>136.0</ele><time>2026-05-03T07:37:35Z</time></trkpt><trkpt lat="39.533712054628296" lon="8.962508362190022"><ele>137.5</ele><time>2026-05-03T07:37:37Z</time></trkpt><trkpt lat="39.53378704106725" lon="8.9623897037935"><ele>139.0</ele><time>2026-05-03T07:37:39Z</time></trkpt><trkpt lat="39.533858578602654" lon="8.962266205332565"><ele>140.5</ele><time>2026-05-03T07:37:41Z</time></trkpt><trkpt lat="39.53393359569668" lon="8.962140823694472"><ele>142.0</ele><time>2026-05-03T07:37:43Z</time></trkpt><trkpt lat="39.53400038074317" lon="8.96201672649412"><ele>142.0</ele><time>2026-05-03T07:37:45Z</time></trkpt><trkpt lat="39.53406570393746" lon="8.961892088129256"><ele>142.0</ele><time>2026-05-03T07:37:47Z</time></trkpt><trkpt lat="39.53413001432709" lon="8.96176744811346"><ele>142.0</ele><time>2026-05-03T07:37:49Z</time></trkpt><trkpt lat="39.53419966493461" lon="8.961646478020281"><ele>142.0</ele><time>2026-05-03T07:37:51Z</time></trkpt><trkpt lat="39.53427114183664" lon="8.961525525269773"><ele>141.4</ele><time>2026-05-03T07:37:53Z</time></trkpt><trkpt lat="39.534348572343994" lon="8.961407844480346"><ele>140.79999999999998</ele><time>2026-05-03T07:37:55Z</time></trkpt><trkpt lat="39.53442683007741" lon="8.961299084584065"><ele>140.2</ele><time>2026-05-03T07:37:57Z</time></trkpt><trkpt lat="39.53450814887976" lon="8.961214408005793"><ele>139.6</ele><time>2026-05-03T07:37:59Z</time></trkpt><trkpt lat="39.53459768009073" lon="8.96113764338047"><ele>139.0</ele><time>2026-05-03T07:38:01Z</time></trkpt><trkpt lat="39.53469348338357" lon="8.961072205010355"><ele>141.0</ele><time>2026-05-03T07:38:03Z</time></trkpt><trkpt lat="39.53480264700953" lon="8.961043678496631"><ele>143.0</ele><time>2026-05-03T07:38:05Z</time></trkpt><trkpt lat="39.53491252549238" lon="8.961030055357014"><ele>145.0</ele><time>2026-05-03T07:38:07Z</time></trkpt><trkpt lat="39.53501048522263" lon="8.961017560723384"><ele>147.0</ele><time>2026-05-03T07:38:09Z</time></trkpt><trkpt lat="39.53509870798619" lon="8.960988416893384"><ele>149.0</ele><time>2026-05-03T07:38:11Z</time></trkpt><trkpt lat="39.53519012231625" lon="8.96094240890061"><ele>149.0</ele><time>2026-05-03T07:38:13Z</time></trkpt><trkpt lat="39.53527291018711" lon="8.960869907467051"><ele>149.0</ele><time>2026-05-03T07:38:15Z</time></trkpt><trkpt lat="39.53533894743509" lon="8.960789408993216"><ele>149.0</ele><time>2026-05-03T07:38:17Z</time></trkpt><trkpt lat="39.53539486675588" lon="8.96070030807877"><ele>149.0</ele><time>2026-05-03T07:38:19Z</time></trkpt><trkpt lat="39.535465025006715" lon="8.960687715125026"><ele>149.0</ele><time>2026-05-03T07:38:21Z</time></trkpt><trkpt lat="39.53553809324836" lon="8.960753869151986"><ele>149.0</ele><time>2026-05-03T07:38:24Z</time></trkpt><trkpt lat="39.53559109705114" lon="8.960823089571333"><ele>149.66666666666666</ele><time>2026-05-03T07:38:27Z</time></trkpt><trkpt lat="39.53565616694103" lon="8.96088524944499"><ele>150.33333333333331</ele><time>2026-05-03T07:38:30Z</time></trkpt><trkpt lat="39.53570854345237" lon="8.96096208929182"><ele>151.0</ele><time>2026-05-03T07:38:33Z</time></trkpt><trkpt lat="39.535793788035186" lon="8.960992468154341"><ele>151.66666666666666</ele><time>2026-05-03T07:38:36Z</time></trkpt><trkpt lat="39.53588373358545" lon="8.960997075576184"><ele>152.33333333333334</ele><time>2026-05-03T07:38:39Z</time></trkpt><trkpt lat="39.53597159059206" lon="8.960984996250009"><ele>153.0</ele><time>2026-05-03T07:38:42Z</time></trkpt><trkpt lat="39.53605234441759" lon="8.960966907358321"><ele>153.0</ele><time>2026-05-03T07:38:45Z</time></trkpt><trkpt lat="39.536129256753604" lon="8.96093040504333"><ele>153.0</ele><time>2026-05-03T07:38:48Z</time></trkpt><trkpt lat="39.53619958917677" lon="8.960896601097447"><ele>153.0</ele><time>2026-05-03T07:38:51Z</time></trkpt><trkpt lat="39.5362668504053" lon="8.960853330703749"><ele>153.0</ele><time>2026-05-03T07:38:54Z</time></trkpt><trkpt lat="39.53632083055956" lon="8.960781381686122"><ele>153.0</ele><time>2026-05-03T07:38:57Z</time></trkpt><trkpt lat="39.53635611219302" lon="8.960692973866879"><ele>153.0</ele><time>2026-05-03T07:39:00Z</time></trkpt><trkpt lat="39.536376799828254" lon="8.960599285799317"><ele>153.28571428571428</ele><time>2026-05-03T07:39:03Z</time></trkpt><trkpt lat="39.53638593869892" lon="8.960506903396809"><ele>153.57142857142858</ele><time>2026-05-03T07:39:06Z</time></trkpt><trkpt lat="39.53638340391135" lon="8.960421871908752"><ele>153.85714285714286</ele><time>2026-05-03T07:39:09Z</time></trkpt><trkpt lat="39.5363894225018" lon="8.96032720448939"><ele>154.14285714285714</ele><time>2026-05-03T07:39:13Z</time></trkpt><trkpt lat="39.53644963793953" lon="8.960277725026232"><ele>154.42857142857142</ele><time>2026-05-03T07:39:17Z</time></trkpt><trkpt lat="39.53652947880254" lon="8.960291544510811"><ele>154.71428571428572</ele><time>2026-05-03T07:39:21Z</time></trkpt><trkpt lat="39.536609989213325" lon="8.960317308231746"><ele>155.0</ele><time>2026-05-03T07:39:25Z</time></trkpt><trkpt lat="39.536685458019235" lon="8.960347472151327"><ele>155.0</ele><time>2026-05-03T07:39:29Z</time></trkpt><trkpt lat="39.536751856868214" lon="8.960394694585737"><ele>155.0</ele><time>2026-05-03T07:39:33Z</time></trkpt><trkpt lat="39.536809949737915" lon="8.960467140296261"><ele>155.0</ele><time>2026-05-03T07:39:37Z</time></trkpt><trkpt lat="39.53685028917039" lon="8.960552147413205"><ele>155.0</ele><time>2026-05-03T07:39:41Z</time></trkpt><trkpt lat="39.53688961446061" lon="8.960631411646819"><ele>155.0</ele><time>2026-05-03T07:39:45Z</time></trkpt><trkpt lat="39.53693449988441" lon="8.960726380536476"><ele>155.0</ele><time>2026-05-03T07:39:49Z</time></trkpt><trkpt lat="39.53697299502998" lon="8.960823796292312"><ele>156.0</ele><time>2026-05-03T07:39:53Z</time></trkpt><trkpt lat="39.537002782417325" lon="8.960897019874592"><ele>157.0</ele><time>2026-05-03T07:39:56Z</time></trkpt><trkpt lat="39.53703343392004" lon="8.96097119936825"><ele>158.0</ele><time>2026-05-03T07:39:59Z</time></trkpt><trkpt lat="39.53706015759457" lon="8.961050894878417"><ele>159.0</ele><time>2026-05-03T07:40:02Z</time></trkpt><trkpt lat="39.53708885704162" lon="8.961151517246316"><ele>160.0</ele><time>2026-05-03T07:40:06Z</time></trkpt><trkpt lat="39.53708533541825" lon="8.961241595952181"><ele>161.0</ele><time>2026-05-03T07:40:09Z</time></trkpt><trkpt lat="39.53706380520975" lon="8.96134620639736"><ele>162.0</ele><time>2026-05-03T07:40:13Z</time></trkpt><trkpt lat="39.53701729221721" lon="8.961427577129907"><ele>162.0</ele><time>2026-05-03T07:40:17Z</time></trkpt><trkpt lat="39.536956720671675" lon="8.961497064186398"><ele>162.0</ele><time>2026-05-03T07:40:21Z</time></trkpt><trkpt lat="39.53688978448044" lon="8.961559899493801"><ele>162.0</ele><time>2026-05-03T07:40:25Z</time></trkpt><trkpt lat="39.53682240689963" lon="8.961616222625867"><ele>162.0</ele><time>2026-05-03T07:40:29Z</time></trkpt><trkpt lat="39.53675269227505" lon="8.961673427531517"><ele>162.0</ele><time>2026-05-03T07:40:33Z</time></trkpt><trkpt lat="39.536699306263884" lon="8.961738704572763"><ele>162.0</ele><time>2026-05-03T07:40:37Z</time></trkpt><trkpt lat="39.53666050388501" lon="8.961820019501634"><ele>165.33333333333334</ele><time>2026-05-03T07:40:41Z</time></trkpt><trkpt lat="39.53662177782889" lon="8.961903977585733"><ele>168.66666666666666</ele><time>2026-05-03T07:40:45Z</time></trkpt><trkpt lat="39.53658013765449" lon="8.961991959113075"><ele>172.0</ele><time>2026-05-03T07:40:49Z</time></trkpt><trkpt lat="39.53653864384933" lon="8.962083441864522"><ele>175.33333333333331</ele><time>2026-05-03T07:40:53Z</time></trkpt><trkpt lat="39.53649099120042" lon="8.962168857755994"><ele>178.66666666666666</ele><time>2026-05-03T07:40:57Z</time></trkpt><trkpt lat="39.536432460570495" lon="8.962244477415657"><ele>182.0</ele><time>2026-05-03T07:41:01Z</time></trkpt><trkpt lat="39.53637606394998" lon="8.96228334009837"><ele>182.0</ele><time>2026-05-03T07:41:04Z</time></trkpt><trkpt lat="39.53631720589962" lon="8.962355020779347"><ele>182.0</ele><time>2026-05-03T07:41:08Z</time></trkpt><trkpt lat="39.53625508987738" lon="8.96241932124383"><ele>182.0</ele><time>2026-05-03T07:41:12Z</time></trkpt><trkpt lat="39.536201794171696" lon="8.962494028236325"><ele>182.0</ele><time>2026-05-03T07:41:16Z</time></trkpt><trkpt lat="39.53615996064539" lon="8.962579251225323"><ele>182.0</ele><time>2026-05-03T07:41:20Z</time></trkpt><trkpt lat="39.536120067694554" lon="8.962669557213891"><ele>182.0</ele><time>2026-05-03T07:41:24Z</time></trkpt><trkpt lat="39.5361098928676" lon="8.962757059190933"><ele>179.5</ele><time>2026-05-03T07:41:29Z</time></trkpt><trkpt lat="39.53608920075261" lon="8.962855942752697"><ele>177.0</ele><time>2026-05-03T07:41:48Z</time></trkpt><trkpt lat="39.5361124058758" lon="8.962956777571733"><ele>174.5</ele><time>2026-05-03T07:42:16Z</time></trkpt><trkpt lat="39.53612939925245" lon="8.963036981580197"><ele>172.0</ele><time>2026-05-03T07:42:19Z</time></trkpt><trkpt lat="39.53614755101129" lon="8.963138140489377"><ele>169.5</ele><time>2026-05-03T07:42:23Z</time></trkpt><trkpt lat="39.53615256139429" lon="8.963220721130549"><ele>167.0</ele><time>2026-05-03T07:42:26Z</time></trkpt><trkpt lat="39.5361667397647" lon="8.963325388114137"><ele>167.0</ele><time>2026-05-03T07:42:30Z</time></trkpt><trkpt lat="39.536176632297966" lon="8.96342834718155"><ele>167.0</ele><time>2026-05-03T07:42:34Z</time></trkpt><trkpt lat="39.53616201809633" lon="8.963530926429014"><ele>167.0</ele><time>2026-05-03T07:42:38Z</time></trkpt><trkpt lat="39.53614406264809" lon="8.963627520943184"><ele>167.0</ele><time>2026-05-03T07:42:42Z</time></trkpt><trkpt lat="39.53612839107474" lon="8.963730605531083"><ele>167.0</ele><time>2026-05-03T07:42:46Z</time></trkpt><trkpt lat="39.536116522394444" lon="8.963835053975105"><ele>167.0</ele><time>2026-05-03T07:42:50Z</time></trkpt><trkpt lat="39.53610702334258" lon="8.963939068063116"><ele>167.0</ele><time>2026-05-03T07:42:54Z</time></trkpt><trkpt lat="39.53613816112656" lon="8.964035776143453"><ele>167.0</ele><time>2026-05-03T07:42:58Z</time></trkpt><trkpt lat="39.536170682704096" lon="8.964106668664584"><ele>167.0</ele><time>2026-05-03T07:43:01Z</time></trkpt><trkpt lat="39.536226853659045" lon="8.96418784346636"><ele>167.0</ele><time>2026-05-03T07:43:05Z</time></trkpt><trkpt lat="39.53627167088173" lon="8.96424719049193"><ele>167.0</ele><time>2026-05-03T07:43:08Z</time></trkpt><trkpt lat="39.5363216301551" lon="8.964304167258359"><ele>167.0</ele><time>2026-05-03T07:43:11Z</time></trkpt><trkpt lat="39.53636053254062" lon="8.964369244023656"><ele>167.0</ele><time>2026-05-03T07:43:14Z</time></trkpt><trkpt lat="39.53640286035023" lon="8.964432649486076"><ele>169.71428571428572</ele><time>2026-05-03T07:43:17Z</time></trkpt><trkpt lat="39.53643500937672" lon="8.96450383909504"><ele>172.42857142857144</ele><time>2026-05-03T07:43:20Z</time></trkpt><trkpt lat="39.5364705949183" lon="8.964574881087097"><ele>175.14285714285717</ele><time>2026-05-03T07:43:23Z</time></trkpt><trkpt lat="39.53650509613441" lon="8.964676386716159"><ele>177.85714285714286</ele><time>2026-05-03T07:43:27Z</time></trkpt><trkpt lat="39.536542994240044" lon="8.964743949151385"><ele>180.57142857142858</ele><time>2026-05-03T07:43:30Z</time></trkpt><trkpt lat="39.53657315942201" lon="8.964816520308954"><ele>183.2857142857143</ele><time>2026-05-03T07:43:33Z</time></trkpt><trkpt lat="39.536598977621814" lon="8.964892054369528"><ele>186.0</ele><time>2026-05-03T07:43:36Z</time></trkpt><trkpt lat="39.53663437979629" lon="8.964961964107353"><ele>184.85714285714286</ele><time>2026-05-03T07:43:39Z</time></trkpt><trkpt lat="39.536670135578" lon="8.965032905860685"><ele>183.71428571428572</ele><time>2026-05-03T07:43:42Z</time></trkpt><trkpt lat="39.53670226311957" lon="8.965109073808149"><ele>182.57142857142856</ele><time>2026-05-03T07:43:45Z</time></trkpt><trkpt lat="39.53676677557021" lon="8.965174118479087"><ele>181.42857142857144</ele><time>2026-05-03T07:43:49Z</time></trkpt><trkpt lat="39.53683233088819" lon="8.965239804720122"><ele>180.28571428571428</ele><time>2026-05-03T07:43:53Z</time></trkpt><trkpt lat="39.536900240279834" lon="8.965300561855223"><ele>179.14285714285714</ele><time>2026-05-03T07:43:57Z</time></trkpt><trkpt lat="39.536953969821774" lon="8.965346495470007"><ele>178.0</ele><time>2026-05-03T07:44:00Z</time></trkpt><trkpt lat="39.53701402939166" lon="8.965389554169803"><ele>179.85714285714283</ele><time>2026-05-03T07:44:03Z</time></trkpt><trkpt lat="39.5370923982646" lon="8.965433805906486"><ele>181.71428571428572</ele><time>2026-05-03T07:44:07Z</time></trkpt><trkpt lat="39.53715106416146" lon="8.965472786675573"><ele>183.57142857142856</ele><time>2026-05-03T07:44:10Z</time></trkpt><trkpt lat="39.53721477209919" lon="8.965509158014068"><ele>185.42857142857142</ele><time>2026-05-03T07:44:13Z</time></trkpt><trkpt lat="39.53727720616904" lon="8.965540830117648"><ele>187.28571428571428</ele><time>2026-05-03T07:44:16Z</time></trkpt><trkpt lat="39.53733800530867" lon="8.965571201738113"><ele>189.14285714285714</ele><time>2026-05-03T07:44:19Z</time></trkpt><trkpt lat="39.53740050168641" lon="8.96559626365456"><ele>191.0</ele><time>2026-05-03T07:44:22Z</time></trkpt><trkpt lat="39.53746186801308" lon="8.96562367542436"><ele>191.0</ele><time>2026-05-03T07:44:25Z</time></trkpt><trkpt lat="39.53752710328937" lon="8.965643730663091"><ele>191.0</ele><time>2026-05-03T07:44:28Z</time></trkpt><trkpt lat="39.53759466115537" lon="8.965660433967615"><ele>191.0</ele><time>2026-05-03T07:44:31Z</time></trkpt><trkpt lat="39.53766878885797" lon="8.965663818185044"><ele>191.0</ele><time>2026-05-03T07:44:34Z</time></trkpt><trkpt lat="39.537745770356885" lon="8.965679077292911"><ele>191.0</ele><time>2026-05-03T07:44:37Z</time></trkpt><trkpt lat="39.537833227026645" lon="8.965717675665902"><ele>191.0</ele><time>2026-05-03T07:44:40Z</time></trkpt><trkpt lat="39.537882821521585" lon="8.965770559823998"><ele>191.0</ele><time>2026-05-03T07:44:42Z</time></trkpt><trkpt lat="39.53791487262973" lon="8.965841812727785"><ele>194.66666666666666</ele><time>2026-05-03T07:44:44Z</time></trkpt><trkpt lat="39.53792609829963" lon="8.965959536303604"><ele>198.33333333333331</ele><time>2026-05-03T07:44:47Z</time></trkpt><trkpt lat="39.5379242508365" lon="8.966076933707916"><ele>202.0</ele><time>2026-05-03T07:44:50Z</time></trkpt><trkpt lat="39.53791568348281" lon="8.96619103662497"><ele>205.66666666666666</ele><time>2026-05-03T07:44:53Z</time></trkpt><trkpt lat="39.537917278384874" lon="8.966304717632992"><ele>209.33333333333334</ele><time>2026-05-03T07:44:56Z</time></trkpt><trkpt lat="39.53791738628512" lon="8.96642239568642"><ele>213.0</ele><time>2026-05-03T07:44:59Z</time></trkpt><trkpt lat="39.53792275366531" lon="8.966504633513312"><ele>213.0</ele><time>2026-05-03T07:45:01Z</time></trkpt><trkpt lat="39.53792660337073" lon="8.966626067029829"><ele>213.0</ele><time>2026-05-03T07:45:04Z</time></trkpt><trkpt lat="39.5379379540169" lon="8.966745395571106"><ele>213.0</ele><time>2026-05-03T07:45:07Z</time></trkpt><trkpt lat="39.53794107632507" lon="8.966827564871549"><ele>213.0</ele><time>2026-05-03T07:45:09Z</time></trkpt><trkpt lat="39.537942719795794" lon="8.966944646043515"><ele>213.0</ele><time>2026-05-03T07:45:12Z</time></trkpt><trkpt lat="39.53794823251087" lon="8.967065255295093"><ele>213.0</ele><time>2026-05-03T07:45:15Z</time></trkpt><trkpt lat="39.53795793579566" lon="8.967176413530225"><ele>212.83333333333334</ele><time>2026-05-03T07:45:18Z</time></trkpt><trkpt lat="39.5379618803082" lon="8.967287960470445"><ele>212.66666666666669</ele><time>2026-05-03T07:45:21Z</time></trkpt><trkpt lat="39.537963591047166" lon="8.967397732823374"><ele>212.5</ele><time>2026-05-03T07:45:24Z</time></trkpt><trkpt lat="39.53797041469293" lon="8.967491033421126"><ele>212.33333333333334</ele><time>2026-05-03T07:45:27Z</time></trkpt><trkpt lat="39.53798325155873" lon="8.9675850495085"><ele>212.16666666666669</ele><time>2026-05-03T07:45:30Z</time></trkpt><trkpt lat="39.53799605156958" lon="8.96767899850923"><ele>212.0</ele><time>2026-05-03T07:45:33Z</time></trkpt><trkpt lat="39.538026669979864" lon="8.967762756302319"><ele>210.16666666666669</ele><time>2026-05-03T07:45:36Z</time></trkpt><trkpt lat="39.53807862036786" lon="8.967836352779479"><ele>208.33333333333334</ele><time>2026-05-03T07:45:39Z</time></trkpt><trkpt lat="39.53813756791303" lon="8.967896141890236"><ele>206.5</ele><time>2026-05-03T07:45:42Z</time></trkpt><trkpt lat="39.538204981750575" lon="8.9679558047097"><ele>204.66666666666669</ele><time>2026-05-03T07:45:45Z</time></trkpt><trkpt lat="39.5382935111757" lon="8.96802898691879"><ele>202.83333333333334</ele><time>2026-05-03T07:45:48Z</time></trkpt><trkpt lat="39.53835027172328" lon="8.968076341110807"><ele>201.0</ele><time>2026-05-03T07:45:50Z</time></trkpt><trkpt lat="39.53840896715585" lon="8.968122582903408"><ele>201.0</ele><time>2026-05-03T07:45:52Z</time></trkpt><trkpt lat="39.53849283379592" lon="8.968178523768788"><ele>201.0</ele><time>2026-05-03T07:45:55Z</time></trkpt><trkpt lat="39.53858032813737" lon="8.968237949049652"><ele>201.0</ele><time>2026-05-03T07:45:58Z</time></trkpt><trkpt lat="39.53864614529935" lon="8.968283537021481"><ele>201.0</ele><time>2026-05-03T07:46:00Z</time></trkpt><trkpt lat="39.538706635843624" lon="8.968335926424029"><ele>201.0</ele><time>2026-05-03T07:46:02Z</time></trkpt><trkpt lat="39.5387884647559" lon="8.968390060296818"><ele>201.0</ele><time>2026-05-03T07:46:05Z</time></trkpt><trkpt lat="39.538850870463996" lon="8.968433234546064"><ele>200.0</ele><time>2026-05-03T07:46:07Z</time></trkpt><trkpt lat="39.53892076692728" lon="8.968466155185173"><ele>199.0</ele><time>2026-05-03T07:46:09Z</time></trkpt><trkpt lat="39.53900232653995" lon="8.968484127570745"><ele>198.0</ele><time>2026-05-03T07:46:11Z</time></trkpt><trkpt lat="39.53909458571441" lon="8.968528992078575"><ele>197.0</ele><time>2026-05-03T07:46:13Z</time></trkpt><trkpt lat="39.539184013351004" lon="8.968610539360409"><ele>196.0</ele><time>2026-05-03T07:46:15Z</time></trkpt><trkpt lat="39.53926147195558" lon="8.968713050073788"><ele>196.0</ele><time>2026-05-03T07:46:17Z</time></trkpt><trkpt lat="39.53932881721082" lon="8.968818488648505"><ele>196.0</ele><time>2026-05-03T07:46:19Z</time></trkpt><trkpt lat="39.539401220283324" lon="8.968921199153089"><ele>196.0</ele><time>2026-05-03T07:46:21Z</time></trkpt><trkpt lat="39.53948752114375" lon="8.969017434551997"><ele>196.0</ele><time>2026-05-03T07:46:23Z</time></trkpt><trkpt lat="39.539530377606035" lon="8.969078902078476"><ele>196.0</ele><time>2026-05-03T07:46:24Z</time></trkpt><trkpt lat="39.53954551997547" lon="8.969160623547488"><ele>195.99999999999997</ele><time>2026-05-03T07:46:25Z</time></trkpt><trkpt lat="39.539544358340656" lon="8.969248199084502"><ele>196.0</ele><time>2026-05-03T07:46:26Z</time></trkpt><trkpt lat="39.53951577995692" lon="8.969330913750234"><ele>196.0</ele><time>2026-05-03T07:46:27Z</time></trkpt><trkpt lat="39.53952320068798" lon="8.969414178513725"><ele>196.0</ele><time>2026-05-03T07:46:28Z</time></trkpt><trkpt lat="39.539568184164125" lon="8.969541718344814"><ele>195.99999999999997</ele><time>2026-05-03T07:46:30Z</time></trkpt><trkpt lat="39.539626123699676" lon="8.969580150045955"><ele>196.0</ele><time>2026-05-03T07:46:31Z</time></trkpt><trkpt lat="39.53973971630655" lon="8.969580688057714"><ele>196.0</ele><time>2026-05-03T07:46:33Z</time></trkpt><trkpt lat="39.53983684377177" lon="8.9695689843972"><ele>196.0</ele><time>2026-05-03T07:46:35Z</time></trkpt><trkpt lat="39.53992711691932" lon="8.969565651549718"><ele>196.0</ele><time>2026-05-03T07:46:37Z</time></trkpt><trkpt lat="39.5400228539116" lon="8.969566748709013"><ele>196.0</ele><time>2026-05-03T07:46:39Z</time></trkpt><trkpt lat="39.54012352001305" lon="8.969557634674706"><ele>196.0</ele><time>2026-05-03T07:46:41Z</time></trkpt><trkpt lat="39.540226793901155" lon="8.969528178763806"><ele>196.0</ele><time>2026-05-03T07:46:43Z</time></trkpt><trkpt lat="39.54029892926398" lon="8.969629170953056"><ele>196.0</ele><time>2026-05-03T07:46:45Z</time></trkpt><trkpt lat="39.54021975635334" lon="8.969756057963924"><ele>196.0</ele><time>2026-05-03T07:46:47Z</time></trkpt><trkpt lat="39.54016721206466" lon="8.969900709954093"><ele>196.0</ele><time>2026-05-03T07:46:49Z</time></trkpt><trkpt lat="39.54014449595676" lon="8.96997790641307"><ele>196.0</ele><time>2026-05-03T07:46:50Z</time></trkpt><trkpt lat="39.54012707647962" lon="8.97006057294942"><ele>195.8</ele><time>2026-05-03T07:46:51Z</time></trkpt><trkpt lat="39.54012473462599" lon="8.970142703421253"><ele>195.60000000000002</ele><time>2026-05-03T07:46:52Z</time></trkpt><trkpt lat="39.54017206418175" lon="8.970218449243056"><ele>195.4</ele><time>2026-05-03T07:46:53Z</time></trkpt><trkpt lat="39.54023965074436" lon="8.970330981894639"><ele>195.2</ele><time>2026-05-03T07:46:55Z</time></trkpt><trkpt lat="39.54031707592654" lon="8.970428507207282"><ele>195.0</ele><time>2026-05-03T07:46:57Z</time></trkpt><trkpt lat="39.540389038651206" lon="8.970521911560688"><ele>194.8</ele><time>2026-05-03T07:46:59Z</time></trkpt><trkpt lat="39.54045496595505" lon="8.970612156044556"><ele>194.6</ele><time>2026-05-03T07:47:01Z</time></trkpt><trkpt lat="39.54052398709495" lon="8.970695961012298"><ele>194.39999999999998</ele><time>2026-05-03T07:47:03Z</time></trkpt><trkpt lat="39.54058799968166" lon="8.970777816738188"><ele>194.2</ele><time>2026-05-03T07:47:05Z</time></trkpt><trkpt lat="39.54065807836336" lon="8.970846884238728"><ele>194.0</ele><time>2026-05-03T07:47:07Z</time></trkpt><trkpt lat="39.540731585294495" lon="8.970897230688404"><ele>194.0</ele><time>2026-05-03T07:47:09Z</time></trkpt><trkpt lat="39.54080196617721" lon="8.970941194638373"><ele>194.0</ele><time>2026-05-03T07:47:11Z</time></trkpt><trkpt lat="39.54086521385064" lon="8.970977601368796"><ele>194.0</ele><time>2026-05-03T07:47:13Z</time></trkpt><trkpt lat="39.54092509481125" lon="8.971013067801769"><ele>194.0</ele><time>2026-05-03T07:47:15Z</time></trkpt><trkpt lat="39.54098697164198" lon="8.971048610247099"><ele>194.0</ele><time>2026-05-03T07:47:17Z</time></trkpt><trkpt lat="39.54105059555241" lon="8.971087581608064"><ele>194.0</ele><time>2026-05-03T07:47:19Z</time></trkpt><trkpt lat="39.54112187283973" lon="8.971129298425959"><ele>194.0</ele><time>2026-05-03T07:47:21Z</time></trkpt><trkpt lat="39.5411980903458" lon="8.97117432359444"><ele>194.66666666666669</ele><time>2026-05-03T07:47:23Z</time></trkpt><trkpt lat="39.54127831196454" lon="8.971209631399812"><ele>195.33333333333334</ele><time>2026-05-03T07:47:25Z</time></trkpt><trkpt lat="39.54135217181413" lon="8.971249917594347"><ele>196.0</ele><time>2026-05-03T07:47:27Z</time></trkpt><trkpt lat="39.54142277335849" lon="8.971275128821794"><ele>196.66666666666669</ele><time>2026-05-03T07:47:29Z</time></trkpt><trkpt lat="39.54149451184451" lon="8.971300859779046"><ele>197.33333333333334</ele><time>2026-05-03T07:47:31Z</time></trkpt><trkpt lat="39.54156057466471" lon="8.971321262482174"><ele>198.0</ele><time>2026-05-03T07:47:33Z</time></trkpt><trkpt lat="39.54164938481681" lon="8.97134476563027"><ele>198.0</ele><time>2026-05-03T07:47:36Z</time></trkpt><trkpt lat="39.54172782013873" lon="8.971340215768553"><ele>198.0</ele><time>2026-05-03T07:47:39Z</time></trkpt><trkpt lat="39.541805583536465" lon="8.971346417656402"><ele>198.0</ele><time>2026-05-03T07:47:42Z</time></trkpt><trkpt lat="39.54188241241042" lon="8.971357494633937"><ele>198.0</ele><time>2026-05-03T07:47:45Z</time></trkpt><trkpt lat="39.54196141937171" lon="8.971359132898815"><ele>198.0</ele><time>2026-05-03T07:47:48Z</time></trkpt><trkpt lat="39.54202879992839" lon="8.971362024717392"><ele>198.0</ele><time>2026-05-03T07:47:51Z</time></trkpt><trkpt lat="39.54210912196887" lon="8.971375881276886"><ele>199.14285714285714</ele><time>2026-05-03T07:47:55Z</time></trkpt><trkpt lat="39.54218740551273" lon="8.971373476412126"><ele>200.28571428571428</ele><time>2026-05-03T07:47:59Z</time></trkpt><trkpt lat="39.54225748239058" lon="8.971363563173487"><ele>201.42857142857142</ele><time>2026-05-03T07:48:03Z</time></trkpt><trkpt lat="39.54232410101427" lon="8.971330999485593"><ele>202.57142857142856</ele><time>2026-05-03T07:48:07Z</time></trkpt><trkpt lat="39.54238865946762" lon="8.971294634479166"><ele>203.71428571428572</ele><time>2026-05-03T07:48:11Z</time></trkpt><trkpt lat="39.542450319128484" lon="8.971264068717982"><ele>204.85714285714283</ele><time>2026-05-03T07:48:15Z</time></trkpt><trkpt lat="39.54251274062265" lon="8.971250114821473"><ele>206.0</ele><time>2026-05-03T07:48:19Z</time></trkpt><trkpt lat="39.54257784847502" lon="8.971261750963203"><ele>205.99999999999997</ele><time>2026-05-03T07:48:23Z</time></trkpt><trkpt lat="39.542641605403894" lon="8.971280172317286"><ele>206.0</ele><time>2026-05-03T07:48:27Z</time></trkpt><trkpt lat="39.5427078356856" lon="8.971299450954678"><ele>206.0</ele><time>2026-05-03T07:48:31Z</time></trkpt><trkpt lat="39.542774768008556" lon="8.971312693379788"><ele>206.0</ele><time>2026-05-03T07:48:35Z</time></trkpt><trkpt lat="39.54284301787617" lon="8.971313256461011"><ele>206.0</ele><time>2026-05-03T07:48:39Z</time></trkpt><trkpt lat="39.54292007294136" lon="8.971330052890972"><ele>205.99999999999997</ele><time>2026-05-03T07:48:43Z</time></trkpt><trkpt lat="39.54297123850525" lon="8.97140197513796"><ele>206.0</ele><time>2026-05-03T07:48:47Z</time></trkpt><trkpt lat="39.54300909950329" lon="8.971485538950855"><ele>207.7142857142857</ele><time>2026-05-03T07:48:51Z</time></trkpt><trkpt lat="39.54303083377769" lon="8.971588680866573"><ele>209.42857142857142</ele><time>2026-05-03T07:48:55Z</time></trkpt><trkpt lat="39.543052413228004" lon="8.971685611140716"><ele>211.14285714285714</ele><time>2026-05-03T07:48:58Z</time></trkpt><trkpt lat="39.543069491647714" lon="8.97177753852162"><ele>212.85714285714283</ele><time>2026-05-03T07:49:01Z</time></trkpt><trkpt lat="39.543073685288405" lon="8.971866532615765"><ele>214.57142857142858</ele><time>2026-05-03T07:49:04Z</time></trkpt><trkpt lat="39.54307730115497" lon="8.97195810158251"><ele>216.28571428571428</ele><time>2026-05-03T07:49:07Z</time></trkpt><trkpt lat="39.54306199157142" lon="8.972049503003253"><ele>218.0</ele><time>2026-05-03T07:49:10Z</time></trkpt><trkpt lat="39.54304749920397" lon="8.972144736868001"><ele>218.14285714285714</ele><time>2026-05-03T07:49:13Z</time></trkpt><trkpt lat="39.54303114290205" lon="8.972232928727653"><ele>218.28571428571428</ele><time>2026-05-03T07:49:16Z</time></trkpt><trkpt lat="39.543018539675955" lon="8.97231994341254"><ele>218.42857142857144</ele><time>2026-05-03T07:49:19Z</time></trkpt><trkpt lat="39.543016435503304" lon="8.97240298322789"><ele>218.57142857142856</ele><time>2026-05-03T07:49:22Z</time></trkpt><trkpt lat="39.5429873223356" lon="8.972489127777074"><ele>218.7142857142857</ele><time>2026-05-03T07:49:25Z</time></trkpt><trkpt lat="39.54296358738464" lon="8.972576513751433"><ele>218.85714285714286</ele><time>2026-05-03T07:49:28Z</time></trkpt><trkpt lat="39.54293763899326" lon="8.972676781865308"><ele>219.0</ele><time>2026-05-03T07:49:32Z</time></trkpt><trkpt lat="39.54291004371167" lon="8.972752507262726"><ele>219.14285714285714</ele><time>2026-05-03T07:49:35Z</time></trkpt><trkpt lat="39.542877686525756" lon="8.972824429894462"><ele>219.28571428571428</ele><time>2026-05-03T07:49:38Z</time></trkpt><trkpt lat="39.54283976180608" lon="8.972895392058213"><ele>219.42857142857142</ele><time>2026-05-03T07:49:41Z</time></trkpt><trkpt lat="39.54279992439506" lon="8.972964323415361"><ele>219.57142857142856</ele><time>2026-05-03T07:49:44Z</time></trkpt><trkpt lat="39.54275248911476" lon="8.973032407878618"><ele>219.71428571428572</ele><time>2026-05-03T07:49:47Z</time></trkpt><trkpt lat="39.5426989587996" lon="8.973113087428597"><ele>219.85714285714283</ele><time>2026-05-03T07:49:50Z</time></trkpt><trkpt lat="39.542650473424835" lon="8.97318200970055"><ele>220.0</ele><time>2026-05-03T07:49:53Z</time></trkpt><trkpt lat="39.542606708235375" lon="8.973252841240852"><ele>219.99999999999997</ele><time>2026-05-03T07:49:56Z</time></trkpt><trkpt lat="39.54256549197347" lon="8.973318254032215"><ele>220.0</ele><time>2026-05-03T07:49:59Z</time></trkpt><trkpt lat="39.54250942407298" lon="8.97338720345955"><ele>220.0</ele><time>2026-05-03T07:50:02Z</time></trkpt><trkpt lat="39.542461126206845" lon="8.973463068290677"><ele>220.0</ele><time>2026-05-03T07:50:05Z</time></trkpt><trkpt lat="39.54242301153316" lon="8.97354536000357"><ele>220.0</ele><time>2026-05-03T07:50:08Z</time></trkpt><trkpt lat="39.54238057058286" lon="8.97362007938021"><ele>219.99999999999997</ele><time>2026-05-03T07:50:11Z</time></trkpt><trkpt lat="39.542330575542174" lon="8.973687943584464"><ele>220.0</ele><time>2026-05-03T07:50:14Z</time></trkpt><trkpt lat="39.542277873615355" lon="8.973752772680825"><ele>220.14285714285714</ele><time>2026-05-03T07:50:17Z</time></trkpt><trkpt lat="39.54223663084097" lon="8.973832101195995"><ele>220.28571428571428</ele><time>2026-05-03T07:50:20Z</time></trkpt><trkpt lat="39.54219681916402" lon="8.973913291994911"><ele>220.42857142857144</ele><time>2026-05-03T07:50:23Z</time></trkpt><trkpt lat="39.54215679848931" lon="8.973997311572303"><ele>220.57142857142856</ele><time>2026-05-03T07:50:26Z</time></trkpt><trkpt lat="39.54211869394658" lon="8.974079400342605"><ele>220.71428571428572</ele><time>2026-05-03T07:50:29Z</time></trkpt><trkpt lat="39.54208805404348" lon="8.974166345736334"><ele>220.85714285714286</ele><time>2026-05-03T07:50:32Z</time></trkpt><trkpt lat="39.54205605361811" lon="8.974253262933033"><ele>221.0</ele><time>2026-05-03T07:50:35Z</time></trkpt><trkpt lat="39.542019274353585" lon="8.97433469934263"><ele>221.00000000000003</ele><time>2026-05-03T07:50:38Z</time></trkpt><trkpt lat="39.54198856958874" lon="8.974417470854599"><ele>221.0</ele><time>2026-05-03T07:50:41Z</time></trkpt><trkpt lat="39.5419590257799" lon="8.97450579596302"><ele>221.0</ele><time>2026-05-03T07:50:44Z</time></trkpt><trkpt lat="39.54193633983027" lon="8.974595187235765"><ele>221.0</ele><time>2026-05-03T07:50:47Z</time></trkpt><trkpt lat="39.54191571373951" lon="8.9746855370163"><ele>221.0</ele><time>2026-05-03T07:50:50Z</time></trkpt><trkpt lat="39.54189659604233" lon="8.974776236929042"><ele>221.00000000000003</ele><time>2026-05-03T07:50:53Z</time></trkpt><trkpt lat="39.541877895689815" lon="8.974869546360532"><ele>221.0</ele><time>2026-05-03T07:50:56Z</time></trkpt><trkpt lat="39.54186001906278" lon="8.97496327397451"><ele>222.16666666666669</ele><time>2026-05-03T07:50:59Z</time></trkpt><trkpt lat="39.54184300184982" lon="8.975044197622658"><ele>223.33333333333334</ele><time>2026-05-03T07:51:02Z</time></trkpt><trkpt lat="39.54181606853403" lon="8.975152136561263"><ele>224.5</ele><time>2026-05-03T07:51:06Z</time></trkpt><trkpt lat="39.54178304422228" lon="8.975255718501396"><ele>225.66666666666669</ele><time>2026-05-03T07:51:09Z</time></trkpt><trkpt lat="39.54175417878363" lon="8.975344677528755"><ele>226.83333333333334</ele><time>2026-05-03T07:51:12Z</time></trkpt><trkpt lat="39.541722786308554" lon="8.975427078758461"><ele>228.0</ele><time>2026-05-03T07:51:15Z</time></trkpt><trkpt lat="39.54168725092977" lon="8.975507166385466"><ele>228.0</ele><time>2026-05-03T07:51:18Z</time></trkpt><trkpt lat="39.54165245782392" lon="8.975591025033827"><ele>227.99999999999997</ele><time>2026-05-03T07:51:21Z</time></trkpt><trkpt lat="39.54162081225062" lon="8.975672531719672"><ele>228.0</ele><time>2026-05-03T07:51:24Z</time></trkpt><trkpt lat="39.541592678924914" lon="8.975759328922909"><ele>228.0</ele><time>2026-05-03T07:51:27Z</time></trkpt><trkpt lat="39.54156018401814" lon="8.97584467110507"><ele>227.99999999999997</ele><time>2026-05-03T07:51:30Z</time></trkpt><trkpt lat="39.54152745865234" lon="8.975925650668877"><ele>228.0</ele><time>2026-05-03T07:51:33Z</time></trkpt><trkpt lat="39.54149799817571" lon="8.97602082040828"><ele>228.0</ele><time>2026-05-03T07:51:36Z</time></trkpt><trkpt lat="39.54146640442486" lon="8.976108326024828"><ele>229.7142857142857</ele><time>2026-05-03T07:51:39Z</time></trkpt><trkpt lat="39.54143412187035" lon="8.976189332760276"><ele>231.4285714285714</ele><time>2026-05-03T07:51:42Z</time></trkpt><trkpt lat="39.54140569043597" lon="8.976273483115625"><ele>233.14285714285714</ele><time>2026-05-03T07:51:45Z</time></trkpt><trkpt lat="39.54137481012529" lon="8.976355227339564"><ele>234.85714285714283</ele><time>2026-05-03T07:51:48Z</time></trkpt><trkpt lat="39.541339704769875" lon="8.976430967760066"><ele>236.57142857142856</ele><time>2026-05-03T07:51:51Z</time></trkpt><trkpt lat="39.54131106154521" lon="8.97651499999646"><ele>238.28571428571428</ele><time>2026-05-03T07:51:54Z</time></trkpt><trkpt lat="39.54128083489602" lon="8.976597765724255"><ele>240.0</ele><time>2026-05-03T07:51:57Z</time></trkpt><trkpt lat="39.54124729797491" lon="8.97667717448224"><ele>239.14285714285717</ele><time>2026-05-03T07:52:00Z</time></trkpt><trkpt lat="39.541211145129104" lon="8.976760149620777"><ele>238.28571428571428</ele><time>2026-05-03T07:52:03Z</time></trkpt><trkpt lat="39.541182953711576" lon="8.9768460687546"><ele>237.42857142857144</ele><time>2026-05-03T07:52:06Z</time></trkpt><trkpt lat="39.54115036159313" lon="8.976928388906307"><ele>236.57142857142858</ele><time>2026-05-03T07:52:09Z</time></trkpt><trkpt lat="39.541117440355144" lon="8.977017355285986"><ele>235.71428571428572</ele><time>2026-05-03T07:52:12Z</time></trkpt><trkpt lat="39.54108563484046" lon="8.97710172981676"><ele>234.85714285714286</ele><time>2026-05-03T07:52:15Z</time></trkpt><trkpt lat="39.5410557164387" lon="8.977185721767418"><ele>234.0</ele><time>2026-05-03T07:52:18Z</time></trkpt><trkpt lat="39.5410258346437" lon="8.977267689614083"><ele>234.0</ele><time>2026-05-03T07:52:21Z</time></trkpt><trkpt lat="39.54099125124653" lon="8.977352596621936"><ele>234.0</ele><time>2026-05-03T07:52:24Z</time></trkpt><trkpt lat="39.54095643209628" lon="8.977437726325011"><ele>234.0</ele><time>2026-05-03T07:52:27Z</time></trkpt><trkpt lat="39.54092610216902" lon="8.977521940209908"><ele>234.0</ele><time>2026-05-03T07:52:30Z</time></trkpt><trkpt lat="39.54089122688709" lon="8.97759797766351"><ele>234.0</ele><time>2026-05-03T07:52:33Z</time></trkpt><trkpt lat="39.540848777693974" lon="8.977687094452769"><ele>234.0</ele><time>2026-05-03T07:52:37Z</time></trkpt><trkpt lat="39.540804648251545" lon="8.97777601257864"><ele>235.0</ele><time>2026-05-03T07:52:41Z</time></trkpt><trkpt lat="39.54076564493266" lon="8.977862860642885"><ele>236.00000000000003</ele><time>2026-05-03T07:52:44Z</time></trkpt><trkpt lat="39.540717713199555" lon="8.977936019125211"><ele>237.0</ele><time>2026-05-03T07:52:47Z</time></trkpt><trkpt lat="39.54067796801371" lon="8.97801211146173"><ele>238.0</ele><time>2026-05-03T07:52:50Z</time></trkpt><trkpt lat="39.54064065536751" lon="8.978088236667743"><ele>239.00000000000003</ele><time>2026-05-03T07:52:53Z</time></trkpt><trkpt lat="39.54059185182022" lon="8.97815986783539"><ele>240.0</ele><time>2026-05-03T07:52:56Z</time></trkpt><trkpt lat="39.5405483677605" lon="8.978231336457274"><ele>241.0</ele><time>2026-05-03T07:52:59Z</time></trkpt><trkpt lat="39.54049800811874" lon="8.978297508063694"><ele>242.0</ele><time>2026-05-03T07:53:02Z</time></trkpt><trkpt lat="39.54044598585947" lon="8.978361018871672"><ele>243.00000000000003</ele><time>2026-05-03T07:53:05Z</time></trkpt><trkpt lat="39.54039616532922" lon="8.97843718898351"><ele>244.0</ele><time>2026-05-03T07:53:09Z</time></trkpt><trkpt lat="39.540337073157836" lon="8.978513681133027"><ele>245.0</ele><time>2026-05-03T07:53:13Z</time></trkpt><trkpt lat="39.54028773343895" lon="8.978570500262189"><ele>246.00000000000003</ele><time>2026-05-03T07:53:16Z</time></trkpt><trkpt lat="39.540237750021944" lon="8.978626132112117"><ele>247.0</ele><time>2026-05-03T07:53:18Z</time></trkpt><trkpt lat="39.54017265500015" lon="8.978682909682028"><ele>248.0</ele><time>2026-05-03T07:53:21Z</time></trkpt><trkpt lat="39.54010718725321" lon="8.978746890957842"><ele>248.00000000000003</ele><time>2026-05-03T07:53:25Z</time></trkpt><trkpt lat="39.54004935482853" lon="8.978799953716111"><ele>248.0</ele><time>2026-05-03T07:53:28Z</time></trkpt><trkpt lat="39.53998971674248" lon="8.978860005441037"><ele>248.0</ele><time>2026-05-03T07:53:31Z</time></trkpt><trkpt lat="39.53993403979698" lon="8.978920298507814"><ele>248.0</ele><time>2026-05-03T07:53:33Z</time></trkpt><trkpt lat="39.53985815774139" lon="8.978983518888127"><ele>248.00000000000003</ele><time>2026-05-03T07:53:35Z</time></trkpt><trkpt lat="39.5397943714409" lon="8.979027469599298"><ele>248.0</ele><time>2026-05-03T07:53:37Z</time></trkpt><trkpt lat="39.539729871239786" lon="8.97907673130492"><ele>248.00000000000003</ele><time>2026-05-03T07:53:39Z</time></trkpt><trkpt lat="39.53965843915658" lon="8.979119715008583"><ele>248.0</ele><time>2026-05-03T07:53:41Z</time></trkpt><trkpt lat="39.539584421739235" lon="8.979165691476208"><ele>248.0</ele><time>2026-05-03T07:53:43Z</time></trkpt><trkpt lat="39.53949420566637" lon="8.979210572746185"><ele>248.0</ele><time>2026-05-03T07:53:45Z</time></trkpt><trkpt lat="39.5394027668615" lon="8.979245103947378"><ele>248.00000000000003</ele><time>2026-05-03T07:53:47Z</time></trkpt><trkpt lat="39.53931093732805" lon="8.979281307715766"><ele>248.0</ele><time>2026-05-03T07:53:49Z</time></trkpt><trkpt lat="39.53922182720748" lon="8.979319111278892"><ele>247.8</ele><time>2026-05-03T07:53:51Z</time></trkpt><trkpt lat="39.53913296129427" lon="8.979354276949566"><ele>247.60000000000002</ele><time>2026-05-03T07:53:53Z</time></trkpt><trkpt lat="39.5390503213598" lon="8.979386717002997"><ele>247.39999999999998</ele><time>2026-05-03T07:53:55Z</time></trkpt><trkpt lat="39.53896210899636" lon="8.979420947229706"><ele>247.2</ele><time>2026-05-03T07:53:57Z</time></trkpt><trkpt lat="39.538872447136306" lon="8.97945650256095"><ele>247.0</ele><time>2026-05-03T07:53:59Z</time></trkpt><trkpt lat="39.5387807373683" lon="8.979494611483481"><ele>247.2</ele><time>2026-05-03T07:54:01Z</time></trkpt><trkpt lat="39.53868979097831" lon="8.979524593814487"><ele>247.39999999999998</ele><time>2026-05-03T07:54:03Z</time></trkpt><trkpt lat="39.53859990293523" lon="8.979546520864819"><ele>247.60000000000002</ele><time>2026-05-03T07:54:05Z</time></trkpt><trkpt lat="39.53850553933348" lon="8.979544841084975"><ele>247.8</ele><time>2026-05-03T07:54:07Z</time></trkpt><trkpt lat="39.538413905122816" lon="8.97954061582706"><ele>248.0</ele><time>2026-05-03T07:54:09Z</time></trkpt><trkpt lat="39.538326573686206" lon="8.979506976685272"><ele>248.0</ele><time>2026-05-03T07:54:11Z</time></trkpt><trkpt lat="39.53823830620746" lon="8.979456495686529"><ele>248.0</ele><time>2026-05-03T07:54:13Z</time></trkpt><trkpt lat="39.53814658178516" lon="8.979404985623708"><ele>248.0</ele><time>2026-05-03T07:54:15Z</time></trkpt><trkpt lat="39.538060704230816" lon="8.979361094444435"><ele>248.0</ele><time>2026-05-03T07:54:17Z</time></trkpt><trkpt lat="39.53796962010961" lon="8.979321830765716"><ele>248.0</ele><time>2026-05-03T07:54:19Z</time></trkpt><trkpt lat="39.537873460450385" lon="8.97928115330125"><ele>249.4</ele><time>2026-05-03T07:54:21Z</time></trkpt><trkpt lat="39.537776095447526" lon="8.979251971843247"><ele>250.8</ele><time>2026-05-03T07:54:23Z</time></trkpt><trkpt lat="39.537681048830734" lon="8.979221473865392"><ele>252.2</ele><time>2026-05-03T07:54:25Z</time></trkpt><trkpt lat="39.53757619436838" lon="8.979209474750819"><ele>253.6</ele><time>2026-05-03T07:54:27Z</time></trkpt><trkpt lat="39.53746826205875" lon="8.979196632925396"><ele>255.0</ele><time>2026-05-03T07:54:29Z</time></trkpt><trkpt lat="39.537348304740625" lon="8.979196760017253"><ele>255.0</ele><time>2026-05-03T07:54:31Z</time></trkpt><trkpt lat="39.537282275290735" lon="8.979192945820198"><ele>255.00000000000003</ele><time>2026-05-03T07:54:32Z</time></trkpt><trkpt lat="39.53721553795346" lon="8.979189762396368"><ele>255.0</ele><time>2026-05-03T07:54:33Z</time></trkpt><trkpt lat="39.53714311459998" lon="8.979187251501477"><ele>255.0</ele><time>2026-05-03T07:54:34Z</time></trkpt><trkpt lat="39.53706868639733" lon="8.979186451187482"><ele>255.00000000000003</ele><time>2026-05-03T07:54:35Z</time></trkpt><trkpt lat="39.53699016902649" lon="8.979187323620193"><ele>255.0</ele><time>2026-05-03T07:54:36Z</time></trkpt><trkpt lat="39.536908597523734" lon="8.97918790826452"><ele>255.0</ele><time>2026-05-03T07:54:37Z</time></trkpt><trkpt lat="39.536825817665886" lon="8.979172876648152"><ele>250.6</ele><time>2026-05-03T07:54:38Z</time></trkpt><trkpt lat="39.53674251585404" lon="8.979154832871309"><ele>246.2</ele><time>2026-05-03T07:54:39Z</time></trkpt><trkpt lat="39.53665604626681" lon="8.979138951065298"><ele>241.8</ele><time>2026-05-03T07:54:40Z</time></trkpt><trkpt lat="39.53656363288367" lon="8.979125090456577"><ele>237.4</ele><time>2026-05-03T07:54:41Z</time></trkpt><trkpt lat="39.53647350297478" lon="8.979105985101217"><ele>233.0</ele><time>2026-05-03T07:54:42Z</time></trkpt><trkpt lat="39.53638035553259" lon="8.979082564036275"><ele>233.0</ele><time>2026-05-03T07:54:43Z</time></trkpt><trkpt lat="39.53628728708705" lon="8.979054710922371"><ele>233.0</ele><time>2026-05-03T07:54:44Z</time></trkpt><trkpt lat="39.53619107321887" lon="8.979026227524114"><ele>233.0</ele><time>2026-05-03T07:54:45Z</time></trkpt><trkpt lat="39.536090838655184" lon="8.978993189115187"><ele>233.0</ele><time>2026-05-03T07:54:46Z</time></trkpt><trkpt lat="39.53599264217582" lon="8.978943998483315"><ele>233.0</ele><time>2026-05-03T07:54:47Z</time></trkpt><trkpt lat="39.535900744899216" lon="8.97886899896858"><ele>231.2</ele><time>2026-05-03T07:54:48Z</time></trkpt><trkpt lat="39.53581616788174" lon="8.978779805398096"><ele>229.4</ele><time>2026-05-03T07:54:49Z</time></trkpt><trkpt lat="39.535730133212496" lon="8.978695103209136"><ele>227.59999999999997</ele><time>2026-05-03T07:54:50Z</time></trkpt><trkpt lat="39.535643393533334" lon="8.978625559983097"><ele>225.79999999999998</ele><time>2026-05-03T07:54:51Z</time></trkpt><trkpt lat="39.53555403514633" lon="8.978560887856705"><ele>224.0</ele><time>2026-05-03T07:54:52Z</time></trkpt><trkpt lat="39.535461390533555" lon="8.978507826192255"><ele>222.6</ele><time>2026-05-03T07:54:53Z</time></trkpt><trkpt lat="39.53536774070787" lon="8.978471455850825"><ele>221.2</ele><time>2026-05-03T07:54:54Z</time></trkpt><trkpt lat="39.53527179890888" lon="8.978445608192377"><ele>219.79999999999998</ele><time>2026-05-03T07:54:55Z</time></trkpt><trkpt lat="39.535176092979015" lon="8.97843355804469"><ele>218.39999999999998</ele><time>2026-05-03T07:54:56Z</time></trkpt><trkpt lat="39.53508413618099" lon="8.978451254022733"><ele>217.0</ele><time>2026-05-03T07:54:57Z</time></trkpt><trkpt lat="39.53500148735759" lon="8.978492322813844"><ele>216.99999999999997</ele><time>2026-05-03T07:54:58Z</time></trkpt><trkpt lat="39.53492907280626" lon="8.978542824152166"><ele>217.0</ele><time>2026-05-03T07:54:59Z</time></trkpt><trkpt lat="39.534864502748" lon="8.97859785654234"><ele>217.0</ele><time>2026-05-03T07:55:00Z</time></trkpt><trkpt lat="39.53480855457975" lon="8.978656158322352"><ele>217.0</ele><time>2026-05-03T07:55:01Z</time></trkpt><trkpt lat="39.5347536913476" lon="8.978705621804302"><ele>216.99999999999997</ele><time>2026-05-03T07:55:02Z</time></trkpt><trkpt lat="39.534659945907684" lon="8.978807732030987"><ele>217.0</ele><time>2026-05-03T07:55:04Z</time></trkpt><trkpt lat="39.534579284153025" lon="8.978915610226814"><ele>217.5</ele><time>2026-05-03T07:55:06Z</time></trkpt><trkpt lat="39.534505463381606" lon="8.97902454932157"><ele>218.0</ele><time>2026-05-03T07:55:08Z</time></trkpt><trkpt lat="39.53442829350539" lon="8.979127877679131"><ele>218.5</ele><time>2026-05-03T07:55:10Z</time></trkpt><trkpt lat="39.53434739673029" lon="8.97922940890338"><ele>219.0</ele><time>2026-05-03T07:55:12Z</time></trkpt><trkpt lat="39.534266884332496" lon="8.979334779634225"><ele>219.0</ele><time>2026-05-03T07:55:14Z</time></trkpt><trkpt lat="39.53418328614071" lon="8.979434880995196"><ele>218.99999999999997</ele><time>2026-05-03T07:55:16Z</time></trkpt><trkpt lat="39.53409821456049" lon="8.97953495505479"><ele>218.99999999999997</ele><time>2026-05-03T07:55:18Z</time></trkpt><trkpt lat="39.53401649482254" lon="8.979625780409389"><ele>219.0</ele><time>2026-05-03T07:55:20Z</time></trkpt><trkpt lat="39.53393945407728" lon="8.979729487399648"><ele>219.0</ele><time>2026-05-03T07:55:22Z</time></trkpt><trkpt lat="39.533855776145856" lon="8.979824058760167"><ele>219.0</ele><time>2026-05-03T07:55:24Z</time></trkpt><trkpt lat="39.53377363820673" lon="8.97992281723635"><ele>219.0</ele><time>2026-05-03T07:55:26Z</time></trkpt><trkpt lat="39.533687720112844" lon="8.980020436086619"><ele>219.0</ele><time>2026-05-03T07:55:28Z</time></trkpt><trkpt lat="39.53359973987357" lon="8.980119310378747"><ele>219.0</ele><time>2026-05-03T07:55:30Z</time></trkpt><trkpt lat="39.533516901875444" lon="8.98022659966585"><ele>217.0</ele><time>2026-05-03T07:55:32Z</time></trkpt><trkpt lat="39.533429310795775" lon="8.98033184830294"><ele>215.0</ele><time>2026-05-03T07:55:34Z</time></trkpt><trkpt lat="39.53334085923296" lon="8.980435500802734"><ele>213.0</ele><time>2026-05-03T07:55:36Z</time></trkpt><trkpt lat="39.53325243188833" lon="8.98054072878898"><ele>211.0</ele><time>2026-05-03T07:55:38Z</time></trkpt><trkpt lat="39.53316934280593" lon="8.980654265095692"><ele>210.99999999999997</ele><time>2026-05-03T07:55:40Z</time></trkpt><trkpt lat="39.533087231948755" lon="8.980766618394364"><ele>211.0</ele><time>2026-05-03T07:55:42Z</time></trkpt><trkpt lat="39.53300866422646" lon="8.980882543186896"><ele>211.0</ele><time>2026-05-03T07:55:44Z</time></trkpt><trkpt lat="39.53296736856637" lon="8.980946411323115"><ele>211.0</ele><time>2026-05-03T07:55:45Z</time></trkpt><trkpt lat="39.53292584546782" lon="8.981010968622176"><ele>210.99999999999997</ele><time>2026-05-03T07:55:46Z</time></trkpt><trkpt lat="39.53288403179022" lon="8.981077129218402"><ele>211.0</ele><time>2026-05-03T07:55:47Z</time></trkpt><trkpt lat="39.53284226318217" lon="8.981144728943637"><ele>209.57142857142858</ele><time>2026-05-03T07:55:48Z</time></trkpt><trkpt lat="39.53280043780462" lon="8.981214324840685"><ele>208.14285714285717</ele><time>2026-05-03T07:55:49Z</time></trkpt><trkpt lat="39.53275683999305" lon="8.981283438433064"><ele>206.71428571428572</ele><time>2026-05-03T07:55:50Z</time></trkpt><trkpt lat="39.53271167271545" lon="8.981349816121027"><ele>205.28571428571428</ele><time>2026-05-03T07:55:51Z</time></trkpt><trkpt lat="39.53266890633348" lon="8.98141621922016"><ele>203.85714285714286</ele><time>2026-05-03T07:55:52Z</time></trkpt><trkpt lat="39.53262485179314" lon="8.981482783931787"><ele>202.42857142857142</ele><time>2026-05-03T07:55:53Z</time></trkpt><trkpt lat="39.53258097819902" lon="8.981547742422126"><ele>201.0</ele><time>2026-05-03T07:55:54Z</time></trkpt><trkpt lat="39.53253705710191" lon="8.981610293302365"><ele>201.0</ele><time>2026-05-03T07:55:55Z</time></trkpt><trkpt lat="39.53249209373071" lon="8.981673978002"><ele>201.0</ele><time>2026-05-03T07:55:56Z</time></trkpt><trkpt lat="39.532447594313794" lon="8.981733153183466"><ele>201.0</ele><time>2026-05-03T07:55:57Z</time></trkpt><trkpt lat="39.53236548618114" lon="8.981849249688613"><ele>201.0</ele><time>2026-05-03T07:55:59Z</time></trkpt><trkpt lat="39.53229298101051" lon="8.981959314026971"><ele>201.0</ele><time>2026-05-03T07:56:01Z</time></trkpt><trkpt lat="39.53222252974847" lon="8.982054295722714"><ele>202.33333333333334</ele><time>2026-05-03T07:56:03Z</time></trkpt><trkpt lat="39.53215549543516" lon="8.982141190004251"><ele>203.66666666666669</ele><time>2026-05-03T07:56:05Z</time></trkpt><trkpt lat="39.532091875633455" lon="8.982227041179751"><ele>205.0</ele><time>2026-05-03T07:56:07Z</time></trkpt><trkpt lat="39.53203409151289" lon="8.982314431437665"><ele>206.33333333333334</ele><time>2026-05-03T07:56:09Z</time></trkpt><trkpt lat="39.53198092010183" lon="8.982397542768755"><ele>207.66666666666669</ele><time>2026-05-03T07:56:11Z</time></trkpt><trkpt lat="39.531936237090235" lon="8.982478644285338"><ele>209.0</ele><time>2026-05-03T07:56:13Z</time></trkpt><trkpt lat="39.53190425974906" lon="8.982568909920076"><ele>210.83333333333334</ele><time>2026-05-03T07:56:15Z</time></trkpt><trkpt lat="39.53186095214665" lon="8.982651972447195"><ele>212.66666666666669</ele><time>2026-05-03T07:56:17Z</time></trkpt><trkpt lat="39.53179627025849" lon="8.982711591392524"><ele>214.5</ele><time>2026-05-03T07:56:19Z</time></trkpt><trkpt lat="39.531724166048505" lon="8.982732308797942"><ele>216.33333333333331</ele><time>2026-05-03T07:56:21Z</time></trkpt><trkpt lat="39.53164825704225" lon="8.982728549406689"><ele>218.16666666666666</ele><time>2026-05-03T07:56:23Z</time></trkpt><trkpt lat="39.53157831262677" lon="8.982699789012417"><ele>220.0</ele><time>2026-05-03T07:56:25Z</time></trkpt><trkpt lat="39.53151720881665" lon="8.982636739137952"><ele>219.99999999999997</ele><time>2026-05-03T07:56:27Z</time></trkpt><trkpt lat="39.531465823773914" lon="8.982557937152349"><ele>220.0</ele><time>2026-05-03T07:56:29Z</time></trkpt><trkpt lat="39.53142575453521" lon="8.982471360923876"><ele>220.0</ele><time>2026-05-03T07:56:31Z</time></trkpt><trkpt lat="39.53138316072157" lon="8.982379791503913"><ele>220.0</ele><time>2026-05-03T07:56:33Z</time></trkpt><trkpt lat="39.53133855260068" lon="8.982288945644148"><ele>219.99999999999997</ele><time>2026-05-03T07:56:35Z</time></trkpt><trkpt lat="39.53129029235041" lon="8.982203172045063"><ele>220.0</ele><time>2026-05-03T07:56:37Z</time></trkpt><trkpt lat="39.53123277492332" lon="8.98212237865163"><ele>218.99999999999997</ele><time>2026-05-03T07:56:39Z</time></trkpt><trkpt lat="39.53117356945675" lon="8.98205560766607"><ele>218.0</ele><time>2026-05-03T07:56:41Z</time></trkpt><trkpt lat="39.53110993930141" lon="8.981994470108086"><ele>217.0</ele><time>2026-05-03T07:56:43Z</time></trkpt><trkpt lat="39.53104316815601" lon="8.981937978995983"><ele>216.0</ele><time>2026-05-03T07:56:45Z</time></trkpt><trkpt lat="39.530983540457655" lon="8.981877808311197"><ele>214.99999999999997</ele><time>2026-05-03T07:56:47Z</time></trkpt><trkpt lat="39.53095592751244" lon="8.981778812966013"><ele>214.0</ele><time>2026-05-03T07:56:49Z</time></trkpt><trkpt lat="39.53097542985836" lon="8.98167308671028"><ele>213.99999999999997</ele><time>2026-05-03T07:56:51Z</time></trkpt><trkpt lat="39.53100702524649" lon="8.98157851626558"><ele>214.0</ele><time>2026-05-03T07:56:53Z</time></trkpt><trkpt lat="39.53104120909454" lon="8.98148342528628"><ele>214.0</ele><time>2026-05-03T07:56:55Z</time></trkpt><trkpt lat="39.53106165857303" lon="8.981378469909654"><ele>214.0</ele><time>2026-05-03T07:56:57Z</time></trkpt><trkpt lat="39.531061639740834" lon="8.981267801484544"><ele>213.99999999999997</ele><time>2026-05-03T07:56:59Z</time></trkpt><trkpt lat="39.53103310880588" lon="8.98116153579273"><ele>214.0</ele><time>2026-05-03T07:57:01Z</time></trkpt><trkpt lat="39.530987078491414" lon="8.981069536888064"><ele>213.99999999999997</ele><time>2026-05-03T07:57:03Z</time></trkpt><trkpt lat="39.53092465181543" lon="8.981004148164631"><ele>214.0</ele><time>2026-05-03T07:57:05Z</time></trkpt><trkpt lat="39.53085725382064" lon="8.98094561023388"><ele>214.0</ele><time>2026-05-03T07:57:07Z</time></trkpt><trkpt lat="39.53078855908237" lon="8.980894168505962"><ele>214.0</ele><time>2026-05-03T07:57:09Z</time></trkpt><trkpt lat="39.53071681724364" lon="8.980846080405973"><ele>213.99999999999997</ele><time>2026-05-03T07:57:11Z</time></trkpt><trkpt lat="39.53063861601768" lon="8.98081330450089"><ele>214.0</ele><time>2026-05-03T07:57:13Z</time></trkpt><trkpt lat="39.530558482139234" lon="8.98078673559848"><ele>215.16666666666666</ele><time>2026-05-03T07:57:15Z</time></trkpt><trkpt lat="39.53047659031242" lon="8.980759985399589"><ele>216.33333333333331</ele><time>2026-05-03T07:57:17Z</time></trkpt><trkpt lat="39.5303923810637" lon="8.980747336151156"><ele>217.5</ele><time>2026-05-03T07:57:19Z</time></trkpt><trkpt lat="39.530311667533084" lon="8.98072922008902"><ele>218.66666666666669</ele><time>2026-05-03T07:57:21Z</time></trkpt><trkpt lat="39.53023465577863" lon="8.980708509413065"><ele>219.83333333333334</ele><time>2026-05-03T07:57:23Z</time></trkpt><trkpt lat="39.53015858480608" lon="8.980676422608934"><ele>221.0</ele><time>2026-05-03T07:57:25Z</time></trkpt><trkpt lat="39.530091847515166" lon="8.980619430399457"><ele>221.00000000000003</ele><time>2026-05-03T07:57:27Z</time></trkpt><trkpt lat="39.530027170471286" lon="8.980559954150317"><ele>221.0</ele><time>2026-05-03T07:57:29Z</time></trkpt><trkpt lat="39.52996650700913" lon="8.980491406760622"><ele>221.0</ele><time>2026-05-03T07:57:31Z</time></trkpt><trkpt lat="39.529903488524965" lon="8.980418980342463"><ele>221.0</ele><time>2026-05-03T07:57:33Z</time></trkpt><trkpt lat="39.529849461784636" lon="8.980347336996413"><ele>221.00000000000003</ele><time>2026-05-03T07:57:35Z</time></trkpt><trkpt lat="39.529792504438426" lon="8.980285702366896"><ele>221.0</ele><time>2026-05-03T07:57:37Z</time></trkpt><trkpt lat="39.529725652213074" lon="8.980221425698637"><ele>221.00000000000003</ele><time>2026-05-03T07:57:39Z</time></trkpt><trkpt lat="39.529657648133245" lon="8.980160364526588"><ele>221.0</ele><time>2026-05-03T07:57:41Z</time></trkpt><trkpt lat="39.529588375747224" lon="8.98010644872623"><ele>221.0</ele><time>2026-05-03T07:57:43Z</time></trkpt><trkpt lat="39.52951456110236" lon="8.980052241588751"><ele>221.0</ele><time>2026-05-03T07:57:45Z</time></trkpt><trkpt lat="39.52943830189523" lon="8.979998533412672"><ele>221.00000000000003</ele><time>2026-05-03T07:57:47Z</time></trkpt><trkpt lat="39.529362965011465" lon="8.979941497449635"><ele>221.0</ele><time>2026-05-03T07:57:49Z</time></trkpt><trkpt lat="39.52929120718066" lon="8.979878940452622"><ele>220.16666666666669</ele><time>2026-05-03T07:57:51Z</time></trkpt><trkpt lat="39.52922350923979" lon="8.979812296870445"><ele>219.33333333333334</ele><time>2026-05-03T07:57:53Z</time></trkpt><trkpt lat="39.529165944924806" lon="8.979735174346478"><ele>218.5</ele><time>2026-05-03T07:57:55Z</time></trkpt><trkpt lat="39.52910750805614" lon="8.979648150262493"><ele>217.66666666666669</ele><time>2026-05-03T07:57:57Z</time></trkpt><trkpt lat="39.529056359458785" lon="8.979552022325759"><ele>216.83333333333334</ele><time>2026-05-03T07:57:59Z</time></trkpt><trkpt lat="39.52901133755211" lon="8.979464735085054"><ele>216.0</ele><time>2026-05-03T07:58:01Z</time></trkpt><trkpt lat="39.528971734056" lon="8.979369414230828"><ele>216.0</ele><time>2026-05-03T07:58:03Z</time></trkpt><trkpt lat="39.52892347375002" lon="8.979273045188618"><ele>216.0</ele><time>2026-05-03T07:58:05Z</time></trkpt><trkpt lat="39.52887961652394" lon="8.979170058194047"><ele>216.0</ele><time>2026-05-03T07:58:07Z</time></trkpt><trkpt lat="39.52883343300015" lon="8.979081680476906"><ele>216.0</ele><time>2026-05-03T07:58:09Z</time></trkpt><trkpt lat="39.5287854603179" lon="8.978997507333142"><ele>216.0</ele><time>2026-05-03T07:58:11Z</time></trkpt><trkpt lat="39.52872338922236" lon="8.97892255805849"><ele>216.0</ele><time>2026-05-03T07:58:13Z</time></trkpt><trkpt lat="39.52865359264648" lon="8.97886164162614"><ele>217.16666666666666</ele><time>2026-05-03T07:58:15Z</time></trkpt><trkpt lat="39.528582343278586" lon="8.978799148413733"><ele>218.33333333333331</ele><time>2026-05-03T07:58:17Z</time></trkpt><trkpt lat="39.528509376219354" lon="8.978736000852384"><ele>219.5</ele><time>2026-05-03T07:58:19Z</time></trkpt><trkpt lat="39.52843360459347" lon="8.978673128572806"><ele>220.66666666666666</ele><time>2026-05-03T07:58:21Z</time></trkpt><trkpt lat="39.52836310532736" lon="8.978614675234995"><ele>221.83333333333331</ele><time>2026-05-03T07:58:23Z</time></trkpt><trkpt lat="39.528296621901795" lon="8.978573152434652"><ele>223.0</ele><time>2026-05-03T07:58:25Z</time></trkpt><trkpt lat="39.52823195409636" lon="8.978540744878396"><ele>222.99999999999997</ele><time>2026-05-03T07:58:27Z</time></trkpt><trkpt lat="39.528156310803425" lon="8.978498556450106"><ele>223.0</ele><time>2026-05-03T07:58:29Z</time></trkpt><trkpt lat="39.528076811528116" lon="8.9784605366349"><ele>223.0</ele><time>2026-05-03T07:58:31Z</time></trkpt><trkpt lat="39.52799694441138" lon="8.9784166942822"><ele>223.0</ele><time>2026-05-03T07:58:33Z</time></trkpt><trkpt lat="39.52791275473498" lon="8.978373739722628"><ele>222.99999999999997</ele><time>2026-05-03T07:58:35Z</time></trkpt><trkpt lat="39.52783127562236" lon="8.978326025600087"><ele>223.0</ele><time>2026-05-03T07:58:37Z</time></trkpt><trkpt lat="39.52775163319623" lon="8.978288031267889"><ele>220.99999999999997</ele><time>2026-05-03T07:58:39Z</time></trkpt><trkpt lat="39.527674607984764" lon="8.978260839161011"><ele>219.0</ele><time>2026-05-03T07:58:41Z</time></trkpt><trkpt lat="39.52758924976935" lon="8.978240796649397"><ele>217.0</ele><time>2026-05-03T07:58:43Z</time></trkpt><trkpt lat="39.52750923275231" lon="8.978211594076528"><ele>215.0</ele><time>2026-05-03T07:58:45Z</time></trkpt><trkpt lat="39.52742916137663" lon="8.978176533001136"><ele>212.99999999999997</ele><time>2026-05-03T07:58:47Z</time></trkpt><trkpt lat="39.52734686336935" lon="8.978132474431616"><ele>211.0</ele><time>2026-05-03T07:58:49Z</time></trkpt><trkpt lat="39.527262167922835" lon="8.978075820768487"><ele>210.99999999999997</ele><time>2026-05-03T07:58:51Z</time></trkpt><trkpt lat="39.527190723149864" lon="8.978005372946024"><ele>211.0</ele><time>2026-05-03T07:58:53Z</time></trkpt><trkpt lat="39.527128826347614" lon="8.977920609030823"><ele>211.0</ele><time>2026-05-03T07:58:55Z</time></trkpt><trkpt lat="39.52708081044085" lon="8.977821363518082"><ele>211.0</ele><time>2026-05-03T07:58:57Z</time></trkpt><trkpt lat="39.527050864049734" lon="8.977723379208827"><ele>210.99999999999997</ele><time>2026-05-03T07:58:59Z</time></trkpt><trkpt lat="39.52701466149443" lon="8.977622730178872"><ele>211.0</ele><time>2026-05-03T07:59:01Z</time></trkpt><trkpt lat="39.52697263304255" lon="8.977517991239306"><ele>212.60000000000002</ele><time>2026-05-03T07:59:03Z</time></trkpt><trkpt lat="39.52693122184627" lon="8.977417666768641"><ele>214.2</ele><time>2026-05-03T07:59:05Z</time></trkpt><trkpt lat="39.526885116306445" lon="8.977315644123845"><ele>215.79999999999998</ele><time>2026-05-03T07:59:07Z</time></trkpt><trkpt lat="39.52683660860375" lon="8.977217390239465"><ele>217.39999999999998</ele><time>2026-05-03T07:59:09Z</time></trkpt><trkpt lat="39.526781445486144" lon="8.977118345598699"><ele>219.0</ele><time>2026-05-03T07:59:11Z</time></trkpt><trkpt lat="39.5267218204619" lon="8.977026631246193"><ele>219.0</ele><time>2026-05-03T07:59:13Z</time></trkpt><trkpt lat="39.52666184751235" lon="8.976938128758503"><ele>218.99999999999997</ele><time>2026-05-03T07:59:15Z</time></trkpt><trkpt lat="39.52659086291307" lon="8.976858605746358"><ele>218.99999999999997</ele><time>2026-05-03T07:59:17Z</time></trkpt><trkpt lat="39.52651534405148" lon="8.976792332163187"><ele>219.0</ele><time>2026-05-03T07:59:19Z</time></trkpt><trkpt lat="39.52643420532674" lon="8.976736169355691"><ele>219.0</ele><time>2026-05-03T07:59:21Z</time></trkpt><trkpt lat="39.52634811215974" lon="8.976691247317802"><ele>217.16666666666666</ele><time>2026-05-03T07:59:23Z</time></trkpt><trkpt lat="39.526263785867265" lon="8.976648860227744"><ele>215.33333333333331</ele><time>2026-05-03T07:59:25Z</time></trkpt><trkpt lat="39.526182367972424" lon="8.97659877396641"><ele>213.5</ele><time>2026-05-03T07:59:27Z</time></trkpt><trkpt lat="39.5261041649358" lon="8.976556283391199"><ele>211.66666666666666</ele><time>2026-05-03T07:59:29Z</time></trkpt><trkpt lat="39.526019334694915" lon="8.97656743718355"><ele>209.83333333333331</ele><time>2026-05-03T07:59:31Z</time></trkpt><trkpt lat="39.5259406344251" lon="8.976609174614424"><ele>208.0</ele><time>2026-05-03T07:59:33Z</time></trkpt><trkpt lat="39.52587006882669" lon="8.976672520312341"><ele>209.83333333333331</ele><time>2026-05-03T07:59:35Z</time></trkpt><trkpt lat="39.525806021232086" lon="8.976747785448039"><ele>211.66666666666666</ele><time>2026-05-03T07:59:37Z</time></trkpt><trkpt lat="39.525742200207524" lon="8.976829587753246"><ele>213.5</ele><time>2026-05-03T07:59:39Z</time></trkpt><trkpt lat="39.52567511040602" lon="8.976903784127803"><ele>215.33333333333331</ele><time>2026-05-03T07:59:41Z</time></trkpt><trkpt lat="39.52561732449523" lon="8.976984430898451"><ele>217.16666666666666</ele><time>2026-05-03T07:59:43Z</time></trkpt><trkpt lat="39.525562644082335" lon="8.977070616871307"><ele>219.0</ele><time>2026-05-03T07:59:45Z</time></trkpt><trkpt lat="39.52551550665528" lon="8.977164899916659"><ele>219.0</ele><time>2026-05-03T07:59:47Z</time></trkpt><trkpt lat="39.525470107937494" lon="8.977262926066794"><ele>218.99999999999997</ele><time>2026-05-03T07:59:49Z</time></trkpt><trkpt lat="39.525429123525775" lon="8.977364834927613"><ele>218.99999999999997</ele><time>2026-05-03T07:59:51Z</time></trkpt><trkpt lat="39.525388730901234" lon="8.977473969395957"><ele>219.0</ele><time>2026-05-03T07:59:53Z</time></trkpt><trkpt lat="39.5253510827477" lon="8.977581272184162"><ele>219.0</ele><time>2026-05-03T07:59:55Z</time></trkpt><trkpt lat="39.525308268229374" lon="8.977688134212839"><ele>216.16666666666666</ele><time>2026-05-03T07:59:57Z</time></trkpt><trkpt lat="39.52528358269463" lon="8.977799216966925"><ele>213.33333333333331</ele><time>2026-05-03T07:59:59Z</time></trkpt><trkpt lat="39.52525008885078" lon="8.977911079674138"><ele>210.5</ele><time>2026-05-03T08:00:01Z</time></trkpt><trkpt lat="39.52520964142948" lon="8.978022147446394"><ele>207.66666666666666</ele><time>2026-05-03T08:00:03Z</time></trkpt><trkpt lat="39.525175110063564" lon="8.9781276322635"><ele>204.83333333333331</ele><time>2026-05-03T08:00:05Z</time></trkpt><trkpt lat="39.52514296417042" lon="8.978224089184224"><ele>202.0</ele><time>2026-05-03T08:00:07Z</time></trkpt><trkpt lat="39.52509066704843" lon="8.97828923440831"><ele>202.0</ele><time>2026-05-03T08:00:09Z</time></trkpt><trkpt lat="39.525020209603305" lon="8.978262537555025"><ele>202.0</ele><time>2026-05-03T08:00:11Z</time></trkpt><trkpt lat="39.524975078700784" lon="8.97815892833762"><ele>202.0</ele><time>2026-05-03T08:00:13Z</time></trkpt><trkpt lat="39.524954884520255" lon="8.978034815101406"><ele>202.0</ele><time>2026-05-03T08:00:15Z</time></trkpt><trkpt lat="39.524947088645256" lon="8.977896049840737"><ele>202.0</ele><time>2026-05-03T08:00:17Z</time></trkpt><trkpt lat="39.52496917999146" lon="8.977737952547526"><ele>202.0</ele><time>2026-05-03T08:00:19Z</time></trkpt><trkpt lat="39.52498855902894" lon="8.977655973553272"><ele>202.0</ele><time>2026-05-03T08:00:20Z</time></trkpt><trkpt lat="39.5250277701563" lon="8.977582843022041"><ele>202.0</ele><time>2026-05-03T08:00:21Z</time></trkpt><trkpt lat="39.52505660047412" lon="8.977500210442177"><ele>202.0</ele><time>2026-05-03T08:00:22Z</time></trkpt><trkpt lat="39.525078110281854" lon="8.97741582442031"><ele>202.0</ele><time>2026-05-03T08:00:23Z</time></trkpt><trkpt lat="39.52511565877675" lon="8.977333486787836"><ele>202.0</ele><time>2026-05-03T08:00:24Z</time></trkpt><trkpt lat="39.52514371141448" lon="8.977244340072684"><ele>202.0</ele><time>2026-05-03T08:00:25Z</time></trkpt><trkpt lat="39.52516471037479" lon="8.977146930872374"><ele>201.49999999999997</ele><time>2026-05-03T08:00:26Z</time></trkpt><trkpt lat="39.52519199880678" lon="8.97705042165213"><ele>201.0</ele><time>2026-05-03T08:00:27Z</time></trkpt><trkpt lat="39.525182686682115" lon="8.976938205175236"><ele>200.5</ele><time>2026-05-03T08:00:28Z</time></trkpt><trkpt lat="39.52515967775544" lon="8.976828845047434"><ele>200.0</ele><time>2026-05-03T08:00:29Z</time></trkpt><trkpt lat="39.52512611867028" lon="8.976726127742607"><ele>199.49999999999997</ele><time>2026-05-03T08:00:30Z</time></trkpt><trkpt lat="39.525072658288565" lon="8.976633538637"><ele>199.0</ele><time>2026-05-03T08:00:31Z</time></trkpt><trkpt lat="39.52499279750863" lon="8.976569926093918"><ele>198.49999999999997</ele><time>2026-05-03T08:00:32Z</time></trkpt><trkpt lat="39.524912992188966" lon="8.976523872586867"><ele>198.0</ele><time>2026-05-03T08:00:33Z</time></trkpt><trkpt lat="39.524829486926095" lon="8.976500955171405"><ele>197.5</ele><time>2026-05-03T08:00:34Z</time></trkpt><trkpt lat="39.52474655961095" lon="8.976494645071764"><ele>197.0</ele><time>2026-05-03T08:00:35Z</time></trkpt><trkpt lat="39.52466679295317" lon="8.976493838633155"><ele>196.49999999999997</ele><time>2026-05-03T08:00:36Z</time></trkpt><trkpt lat="39.524588496472944" lon="8.976496101449166"><ele>196.0</ele><time>2026-05-03T08:00:37Z</time></trkpt><trkpt lat="39.52451104423801" lon="8.976500409215841"><ele>194.33333333333331</ele><time>2026-05-03T08:00:38Z</time></trkpt><trkpt lat="39.5244358313013" lon="8.97650510268957"><ele>192.66666666666666</ele><time>2026-05-03T08:00:39Z</time></trkpt><trkpt lat="39.52436185343431" lon="8.976508494817288"><ele>191.0</ele><time>2026-05-03T08:00:40Z</time></trkpt><trkpt lat="39.524284778913405" lon="8.976511720551025"><ele>189.33333333333331</ele><time>2026-05-03T08:00:41Z</time></trkpt><trkpt lat="39.52420881774558" lon="8.976514899689926"><ele>187.66666666666666</ele><time>2026-05-03T08:00:42Z</time></trkpt><trkpt lat="39.52413375288928" lon="8.976515384658471"><ele>186.0</ele><time>2026-05-03T08:00:43Z</time></trkpt><trkpt lat="39.52405825562105" lon="8.976513595825304"><ele>186.00000000000003</ele><time>2026-05-03T08:00:44Z</time></trkpt><trkpt lat="39.52398685693248" lon="8.976502381768714"><ele>186.0</ele><time>2026-05-03T08:00:45Z</time></trkpt><trkpt lat="39.52391894256851" lon="8.976481535709388"><ele>186.0</ele><time>2026-05-03T08:00:46Z</time></trkpt><trkpt lat="39.523858265612674" lon="8.97644605708196"><ele>186.0</ele><time>2026-05-03T08:00:47Z</time></trkpt><trkpt lat="39.523791165088234" lon="8.976399667987657"><ele>186.0</ele><time>2026-05-03T08:00:48Z</time></trkpt><trkpt lat="39.523734971709096" lon="8.976343358748567"><ele>186.00000000000003</ele><time>2026-05-03T08:00:49Z</time></trkpt><trkpt lat="39.52367256564819" lon="8.976274175543091"><ele>186.0</ele><time>2026-05-03T08:00:50Z</time></trkpt><trkpt lat="39.523609749603324" lon="8.976193691388591"><ele>185.20000000000002</ele><time>2026-05-03T08:00:51Z</time></trkpt><trkpt lat="39.523552259969485" lon="8.976111001122243"><ele>184.4</ele><time>2026-05-03T08:00:52Z</time></trkpt><trkpt lat="39.52349226490075" lon="8.976021421229861"><ele>183.6</ele><time>2026-05-03T08:00:53Z</time></trkpt><trkpt lat="39.52343435100179" lon="8.975932264474626"><ele>182.8</ele><time>2026-05-03T08:00:54Z</time></trkpt><trkpt lat="39.52337504288478" lon="8.975838648331212"><ele>182.0</ele><time>2026-05-03T08:00:55Z</time></trkpt><trkpt lat="39.52330311059266" lon="8.975760693343657"><ele>182.0</ele><time>2026-05-03T08:00:56Z</time></trkpt><trkpt lat="39.52324379552859" lon="8.975669263832577"><ele>182.0</ele><time>2026-05-03T08:00:57Z</time></trkpt><trkpt lat="39.52318070324025" lon="8.975575311366219"><ele>182.0</ele><time>2026-05-03T08:00:58Z</time></trkpt><trkpt lat="39.523120001856036" lon="8.975490632626126"><ele>182.0</ele><time>2026-05-03T08:00:59Z</time></trkpt><trkpt lat="39.523061206756545" lon="8.97540102679808"><ele>182.0</ele><time>2026-05-03T08:01:00Z</time></trkpt><trkpt lat="39.523017268769436" lon="8.975297108778527"><ele>182.0</ele><time>2026-05-03T08:01:01Z</time></trkpt><trkpt lat="39.52298382557937" lon="8.97518372456005"><ele>182.0</ele><time>2026-05-03T08:01:02Z</time></trkpt><trkpt lat="39.52295908567685" lon="8.975065523819852"><ele>182.0</ele><time>2026-05-03T08:01:03Z</time></trkpt><trkpt lat="39.52294194006358" lon="8.97494579246847"><ele>182.0</ele><time>2026-05-03T08:01:04Z</time></trkpt><trkpt lat="39.52293308415585" lon="8.97482082904963"><ele>182.0</ele><time>2026-05-03T08:01:05Z</time></trkpt><trkpt lat="39.5229301875194" lon="8.9746972678268"><ele>183.2</ele><time>2026-05-03T08:01:06Z</time></trkpt><trkpt lat="39.52292501596553" lon="8.974573784938814"><ele>184.39999999999998</ele><time>2026-05-03T08:01:07Z</time></trkpt><trkpt lat="39.52291379782199" lon="8.97444843912995"><ele>185.60000000000002</ele><time>2026-05-03T08:01:08Z</time></trkpt><trkpt lat="39.52289870203324" lon="8.974323412676629"><ele>186.8</ele><time>2026-05-03T08:01:09Z</time></trkpt><trkpt lat="39.522886677426506" lon="8.974193181865896"><ele>188.0</ele><time>2026-05-03T08:01:10Z</time></trkpt><trkpt lat="39.52287818719036" lon="8.974067208995242"><ele>184.0</ele><time>2026-05-03T08:01:11Z</time></trkpt><trkpt lat="39.52286848807285" lon="8.973940628121017"><ele>180.0</ele><time>2026-05-03T08:01:12Z</time></trkpt><trkpt lat="39.52285455542286" lon="8.973813790423215"><ele>176.0</ele><time>2026-05-03T08:01:13Z</time></trkpt><trkpt lat="39.52283633266653" lon="8.973689055057244"><ele>172.0</ele><time>2026-05-03T08:01:14Z</time></trkpt><trkpt lat="39.5228055255798" lon="8.973575725169745"><ele>168.0</ele><time>2026-05-03T08:01:15Z</time></trkpt><trkpt lat="39.52277649453307" lon="8.973464515755744"><ele>168.0</ele><time>2026-05-03T08:01:16Z</time></trkpt><trkpt lat="39.522730860245446" lon="8.973368670916335"><ele>168.0</ele><time>2026-05-03T08:01:17Z</time></trkpt><trkpt lat="39.52267031559566" lon="8.973295360897543"><ele>168.0</ele><time>2026-05-03T08:01:18Z</time></trkpt><trkpt lat="39.5225834897881" lon="8.97326938986691"><ele>168.0</ele><time>2026-05-03T08:01:19Z</time></trkpt><trkpt lat="39.522503705553746" lon="8.973234410441133"><ele>168.0</ele><time>2026-05-03T08:01:20Z</time></trkpt><trkpt lat="39.52242431078204" lon="8.973189807003406"><ele>168.0</ele><time>2026-05-03T08:01:21Z</time></trkpt><trkpt lat="39.52233861928604" lon="8.973166941776624"><ele>168.5</ele><time>2026-05-03T08:01:22Z</time></trkpt><trkpt lat="39.52225487310427" lon="8.973150051127739"><ele>169.0</ele><time>2026-05-03T08:01:23Z</time></trkpt><trkpt lat="39.52216992567177" lon="8.973136988976265"><ele>169.5</ele><time>2026-05-03T08:01:24Z</time></trkpt><trkpt lat="39.52208374046208" lon="8.97312709264756"><ele>170.0</ele><time>2026-05-03T08:01:25Z</time></trkpt><trkpt lat="39.52199727356573" lon="8.973117186518182"><ele>170.5</ele><time>2026-05-03T08:01:26Z</time></trkpt><trkpt lat="39.52190887818896" lon="8.973117908017992"><ele>171.0</ele><time>2026-05-03T08:01:27Z</time></trkpt><trkpt lat="39.52181932325558" lon="8.973094948850935"><ele>169.60000000000002</ele><time>2026-05-03T08:01:28Z</time></trkpt><trkpt lat="39.52172864135018" lon="8.97306657771449"><ele>168.2</ele><time>2026-05-03T08:01:29Z</time></trkpt><trkpt lat="39.5216373263074" lon="8.973035470048096"><ele>166.8</ele><time>2026-05-03T08:01:30Z</time></trkpt><trkpt lat="39.52155187852695" lon="8.972980128109976"><ele>165.39999999999998</ele><time>2026-05-03T08:01:31Z</time></trkpt><trkpt lat="39.521462782687834" lon="8.972946546385467"><ele>164.0</ele><time>2026-05-03T08:01:32Z</time></trkpt><trkpt lat="39.521374323645695" lon="8.972913204711439"><ele>164.0</ele><time>2026-05-03T08:01:33Z</time></trkpt><trkpt lat="39.52129007471156" lon="8.972876726032215"><ele>164.0</ele><time>2026-05-03T08:01:34Z</time></trkpt><trkpt lat="39.521205084664246" lon="8.972832298517964"><ele>164.0</ele><time>2026-05-03T08:01:35Z</time></trkpt><trkpt lat="39.52112795967206" lon="8.972778453497916"><ele>164.0</ele><time>2026-05-03T08:01:36Z</time></trkpt><trkpt lat="39.521067878092126" lon="8.972705847266198"><ele>164.0</ele><time>2026-05-03T08:01:37Z</time></trkpt><trkpt lat="39.52100873074323" lon="8.97262112128605"><ele>164.0</ele><time>2026-05-03T08:01:38Z</time></trkpt><trkpt lat="39.520953672194885" lon="8.972536555695385"><ele>164.0</ele><time>2026-05-03T08:01:39Z</time></trkpt><trkpt lat="39.52090023324177" lon="8.972458137567315"><ele>164.0</ele><time>2026-05-03T08:01:40Z</time></trkpt><trkpt lat="39.520858612017726" lon="8.972370814380016"><ele>164.0</ele><time>2026-05-03T08:01:41Z</time></trkpt><trkpt lat="39.5208127835421" lon="8.972289554059918"><ele>164.0</ele><time>2026-05-03T08:01:42Z</time></trkpt><trkpt lat="39.52076340166627" lon="8.972214210618178"><ele>164.0</ele><time>2026-05-03T08:01:43Z</time></trkpt><trkpt lat="39.52071822108326" lon="8.972139199038331"><ele>164.0</ele><time>2026-05-03T08:01:44Z</time></trkpt><trkpt lat="39.520671772231374" lon="8.972070039314127"><ele>163.99999999999997</ele><time>2026-05-03T08:01:45Z</time></trkpt><trkpt lat="39.52061985968566" lon="8.97200522194911"><ele>164.0</ele><time>2026-05-03T08:01:46Z</time></trkpt><trkpt lat="39.520564147818675" lon="8.971949403016415"><ele>164.0</ele><time>2026-05-03T08:01:47Z</time></trkpt><trkpt lat="39.52051087129533" lon="8.971900826215592"><ele>164.0</ele><time>2026-05-03T08:01:48Z</time></trkpt><trkpt lat="39.52045331146032" lon="8.971856083864212"><ele>164.0</ele><time>2026-05-03T08:01:49Z</time></trkpt><trkpt lat="39.52039475763845" lon="8.971812927809037"><ele>163.99999999999997</ele><time>2026-05-03T08:01:50Z</time></trkpt><trkpt lat="39.52033904023525" lon="8.971765730127327"><ele>164.0</ele><time>2026-05-03T08:01:51Z</time></trkpt><trkpt lat="39.52028620105837" lon="8.971717675514158"><ele>164.0</ele><time>2026-05-03T08:01:52Z</time></trkpt><trkpt lat="39.52023249094472" lon="8.971674138001745"><ele>164.0</ele><time>2026-05-03T08:01:53Z</time></trkpt><trkpt lat="39.52017558210467" lon="8.971637701415462"><ele>164.0</ele><time>2026-05-03T08:01:54Z</time></trkpt><trkpt lat="39.520070287248856" lon="8.97156453529371"><ele>164.0</ele><time>2026-05-03T08:01:56Z</time></trkpt><trkpt lat="39.51996508115277" lon="8.971495350574246"><ele>164.0</ele><time>2026-05-03T08:01:58Z</time></trkpt><trkpt lat="39.51990324981216" lon="8.971470931135011"><ele>164.0</ele><time>2026-05-03T08:01:59Z</time></trkpt><trkpt lat="39.51984246788484" lon="8.971446749405821"><ele>164.0</ele><time>2026-05-03T08:02:00Z</time></trkpt><trkpt lat="39.519726602618455" lon="8.971396611304282"><ele>164.0</ele><time>2026-05-03T08:02:02Z</time></trkpt><trkpt lat="39.519621915203" lon="8.971347042925322"><ele>164.0</ele><time>2026-05-03T08:02:04Z</time></trkpt><trkpt lat="39.519523336623365" lon="8.971308137695035"><ele>164.0</ele><time>2026-05-03T08:02:06Z</time></trkpt><trkpt lat="39.51942695290692" lon="8.97127758856572"><ele>164.0</ele><time>2026-05-03T08:02:08Z</time></trkpt><trkpt lat="39.51933858539061" lon="8.971238649153458"><ele>163.79999999999998</ele><time>2026-05-03T08:02:10Z</time></trkpt><trkpt lat="39.519237763999506" lon="8.9712136967305"><ele>163.6</ele><time>2026-05-03T08:02:12Z</time></trkpt><trkpt lat="39.51913305946655" lon="8.971216201258095"><ele>163.4</ele><time>2026-05-03T08:02:14Z</time></trkpt><trkpt lat="39.51902204731485" lon="8.971219706198442"><ele>163.2</ele><time>2026-05-03T08:02:16Z</time></trkpt><trkpt lat="39.518917275865185" lon="8.97121074572314"><ele>163.0</ele><time>2026-05-03T08:02:18Z</time></trkpt><trkpt lat="39.51881690064326" lon="8.971209159224376"><ele>163.2</ele><time>2026-05-03T08:02:20Z</time></trkpt><trkpt lat="39.518713722050855" lon="8.971206944854716"><ele>163.4</ele><time>2026-05-03T08:02:22Z</time></trkpt><trkpt lat="39.51861721021421" lon="8.971207314749993"><ele>163.6</ele><time>2026-05-03T08:02:24Z</time></trkpt><trkpt lat="39.51852689545746" lon="8.971200586559018"><ele>163.79999999999998</ele><time>2026-05-03T08:02:26Z</time></trkpt><trkpt lat="39.518441288109095" lon="8.971197230809913"><ele>164.0</ele><time>2026-05-03T08:02:28Z</time></trkpt><trkpt lat="39.51836660998178" lon="8.97118867539078"><ele>163.99999999999997</ele><time>2026-05-03T08:02:30Z</time></trkpt><trkpt lat="39.51829451479801" lon="8.971174295786323"><ele>164.0</ele><time>2026-05-03T08:02:32Z</time></trkpt><trkpt lat="39.5182224919616" lon="8.971150847152723"><ele>164.0</ele><time>2026-05-03T08:02:34Z</time></trkpt><trkpt lat="39.51815549343129" lon="8.971116295032356"><ele>164.0</ele><time>2026-05-03T08:02:36Z</time></trkpt><trkpt lat="39.51808818701571" lon="8.971086979654409"><ele>164.0</ele><time>2026-05-03T08:02:38Z</time></trkpt><trkpt lat="39.51802073952229" lon="8.971053842604984"><ele>163.99999999999997</ele><time>2026-05-03T08:02:40Z</time></trkpt><trkpt lat="39.51795594416967" lon="8.971018182273925"><ele>164.0</ele><time>2026-05-03T08:02:42Z</time></trkpt><trkpt lat="39.517893624681356" lon="8.970988026301184"><ele>165.14285714285714</ele><time>2026-05-03T08:02:44Z</time></trkpt><trkpt lat="39.51782808138635" lon="8.970967877583616"><ele>166.28571428571428</ele><time>2026-05-03T08:02:46Z</time></trkpt><trkpt lat="39.51775819096775" lon="8.970955018660996"><ele>167.42857142857144</ele><time>2026-05-03T08:02:48Z</time></trkpt><trkpt lat="39.51768747530419" lon="8.97094389920554"><ele>168.57142857142856</ele><time>2026-05-03T08:02:50Z</time></trkpt><trkpt lat="39.51761647410202" lon="8.970937764618636"><ele>169.71428571428572</ele><time>2026-05-03T08:02:52Z</time></trkpt><trkpt lat="39.51754522392139" lon="8.970936544566133"><ele>170.85714285714286</ele><time>2026-05-03T08:02:54Z</time></trkpt><trkpt lat="39.51746692790178" lon="8.970955106214879"><ele>172.0</ele><time>2026-05-03T08:02:57Z</time></trkpt><trkpt lat="39.51740708149434" lon="8.970923055421286"><ele>172.00000000000003</ele><time>2026-05-03T08:03:43Z</time></trkpt><trkpt lat="39.517324370173014" lon="8.970926049898654"><ele>172.0</ele><time>2026-05-03T08:03:46Z</time></trkpt><trkpt lat="39.51722938613743" lon="8.970932138146813"><ele>172.0</ele><time>2026-05-03T08:03:49Z</time></trkpt><trkpt lat="39.51716334237899" lon="8.970930846203732"><ele>172.0</ele><time>2026-05-03T08:03:51Z</time></trkpt><trkpt lat="39.51709653444171" lon="8.970932614752117"><ele>172.0</ele><time>2026-05-03T08:03:53Z</time></trkpt><trkpt lat="39.517026263835305" lon="8.970932695485937"><ele>172.00000000000003</ele><time>2026-05-03T08:03:55Z</time></trkpt><trkpt lat="39.51695797061482" lon="8.970935704504255"><ele>172.0</ele><time>2026-05-03T08:03:57Z</time></trkpt><trkpt lat="39.51688849318132" lon="8.970937432968219"><ele>172.14285714285717</ele><time>2026-05-03T08:03:59Z</time></trkpt><trkpt lat="39.516820032723786" lon="8.970942635774927"><ele>172.28571428571428</ele><time>2026-05-03T08:04:01Z</time></trkpt><trkpt lat="39.51674952372883" lon="8.970944601807167"><ele>172.42857142857144</ele><time>2026-05-03T08:04:03Z</time></trkpt><trkpt lat="39.51667968079153" lon="8.970949467594652"><ele>172.57142857142858</ele><time>2026-05-03T08:04:05Z</time></trkpt><trkpt lat="39.516610174697696" lon="8.970956835893668"><ele>172.71428571428572</ele><time>2026-05-03T08:04:07Z</time></trkpt><trkpt lat="39.516542580094985" lon="8.970963138653326"><ele>172.85714285714286</ele><time>2026-05-03T08:04:09Z</time></trkpt><trkpt lat="39.5164733969962" lon="8.970962063176792"><ele>173.0</ele><time>2026-05-03T08:04:11Z</time></trkpt><trkpt lat="39.51640248457248" lon="8.970971818360232"><ele>173.0</ele><time>2026-05-03T08:04:13Z</time></trkpt><trkpt lat="39.51633220688271" lon="8.970978546116765"><ele>173.0</ele><time>2026-05-03T08:04:15Z</time></trkpt><trkpt lat="39.51625963488013" lon="8.970987426538988"><ele>173.0</ele><time>2026-05-03T08:04:17Z</time></trkpt><trkpt lat="39.51619349126929" lon="8.971010789888538"><ele>173.0</ele><time>2026-05-03T08:04:19Z</time></trkpt><trkpt lat="39.516119214538165" lon="8.971019372053851"><ele>173.0</ele><time>2026-05-03T08:04:21Z</time></trkpt><trkpt lat="39.51604911001297" lon="8.971022363650277"><ele>173.0</ele><time>2026-05-03T08:04:23Z</time></trkpt><trkpt lat="39.515978244100836" lon="8.971028826118742"><ele>173.0</ele><time>2026-05-03T08:04:25Z</time></trkpt><trkpt lat="39.51591100717598" lon="8.971033128610992"><ele>172.85714285714286</ele><time>2026-05-03T08:04:27Z</time></trkpt><trkpt lat="39.515842751642815" lon="8.97103645252142"><ele>172.71428571428572</ele><time>2026-05-03T08:04:29Z</time></trkpt><trkpt lat="39.51577357389646" lon="8.971041909968672"><ele>172.57142857142858</ele><time>2026-05-03T08:04:31Z</time></trkpt><trkpt lat="39.51570387072186" lon="8.971046979963926"><ele>172.42857142857144</ele><time>2026-05-03T08:04:33Z</time></trkpt><trkpt lat="39.51563484827945" lon="8.97105425195404"><ele>172.28571428571428</ele><time>2026-05-03T08:04:35Z</time></trkpt><trkpt lat="39.51556500844205" lon="8.97105414331502"><ele>172.14285714285717</ele><time>2026-05-03T08:04:37Z</time></trkpt><trkpt lat="39.515495739987365" lon="8.971060093456028"><ele>172.0</ele><time>2026-05-03T08:04:39Z</time></trkpt><trkpt lat="39.51542465788244" lon="8.971060063486162"><ele>172.2857142857143</ele><time>2026-05-03T08:04:41Z</time></trkpt><trkpt lat="39.51535547782737" lon="8.97106601599211"><ele>172.57142857142858</ele><time>2026-05-03T08:04:43Z</time></trkpt><trkpt lat="39.51528315727813" lon="8.97107199388871"><ele>172.85714285714286</ele><time>2026-05-03T08:04:45Z</time></trkpt><trkpt lat="39.51521170514437" lon="8.971077123093206"><ele>173.14285714285717</ele><time>2026-05-03T08:04:47Z</time></trkpt><trkpt lat="39.515141379511014" lon="8.971080137913091"><ele>173.42857142857144</ele><time>2026-05-03T08:04:49Z</time></trkpt><trkpt lat="39.51506926451807" lon="8.971085173423505"><ele>173.71428571428572</ele><time>2026-05-03T08:04:51Z</time></trkpt><trkpt lat="39.514997101220644" lon="8.971093656429439"><ele>174.0</ele><time>2026-05-03T08:04:53Z</time></trkpt><trkpt lat="39.51492780126921" lon="8.971100044388493"><ele>174.0</ele><time>2026-05-03T08:04:55Z</time></trkpt><trkpt lat="39.51485622891144" lon="8.971110399716311"><ele>174.0</ele><time>2026-05-03T08:04:57Z</time></trkpt><trkpt lat="39.514786257129735" lon="8.971121184510451"><ele>174.0</ele><time>2026-05-03T08:04:59Z</time></trkpt><trkpt lat="39.514712719529555" lon="8.971128213299941"><ele>174.0</ele><time>2026-05-03T08:05:01Z</time></trkpt><trkpt lat="39.51464110017419" lon="8.971137149161704"><ele>174.0</ele><time>2026-05-03T08:05:03Z</time></trkpt><trkpt lat="39.514569404020115" lon="8.971143376031149"><ele>174.0</ele><time>2026-05-03T08:05:05Z</time></trkpt><trkpt lat="39.514498084264766" lon="8.971148209203184"><ele>174.0</ele><time>2026-05-03T08:05:07Z</time></trkpt><trkpt lat="39.514427461167365" lon="8.971155569646207"><ele>174.14285714285714</ele><time>2026-05-03T08:05:09Z</time></trkpt><trkpt lat="39.514356927222636" lon="8.971159977398361"><ele>174.28571428571428</ele><time>2026-05-03T08:05:11Z</time></trkpt><trkpt lat="39.514287136041254" lon="8.971164403664247"><ele>174.42857142857144</ele><time>2026-05-03T08:05:13Z</time></trkpt><trkpt lat="39.514216145465234" lon="8.97116719868809"><ele>174.57142857142856</ele><time>2026-05-03T08:05:15Z</time></trkpt><trkpt lat="39.51414204258681" lon="8.971174693637241"><ele>174.71428571428572</ele><time>2026-05-03T08:05:17Z</time></trkpt><trkpt lat="39.51407182451846" lon="8.971181763489914"><ele>174.85714285714286</ele><time>2026-05-03T08:05:19Z</time></trkpt><trkpt lat="39.51399837914781" lon="8.971190529203517"><ele>175.0</ele><time>2026-05-03T08:05:21Z</time></trkpt><trkpt lat="39.51392514418608" lon="8.971201310544084"><ele>175.0</ele><time>2026-05-03T08:05:23Z</time></trkpt><trkpt lat="39.513847663050186" lon="8.971207400779077"><ele>175.0</ele><time>2026-05-03T08:05:25Z</time></trkpt><trkpt lat="39.5137721931966" lon="8.971217043033477"><ele>175.0</ele><time>2026-05-03T08:05:27Z</time></trkpt><trkpt lat="39.5136948927376" lon="8.971225766267697"><ele>175.0</ele><time>2026-05-03T08:05:29Z</time></trkpt><trkpt lat="39.51361324300441" lon="8.971232595906113"><ele>175.0</ele><time>2026-05-03T08:05:31Z</time></trkpt><trkpt lat="39.51353403532904" lon="8.971240484339388"><ele>175.0</ele><time>2026-05-03T08:05:33Z</time></trkpt><trkpt lat="39.51344905448069" lon="8.971247877712466"><ele>174.2</ele><time>2026-05-03T08:05:35Z</time></trkpt><trkpt lat="39.513359259571295" lon="8.971255954673184"><ele>173.4</ele><time>2026-05-03T08:05:37Z</time></trkpt><trkpt lat="39.51326934721919" lon="8.971264423611894"><ele>172.60000000000002</ele><time>2026-05-03T08:05:39Z</time></trkpt><trkpt lat="39.51317733992208" lon="8.971270617617371"><ele>171.8</ele><time>2026-05-03T08:05:41Z</time></trkpt><trkpt lat="39.51307947104021" lon="8.971277714929426"><ele>171.0</ele><time>2026-05-03T08:05:43Z</time></trkpt><trkpt lat="39.51298190597948" lon="8.971284906375486"><ele>170.60000000000002</ele><time>2026-05-03T08:05:45Z</time></trkpt><trkpt lat="39.51287952640719" lon="8.97129652101625"><ele>170.2</ele><time>2026-05-03T08:05:47Z</time></trkpt><trkpt lat="39.51277626640897" lon="8.97130648603148"><ele>169.8</ele><time>2026-05-03T08:05:49Z</time></trkpt><trkpt lat="39.51267124487967" lon="8.9713236480063"><ele>169.39999999999998</ele><time>2026-05-03T08:05:51Z</time></trkpt><trkpt lat="39.51256169789056" lon="8.971295212654685"><ele>169.0</ele><time>2026-05-03T08:05:53Z</time></trkpt><trkpt lat="39.51245175802376" lon="8.97130520155454"><ele>169.0</ele><time>2026-05-03T08:05:55Z</time></trkpt><trkpt lat="39.51233914199924" lon="8.9713156795735"><ele>169.0</ele><time>2026-05-03T08:05:57Z</time></trkpt><trkpt lat="39.512216812099915" lon="8.971327062830941"><ele>169.0</ele><time>2026-05-03T08:05:59Z</time></trkpt><trkpt lat="39.51215394168687" lon="8.971332912411745"><ele>169.0</ele><time>2026-05-03T08:06:00Z</time></trkpt><trkpt lat="39.51208959218276" lon="8.971338899605465"><ele>169.0</ele><time>2026-05-03T08:06:01Z</time></trkpt><trkpt lat="39.512026842241376" lon="8.971385214746954"><ele>169.0</ele><time>2026-05-03T08:06:02Z</time></trkpt><trkpt lat="39.51195954565173" lon="8.971387564347454"><ele>168.71428571428572</ele><time>2026-05-03T08:06:03Z</time></trkpt><trkpt lat="39.511891687525676" lon="8.97139304124061"><ele>168.42857142857142</ele><time>2026-05-03T08:06:04Z</time></trkpt><trkpt lat="39.511825535869775" lon="8.971401129554138"><ele>168.14285714285714</ele><time>2026-05-03T08:06:05Z</time></trkpt><trkpt lat="39.51175730597106" lon="8.971407659297322"><ele>167.85714285714286</ele><time>2026-05-03T08:06:06Z</time></trkpt><trkpt lat="39.51168977003057" lon="8.971413340023062"><ele>167.57142857142858</ele><time>2026-05-03T08:06:07Z</time></trkpt><trkpt lat="39.5116215744761" lon="8.971416650836037"><ele>167.28571428571428</ele><time>2026-05-03T08:06:08Z</time></trkpt><trkpt lat="39.511553368082836" lon="8.97141975539141"><ele>167.0</ele><time>2026-05-03T08:06:09Z</time></trkpt><trkpt lat="39.511486755987015" lon="8.971425614016768"><ele>167.0</ele><time>2026-05-03T08:06:10Z</time></trkpt><trkpt lat="39.51142078417806" lon="8.971430832743637"><ele>167.0</ele><time>2026-05-03T08:06:11Z</time></trkpt><trkpt lat="39.511351870587426" lon="8.971403147585091"><ele>167.0</ele><time>2026-05-03T08:06:12Z</time></trkpt><trkpt lat="39.51128568145438" lon="8.971445986616287"><ele>167.0</ele><time>2026-05-03T08:06:13Z</time></trkpt><trkpt lat="39.51121643592469" lon="8.971451588944714"><ele>167.0</ele><time>2026-05-03T08:06:14Z</time></trkpt><trkpt lat="39.511145937960045" lon="8.97145642492181"><ele>167.0</ele><time>2026-05-03T08:06:15Z</time></trkpt><trkpt lat="39.5110782024607" lon="8.97146192093394"><ele>167.0</ele><time>2026-05-03T08:06:16Z</time></trkpt><trkpt lat="39.51100990967812" lon="8.971465459736624"><ele>166.85714285714286</ele><time>2026-05-03T08:06:17Z</time></trkpt><trkpt lat="39.51094164462849" lon="8.971465674825565"><ele>166.71428571428572</ele><time>2026-05-03T08:06:18Z</time></trkpt><trkpt lat="39.51087414199655" lon="8.971469844540408"><ele>166.57142857142856</ele><time>2026-05-03T08:06:19Z</time></trkpt><trkpt lat="39.510808575169236" lon="8.97147004860008"><ele>166.42857142857144</ele><time>2026-05-03T08:06:20Z</time></trkpt><trkpt lat="39.510741769214356" lon="8.971470247609401"><ele>166.2857142857143</ele><time>2026-05-03T08:06:21Z</time></trkpt><trkpt lat="39.51067487274396" lon="8.97147018208965"><ele>166.14285714285714</ele><time>2026-05-03T08:06:22Z</time></trkpt><trkpt lat="39.51060936291476" lon="8.971461837920259"><ele>166.0</ele><time>2026-05-03T08:06:23Z</time></trkpt><trkpt lat="39.510542842158095" lon="8.971447404234627"><ele>166.0</ele><time>2026-05-03T08:06:24Z</time></trkpt><trkpt lat="39.51047672514403" lon="8.97143650432669"><ele>166.0</ele><time>2026-05-03T08:06:25Z</time></trkpt><trkpt lat="39.51040916322437" lon="8.971425897366156"><ele>166.0</ele><time>2026-05-03T08:06:26Z</time></trkpt><trkpt lat="39.51034079167792" lon="8.97141668007281"><ele>166.0</ele><time>2026-05-03T08:06:27Z</time></trkpt><trkpt lat="39.51027188007893" lon="8.97140725407273"><ele>166.0</ele><time>2026-05-03T08:06:28Z</time></trkpt><trkpt lat="39.510202757783375" lon="8.971397383267522"><ele>166.0</ele><time>2026-05-03T08:06:29Z</time></trkpt><trkpt lat="39.51013319960455" lon="8.971389245800891"><ele>166.0</ele><time>2026-05-03T08:06:30Z</time></trkpt><trkpt lat="39.51006537652181" lon="8.971378666762655"><ele>165.0</ele><time>2026-05-03T08:06:31Z</time></trkpt><trkpt lat="39.509997905855954" lon="8.971372748676481"><ele>164.0</ele><time>2026-05-03T08:06:32Z</time></trkpt><trkpt lat="39.50993190235032" lon="8.9713609392923"><ele>163.0</ele><time>2026-05-03T08:06:33Z</time></trkpt><trkpt lat="39.50986499580066" lon="8.971346784744677"><ele>162.0</ele><time>2026-05-03T08:06:34Z</time></trkpt><trkpt lat="39.50979863638471" lon="8.971340054207012"><ele>161.0</ele><time>2026-05-03T08:06:35Z</time></trkpt><trkpt lat="39.50973537389158" lon="8.971330958171023"><ele>160.0</ele><time>2026-05-03T08:06:36Z</time></trkpt><trkpt lat="39.5096693642071" lon="8.971320230243192"><ele>159.0</ele><time>2026-05-03T08:06:37Z</time></trkpt><trkpt lat="39.509606311225696" lon="8.971312821179648"><ele>158.42857142857142</ele><time>2026-05-03T08:06:38Z</time></trkpt><trkpt lat="39.50954185670461" lon="8.971304262892112"><ele>157.85714285714286</ele><time>2026-05-03T08:06:39Z</time></trkpt><trkpt lat="39.50947674292288" lon="8.971295382199855"><ele>157.28571428571428</ele><time>2026-05-03T08:06:40Z</time></trkpt><trkpt lat="39.50941100417707" lon="8.971288787804397"><ele>156.71428571428572</ele><time>2026-05-03T08:06:41Z</time></trkpt><trkpt lat="39.50934687082692" lon="8.97128346069434"><ele>156.14285714285714</ele><time>2026-05-03T08:06:42Z</time></trkpt><trkpt lat="39.50928121851401" lon="8.971273542471502"><ele>155.57142857142858</ele><time>2026-05-03T08:06:43Z</time></trkpt><trkpt lat="39.509215381269556" lon="8.971264229279935"><ele>155.0</ele><time>2026-05-03T08:06:44Z</time></trkpt><trkpt lat="39.50914976123766" lon="8.971255474477834"><ele>155.0</ele><time>2026-05-03T08:06:45Z</time></trkpt><trkpt lat="39.50908586211641" lon="8.971246095473848"><ele>155.0</ele><time>2026-05-03T08:06:46Z</time></trkpt><trkpt lat="39.50901846776598" lon="8.971232773479757"><ele>155.0</ele><time>2026-05-03T08:06:47Z</time></trkpt><trkpt lat="39.5089524260586" lon="8.971214788968226"><ele>155.0</ele><time>2026-05-03T08:06:48Z</time></trkpt><trkpt lat="39.50889009036008" lon="8.971187871860064"><ele>155.0</ele><time>2026-05-03T08:06:49Z</time></trkpt><trkpt lat="39.508828899230856" lon="8.97114416979895"><ele>155.0</ele><time>2026-05-03T08:06:50Z</time></trkpt><trkpt lat="39.508771998538734" lon="8.971095192826798"><ele>155.0</ele><time>2026-05-03T08:06:51Z</time></trkpt><trkpt lat="39.50871830932138" lon="8.97103366260007"><ele>154.85714285714286</ele><time>2026-05-03T08:06:52Z</time></trkpt><trkpt lat="39.5086697139552" lon="8.970966229573225"><ele>154.71428571428572</ele><time>2026-05-03T08:06:53Z</time></trkpt><trkpt lat="39.50862392936736" lon="8.97089740632227"><ele>154.57142857142856</ele><time>2026-05-03T08:06:54Z</time></trkpt><trkpt lat="39.508580066219984" lon="8.970828322467849"><ele>154.42857142857144</ele><time>2026-05-03T08:06:55Z</time></trkpt><trkpt lat="39.50853809557773" lon="8.97075934353581"><ele>154.28571428571428</ele><time>2026-05-03T08:06:56Z</time></trkpt><trkpt lat="39.508496038542965" lon="8.970691140927757"><ele>154.14285714285714</ele><time>2026-05-03T08:06:57Z</time></trkpt><trkpt lat="39.508454314387116" lon="8.970624507181823"><ele>154.0</ele><time>2026-05-03T08:06:58Z</time></trkpt><trkpt lat="39.50841365684783" lon="8.970557160195744"><ele>153.4</ele><time>2026-05-03T08:06:59Z</time></trkpt><trkpt lat="39.50837618230885" lon="8.970491323032666"><ele>152.8</ele><time>2026-05-03T08:07:00Z</time></trkpt><trkpt lat="39.508298176013405" lon="8.970366937292559"><ele>152.2</ele><time>2026-05-03T08:07:02Z</time></trkpt><trkpt lat="39.508220780182036" lon="8.970238011003314"><ele>151.6</ele><time>2026-05-03T08:07:04Z</time></trkpt><trkpt lat="39.50817994442945" lon="8.970172996307603"><ele>151.0</ele><time>2026-05-03T08:07:05Z</time></trkpt><trkpt lat="39.5080993488057" lon="8.9700539754636"><ele>150.66666666666669</ele><time>2026-05-03T08:07:07Z</time></trkpt><trkpt lat="39.50800921566077" lon="8.969943332562472"><ele>150.33333333333334</ele><time>2026-05-03T08:07:09Z</time></trkpt><trkpt lat="39.50791720172543" lon="8.969842716636524"><ele>150.0</ele><time>2026-05-03T08:07:11Z</time></trkpt><trkpt lat="39.5078578758185" lon="8.969809233982696"><ele>149.66666666666666</ele><time>2026-05-03T08:07:12Z</time></trkpt><trkpt lat="39.50779878796191" lon="8.96977898797419"><ele>149.33333333333331</ele><time>2026-05-03T08:07:13Z</time></trkpt><trkpt lat="39.507740322998636" lon="8.969744983274348"><ele>149.0</ele><time>2026-05-03T08:07:14Z</time></trkpt><trkpt lat="39.5076789233841" lon="8.969710800654791"><ele>148.85714285714286</ele><time>2026-05-03T08:07:15Z</time></trkpt><trkpt lat="39.507617423523364" lon="8.969676743302687"><ele>148.7142857142857</ele><time>2026-05-03T08:07:16Z</time></trkpt><trkpt lat="39.5075525343904" lon="8.969644210134998"><ele>148.57142857142856</ele><time>2026-05-03T08:07:17Z</time></trkpt><trkpt lat="39.50748877705153" lon="8.96962053158257"><ele>148.42857142857142</ele><time>2026-05-03T08:07:18Z</time></trkpt><trkpt lat="39.507423750212624" lon="8.96959428460923"><ele>148.28571428571428</ele><time>2026-05-03T08:07:19Z</time></trkpt><trkpt lat="39.5073590117107" lon="8.96956609068297"><ele>148.14285714285714</ele><time>2026-05-03T08:07:20Z</time></trkpt><trkpt lat="39.50729618831453" lon="8.969531692906031"><ele>148.0</ele><time>2026-05-03T08:07:21Z</time></trkpt><trkpt lat="39.50723428973014" lon="8.969500293649153"><ele>148.0</ele><time>2026-05-03T08:07:22Z</time></trkpt><trkpt lat="39.50717176613258" lon="8.969473996644043"><ele>148.0</ele><time>2026-05-03T08:07:23Z</time></trkpt><trkpt lat="39.50710808202117" lon="8.969446037741294"><ele>148.0</ele><time>2026-05-03T08:07:24Z</time></trkpt><trkpt lat="39.507044176105815" lon="8.969419477843502"><ele>148.0</ele><time>2026-05-03T08:07:25Z</time></trkpt><trkpt lat="39.506982021638976" lon="8.969393901616158"><ele>148.0</ele><time>2026-05-03T08:07:26Z</time></trkpt><trkpt lat="39.50691905789817" lon="8.969368859868192"><ele>148.0</ele><time>2026-05-03T08:07:27Z</time></trkpt><trkpt lat="39.506857854129386" lon="8.969341507951416"><ele>148.0</ele><time>2026-05-03T08:07:28Z</time></trkpt><trkpt lat="39.506795327648916" lon="8.969314683237954"><ele>147.14285714285714</ele><time>2026-05-03T08:07:29Z</time></trkpt><trkpt lat="39.5067309136493" lon="8.96928396737328"><ele>146.28571428571428</ele><time>2026-05-03T08:07:30Z</time></trkpt><trkpt lat="39.50666884506562" lon="8.969252496855407"><ele>145.42857142857142</ele><time>2026-05-03T08:07:31Z</time></trkpt><trkpt lat="39.50660340764885" lon="8.969224897507205"><ele>144.57142857142856</ele><time>2026-05-03T08:07:32Z</time></trkpt><trkpt lat="39.50654002492186" lon="8.96919813017725"><ele>143.7142857142857</ele><time>2026-05-03T08:07:33Z</time></trkpt><trkpt lat="39.50647588189684" lon="8.969169355587601"><ele>142.85714285714286</ele><time>2026-05-03T08:07:34Z</time></trkpt><trkpt lat="39.50640987859522" lon="8.969142992270136"><ele>142.0</ele><time>2026-05-03T08:07:35Z</time></trkpt><trkpt lat="39.5063445384117" lon="8.969111804420997"><ele>141.71428571428572</ele><time>2026-05-03T08:07:36Z</time></trkpt><trkpt lat="39.50628092887228" lon="8.96907456262816"><ele>141.42857142857142</ele><time>2026-05-03T08:07:37Z</time></trkpt><trkpt lat="39.50621914421399" lon="8.969031295091925"><ele>141.14285714285714</ele><time>2026-05-03T08:07:38Z</time></trkpt><trkpt lat="39.506159822095015" lon="8.968983147516465"><ele>140.85714285714286</ele><time>2026-05-03T08:07:39Z</time></trkpt><trkpt lat="39.50610219967235" lon="8.968928826951768"><ele>140.57142857142856</ele><time>2026-05-03T08:07:40Z</time></trkpt><trkpt lat="39.506064372557084" lon="8.968845488996221"><ele>140.28571428571428</ele><time>2026-05-03T08:07:41Z</time></trkpt><trkpt lat="39.50601784255522" lon="8.968781818185077"><ele>140.0</ele><time>2026-05-03T08:07:42Z</time></trkpt><trkpt lat="39.505956424756846" lon="8.968729678013695"><ele>139.71428571428572</ele><time>2026-05-03T08:07:43Z</time></trkpt><trkpt lat="39.50590976199905" lon="8.968660768270567"><ele>139.42857142857144</ele><time>2026-05-03T08:07:44Z</time></trkpt><trkpt lat="39.505859353132635" lon="8.968592759134149"><ele>139.14285714285714</ele><time>2026-05-03T08:07:45Z</time></trkpt><trkpt lat="39.505809175997676" lon="8.968523665474008"><ele>138.85714285714286</ele><time>2026-05-03T08:07:46Z</time></trkpt><trkpt lat="39.505760560083814" lon="8.968453740587535"><ele>138.57142857142858</ele><time>2026-05-03T08:07:47Z</time></trkpt><trkpt lat="39.5057132059849" lon="8.968380512785714"><ele>138.28571428571428</ele><time>2026-05-03T08:07:48Z</time></trkpt><trkpt lat="39.50567752125197" lon="8.968297559444789"><ele>138.0</ele><time>2026-05-03T08:07:49Z</time></trkpt><trkpt lat="39.505629351351104" lon="8.968228891756588"><ele>137.83333333333334</ele><time>2026-05-03T08:07:50Z</time></trkpt><trkpt lat="39.505579138255776" lon="8.968158468022663"><ele>137.66666666666666</ele><time>2026-05-03T08:07:51Z</time></trkpt><trkpt lat="39.505517313482414" lon="8.968101398140732"><ele>137.5</ele><time>2026-05-03T08:07:52Z</time></trkpt><trkpt lat="39.50546727104558" lon="8.96803032743166"><ele>137.33333333333331</ele><time>2026-05-03T08:07:53Z</time></trkpt><trkpt lat="39.505416474523365" lon="8.967967521772115"><ele>137.16666666666666</ele><time>2026-05-03T08:07:54Z</time></trkpt><trkpt lat="39.50537402667022" lon="8.9678781271845"><ele>137.0</ele><time>2026-05-03T08:07:55Z</time></trkpt><trkpt lat="39.50531870101285" lon="8.967810371730982"><ele>136.33333333333331</ele><time>2026-05-03T08:07:56Z</time></trkpt><trkpt lat="39.50525696152464" lon="8.967753078661513"><ele>135.66666666666666</ele><time>2026-05-03T08:07:57Z</time></trkpt><trkpt lat="39.50518553613709" lon="8.967712556927191"><ele>135.0</ele><time>2026-05-03T08:07:58Z</time></trkpt><trkpt lat="39.5051093591037" lon="8.967677726903018"><ele>134.33333333333334</ele><time>2026-05-03T08:07:59Z</time></trkpt><trkpt lat="39.50503669029812" lon="8.96764739100453"><ele>133.66666666666669</ele><time>2026-05-03T08:08:00Z</time></trkpt><trkpt lat="39.5049523907028" lon="8.967644326841182"><ele>133.0</ele><time>2026-05-03T08:08:01Z</time></trkpt><trkpt lat="39.50487459294838" lon="8.967646427248598"><ele>133.0</ele><time>2026-05-03T08:08:02Z</time></trkpt><trkpt lat="39.50480132684468" lon="8.967654155824455"><ele>133.0</ele><time>2026-05-03T08:08:03Z</time></trkpt><trkpt lat="39.504730215794325" lon="8.967660073589244"><ele>133.0</ele><time>2026-05-03T08:08:04Z</time></trkpt><trkpt lat="39.504659366563516" lon="8.967665969572518"><ele>133.0</ele><time>2026-05-03T08:08:05Z</time></trkpt><trkpt lat="39.504589082927794" lon="8.96767233908088"><ele>133.0</ele><time>2026-05-03T08:08:06Z</time></trkpt><trkpt lat="39.50451995967293" lon="8.967679609500586"><ele>133.0</ele><time>2026-05-03T08:08:07Z</time></trkpt><trkpt lat="39.50445062413393" lon="8.967686902251646"><ele>133.0</ele><time>2026-05-03T08:08:08Z</time></trkpt><trkpt lat="39.504384877245386" lon="8.967693818939969"><ele>132.71428571428572</ele><time>2026-05-03T08:08:09Z</time></trkpt><trkpt lat="39.50431822698041" lon="8.967700829236245"><ele>132.42857142857144</ele><time>2026-05-03T08:08:10Z</time></trkpt><trkpt lat="39.50425298081133" lon="8.967707691866725"><ele>132.14285714285714</ele><time>2026-05-03T08:08:11Z</time></trkpt><trkpt lat="39.50418481658693" lon="8.967714861408306"><ele>131.85714285714286</ele><time>2026-05-03T08:08:12Z</time></trkpt><trkpt lat="39.50411682443934" lon="8.96772201286821"><ele>131.57142857142858</ele><time>2026-05-03T08:08:13Z</time></trkpt><trkpt lat="39.50405010773046" lon="8.96776114581259"><ele>131.28571428571428</ele><time>2026-05-03T08:08:14Z</time></trkpt><trkpt lat="39.50398017403827" lon="8.967768482077858"><ele>131.0</ele><time>2026-05-03T08:08:15Z</time></trkpt><trkpt lat="39.50390980867704" lon="8.967776518832856"><ele>131.0</ele><time>2026-05-03T08:08:16Z</time></trkpt><trkpt lat="39.50384013911772" lon="8.967782304050111"><ele>131.0</ele><time>2026-05-03T08:08:17Z</time></trkpt><trkpt lat="39.50377161936155" lon="8.967786563409348"><ele>131.0</ele><time>2026-05-03T08:08:18Z</time></trkpt><trkpt lat="39.50370332275293" lon="8.967792307896993"><ele>131.0</ele><time>2026-05-03T08:08:19Z</time></trkpt><trkpt lat="39.50363506870837" lon="8.96779879163273"><ele>131.0</ele><time>2026-05-03T08:08:20Z</time></trkpt><trkpt lat="39.503566259433214" lon="8.967804907138403"><ele>131.0</ele><time>2026-05-03T08:08:21Z</time></trkpt><trkpt lat="39.503499827859244" lon="8.967812114855855"><ele>131.0</ele><time>2026-05-03T08:08:22Z</time></trkpt><trkpt lat="39.503430358981944" lon="8.967816582135772"><ele>130.57142857142858</ele><time>2026-05-03T08:08:23Z</time></trkpt><trkpt lat="39.5033612307278" lon="8.967820983460626"><ele>130.14285714285717</ele><time>2026-05-03T08:08:24Z</time></trkpt><trkpt lat="39.50329385902024" lon="8.967827833450729"><ele>129.71428571428572</ele><time>2026-05-03T08:08:25Z</time></trkpt><trkpt lat="39.50322630524946" lon="8.967832769594084"><ele>129.28571428571428</ele><time>2026-05-03T08:08:26Z</time></trkpt><trkpt lat="39.503158225466436" lon="8.967840391068133"><ele>128.85714285714283</ele><time>2026-05-03T08:08:27Z</time></trkpt><trkpt lat="39.503091011527886" lon="8.967839902034942"><ele>128.42857142857142</ele><time>2026-05-03T08:08:28Z</time></trkpt><trkpt lat="39.50302591712756" lon="8.967841208793859"><ele>128.0</ele><time>2026-05-03T08:08:29Z</time></trkpt><trkpt lat="39.50296166144811" lon="8.967844535831402"><ele>127.57142857142857</ele><time>2026-05-03T08:08:30Z</time></trkpt><trkpt lat="39.50289602014496" lon="8.967848453856615"><ele>127.14285714285714</ele><time>2026-05-03T08:08:31Z</time></trkpt><trkpt lat="39.50282989001915" lon="8.967850298545288"><ele>126.71428571428571</ele><time>2026-05-03T08:08:32Z</time></trkpt><trkpt lat="39.50276320126656" lon="8.967847769506188"><ele>126.28571428571428</ele><time>2026-05-03T08:08:33Z</time></trkpt><trkpt lat="39.50269780961992" lon="8.967832842180016"><ele>125.85714285714286</ele><time>2026-05-03T08:08:34Z</time></trkpt><trkpt lat="39.502635577729336" lon="8.967812316901913"><ele>125.42857142857142</ele><time>2026-05-03T08:08:35Z</time></trkpt><trkpt lat="39.502578473326544" lon="8.967774597368027"><ele>125.0</ele><time>2026-05-03T08:08:36Z</time></trkpt><trkpt lat="39.50252455931495" lon="8.967729311529306"><ele>125.0</ele><time>2026-05-03T08:08:37Z</time></trkpt><trkpt lat="39.50243381567307" lon="8.967624169183742"><ele>125.0</ele><time>2026-05-03T08:08:39Z</time></trkpt><trkpt lat="39.50235382069299" lon="8.967505849994195"><ele>125.0</ele><time>2026-05-03T08:08:41Z</time></trkpt><trkpt lat="39.502276146107704" lon="8.967394078018081"><ele>125.0</ele><time>2026-05-03T08:08:43Z</time></trkpt><trkpt lat="39.50219875682775" lon="8.967280414857793"><ele>124.5</ele><time>2026-05-03T08:08:45Z</time></trkpt><trkpt lat="39.50211940382295" lon="8.96717263792981"><ele>124.0</ele><time>2026-05-03T08:08:47Z</time></trkpt><trkpt lat="39.50202901075138" lon="8.967076006852391"><ele>123.5</ele><time>2026-05-03T08:08:49Z</time></trkpt><trkpt lat="39.501928463660214" lon="8.966988610727581"><ele>123.0</ele><time>2026-05-03T08:08:51Z</time></trkpt><trkpt lat="39.501828089296005" lon="8.96690243859606"><ele>123.0</ele><time>2026-05-03T08:08:53Z</time></trkpt><trkpt lat="39.50173244578292" lon="8.966825046665745"><ele>123.00000000000001</ele><time>2026-05-03T08:08:55Z</time></trkpt><trkpt lat="39.50163954202622" lon="8.966759362565835"><ele>123.00000000000001</ele><time>2026-05-03T08:08:57Z</time></trkpt><trkpt lat="39.50154651699212" lon="8.966696092267837"><ele>123.0</ele><time>2026-05-03T08:08:59Z</time></trkpt><trkpt lat="39.50146045865935" lon="8.96660791755113"><ele>123.0</ele><time>2026-05-03T08:09:01Z</time></trkpt><trkpt lat="39.501353081500206" lon="8.966619066804594"><ele>123.4</ele><time>2026-05-03T08:09:03Z</time></trkpt><trkpt lat="39.50125211687439" lon="8.966599925632003"><ele>123.80000000000001</ele><time>2026-05-03T08:09:05Z</time></trkpt><trkpt lat="39.50114766707768" lon="8.966583018364325"><ele>124.2</ele><time>2026-05-03T08:09:07Z</time></trkpt><trkpt lat="39.5010408087319" lon="8.966582382210344"><ele>124.6</ele><time>2026-05-03T08:09:09Z</time></trkpt><trkpt lat="39.50093479372403" lon="8.966581887938313"><ele>125.0</ele><time>2026-05-03T08:09:11Z</time></trkpt><trkpt lat="39.50082854515059" lon="8.966584568517526"><ele>124.4</ele><time>2026-05-03T08:09:13Z</time></trkpt><trkpt lat="39.500720648465546" lon="8.966586780302114"><ele>123.8</ele><time>2026-05-03T08:09:15Z</time></trkpt><trkpt lat="39.50061087270065" lon="8.966591716213058"><ele>123.19999999999999</ele><time>2026-05-03T08:09:17Z</time></trkpt><trkpt lat="39.50050224917699" lon="8.966600552020841"><ele>122.6</ele><time>2026-05-03T08:09:19Z</time></trkpt><trkpt lat="39.50040116068497" lon="8.966608634824658"><ele>122.0</ele><time>2026-05-03T08:09:21Z</time></trkpt><trkpt lat="39.500299723567345" lon="8.96660610588766"><ele>122.0</ele><time>2026-05-03T08:09:23Z</time></trkpt><trkpt lat="39.50019522593756" lon="8.966607677024395"><ele>121.99999999999999</ele><time>2026-05-03T08:09:25Z</time></trkpt><trkpt lat="39.50008571059718" lon="8.966612445742646"><ele>121.99999999999999</ele><time>2026-05-03T08:09:27Z</time></trkpt><trkpt lat="39.4999749640028" lon="8.966617788420177"><ele>122.0</ele><time>2026-05-03T08:09:29Z</time></trkpt><trkpt lat="39.499863060702936" lon="8.966618359322283"><ele>122.0</ele><time>2026-05-03T08:09:31Z</time></trkpt><trkpt lat="39.49974933428107" lon="8.966611212285963"><ele>122.0</ele><time>2026-05-03T08:09:33Z</time></trkpt><trkpt lat="39.49963127197385" lon="8.966597870826265"><ele>122.0</ele><time>2026-05-03T08:09:35Z</time></trkpt><trkpt lat="39.49951183860659" lon="8.966589530759117"><ele>122.0</ele><time>2026-05-03T08:09:37Z</time></trkpt><trkpt lat="39.49939346980204" lon="8.966572929969699"><ele>122.0</ele><time>2026-05-03T08:09:39Z</time></trkpt><trkpt lat="39.49927093219386" lon="8.966563115795523"><ele>121.0</ele><time>2026-05-03T08:09:41Z</time></trkpt><trkpt lat="39.49915154371232" lon="8.966551065017107"><ele>120.0</ele><time>2026-05-03T08:09:43Z</time></trkpt><trkpt lat="39.49903206677494" lon="8.966539690562529"><ele>119.0</ele><time>2026-05-03T08:09:45Z</time></trkpt><trkpt lat="39.49890946216926" lon="8.9665302897561"><ele>118.0</ele><time>2026-05-03T08:09:47Z</time></trkpt><trkpt lat="39.49878835537821" lon="8.966523291640629"><ele>118.0</ele><time>2026-05-03T08:09:49Z</time></trkpt><trkpt lat="39.49867259342302" lon="8.96650913041155"><ele>118.0</ele><time>2026-05-03T08:09:51Z</time></trkpt><trkpt lat="39.498556369747" lon="8.966501847421219"><ele>118.0</ele><time>2026-05-03T08:09:53Z</time></trkpt><trkpt lat="39.49844296885726" lon="8.966486435039371"><ele>118.0</ele><time>2026-05-03T08:09:55Z</time></trkpt><trkpt lat="39.49833148744229" lon="8.966474387416655"><ele>118.0</ele><time>2026-05-03T08:09:57Z</time></trkpt><trkpt lat="39.498224128218524" lon="8.96646506109334"><ele>118.00000000000001</ele><time>2026-05-03T08:09:59Z</time></trkpt><trkpt lat="39.49812252556798" lon="8.966453722398896"><ele>118.00000000000001</ele><time>2026-05-03T08:10:01Z</time></trkpt><trkpt lat="39.49801985499554" lon="8.966448872237624"><ele>118.0</ele><time>2026-05-03T08:10:03Z</time></trkpt><trkpt lat="39.49791758322935" lon="8.966441697191662"><ele>118.0</ele><time>2026-05-03T08:10:05Z</time></trkpt><trkpt lat="39.49781224896798" lon="8.966435900911087"><ele>118.2</ele><time>2026-05-03T08:10:07Z</time></trkpt><trkpt lat="39.49770393616076" lon="8.96643011495154"><ele>118.4</ele><time>2026-05-03T08:10:09Z</time></trkpt><trkpt lat="39.49759454819058" lon="8.966411314656309"><ele>118.60000000000001</ele><time>2026-05-03T08:10:11Z</time></trkpt><trkpt lat="39.4974842058773" lon="8.966394317119207"><ele>118.80000000000001</ele><time>2026-05-03T08:10:13Z</time></trkpt><trkpt lat="39.49737335957739" lon="8.966371898317112"><ele>119.0</ele><time>2026-05-03T08:10:15Z</time></trkpt><trkpt lat="39.49726104437922" lon="8.96635927538961"><ele>119.0</ele><time>2026-05-03T08:10:17Z</time></trkpt><trkpt lat="39.497145755101684" lon="8.966352613349912"><ele>119.0</ele><time>2026-05-03T08:10:19Z</time></trkpt><trkpt lat="39.49703252587819" lon="8.966351077434227"><ele>119.0</ele><time>2026-05-03T08:10:21Z</time></trkpt><trkpt lat="39.49691957715127" lon="8.966350581265894"><ele>119.0</ele><time>2026-05-03T08:10:23Z</time></trkpt><trkpt lat="39.49681444430263" lon="8.966356200862126"><ele>119.0</ele><time>2026-05-03T08:10:25Z</time></trkpt><trkpt lat="39.496705959327706" lon="8.966376895452964"><ele>118.6</ele><time>2026-05-03T08:10:27Z</time></trkpt><trkpt lat="39.496605492705925" lon="8.966424785557848"><ele>118.2</ele><time>2026-05-03T08:10:29Z</time></trkpt><trkpt lat="39.49651559400982" lon="8.96647790211231"><ele>117.79999999999998</ele><time>2026-05-03T08:10:31Z</time></trkpt><trkpt lat="39.496427891828844" lon="8.966532655772093"><ele>117.39999999999999</ele><time>2026-05-03T08:10:33Z</time></trkpt><trkpt lat="39.496348288892975" lon="8.966600978817066"><ele>117.0</ele><time>2026-05-03T08:10:35Z</time></trkpt><trkpt lat="39.496272803865054" lon="8.966668486217761"><ele>117.0</ele><time>2026-05-03T08:10:37Z</time></trkpt><trkpt lat="39.49619966976458" lon="8.966741269838083"><ele>116.99999999999999</ele><time>2026-05-03T08:10:39Z</time></trkpt><trkpt lat="39.49612395264503" lon="8.966831166812675"><ele>116.99999999999999</ele><time>2026-05-03T08:10:41Z</time></trkpt><trkpt lat="39.496047575738736" lon="8.966922015081815"><ele>117.0</ele><time>2026-05-03T08:10:43Z</time></trkpt><trkpt lat="39.49597956348767" lon="8.967021705278828"><ele>117.0</ele><time>2026-05-03T08:10:45Z</time></trkpt><trkpt lat="39.495910335563266" lon="8.967114663598915"><ele>117.0</ele><time>2026-05-03T08:10:47Z</time></trkpt><trkpt lat="39.495843027687606" lon="8.967205558781439"><ele>116.99999999999999</ele><time>2026-05-03T08:10:49Z</time></trkpt><trkpt lat="39.49576915112989" lon="8.967303324544641"><ele>116.99999999999999</ele><time>2026-05-03T08:10:51Z</time></trkpt><trkpt lat="39.495704046627985" lon="8.967400124230075"><ele>117.0</ele><time>2026-05-03T08:10:53Z</time></trkpt><trkpt lat="39.49563641314218" lon="8.967499178177448"><ele>117.0</ele><time>2026-05-03T08:10:55Z</time></trkpt><trkpt lat="39.49556824429216" lon="8.967590912836595"><ele>116.6</ele><time>2026-05-03T08:10:57Z</time></trkpt><trkpt lat="39.49549659668828" lon="8.967685207675512"><ele>116.19999999999999</ele><time>2026-05-03T08:10:59Z</time></trkpt><trkpt lat="39.495431046366036" lon="8.967779938680875"><ele>115.8</ele><time>2026-05-03T08:11:01Z</time></trkpt><trkpt lat="39.495366219409604" lon="8.967875509167902"><ele>115.4</ele><time>2026-05-03T08:11:03Z</time></trkpt><trkpt lat="39.4953054091944" lon="8.967974602407937"><ele>115.0</ele><time>2026-05-03T08:11:05Z</time></trkpt><trkpt lat="39.49524970118067" lon="8.968080132787172"><ele>115.0</ele><time>2026-05-03T08:11:07Z</time></trkpt><trkpt lat="39.495194129287285" lon="8.96818697848903"><ele>115.0</ele><time>2026-05-03T08:11:09Z</time></trkpt><trkpt lat="39.495145047606684" lon="8.968299214603325"><ele>115.0</ele><time>2026-05-03T08:11:11Z</time></trkpt><trkpt lat="39.49509914006755" lon="8.968418446835285"><ele>115.0</ele><time>2026-05-03T08:11:13Z</time></trkpt><trkpt lat="39.49505747655564" lon="8.96853247205287"><ele>115.0</ele><time>2026-05-03T08:11:15Z</time></trkpt><trkpt lat="39.49501350828705" lon="8.96864391176324"><ele>115.00000000000001</ele><time>2026-05-03T08:11:17Z</time></trkpt><trkpt lat="39.49497156447614" lon="8.968753229728454"><ele>115.0</ele><time>2026-05-03T08:11:19Z</time></trkpt><trkpt lat="39.49493464606964" lon="8.968856406250302"><ele>115.0</ele><time>2026-05-03T08:11:21Z</time></trkpt><trkpt lat="39.4948905510917" lon="8.968939417283359"><ele>115.0</ele><time>2026-05-03T08:11:23Z</time></trkpt><trkpt lat="39.49480416588992" lon="8.968933221619515"><ele>115.00000000000001</ele><time>2026-05-03T08:11:25Z</time></trkpt><trkpt lat="39.49472812240474" lon="8.968898986467487"><ele>115.0</ele><time>2026-05-03T08:11:27Z</time></trkpt><trkpt lat="39.49463906033748" lon="8.96887165312546"><ele>114.66666666666667</ele><time>2026-05-03T08:11:29Z</time></trkpt><trkpt lat="39.49454581917049" lon="8.968866547244463"><ele>114.33333333333334</ele><time>2026-05-03T08:11:31Z</time></trkpt><trkpt lat="39.494456030235504" lon="8.968893195578348"><ele>114.0</ele><time>2026-05-03T08:11:33Z</time></trkpt><trkpt lat="39.494368879784595" lon="8.968925789154833"><ele>113.66666666666666</ele><time>2026-05-03T08:11:35Z</time></trkpt><trkpt lat="39.49428341257393" lon="8.968950193588537"><ele>113.33333333333333</ele><time>2026-05-03T08:11:37Z</time></trkpt><trkpt lat="39.49420722791649" lon="8.96898315481231"><ele>113.0</ele><time>2026-05-03T08:11:39Z</time></trkpt><trkpt lat="39.49413987887001" lon="8.969001351763145"><ele>113.0</ele><time>2026-05-03T08:11:41Z</time></trkpt><trkpt lat="39.49406634877558" lon="8.968973339645322"><ele>113.0</ele><time>2026-05-03T08:11:44Z</time></trkpt><trkpt lat="39.494026071110476" lon="8.968898503171339"><ele>113.0</ele><time>2026-05-03T08:11:48Z</time></trkpt><trkpt lat="39.493957911402546" lon="8.96888923303596"><ele>113.0</ele><time>2026-05-03T08:11:51Z</time></trkpt><trkpt lat="39.4938862343924" lon="8.968942596654866"><ele>113.0</ele><time>2026-05-03T08:11:53Z</time></trkpt><trkpt lat="39.493825510071844" lon="8.96898531028319"><ele>113.0</ele><time>2026-05-03T08:11:55Z</time></trkpt><trkpt lat="39.49377330632317" lon="8.96904578258748"><ele>113.0</ele><time>2026-05-03T08:11:57Z</time></trkpt><trkpt lat="39.493727161748005" lon="8.969112133918461"><ele>112.85714285714286</ele><time>2026-05-03T08:11:59Z</time></trkpt><trkpt lat="39.493680161476156" lon="8.969180487161076"><ele>112.71428571428571</ele><time>2026-05-03T08:12:01Z</time></trkpt><trkpt lat="39.49363384872675" lon="8.96924714826975"><ele>112.57142857142857</ele><time>2026-05-03T08:12:03Z</time></trkpt><trkpt lat="39.49358283796012" lon="8.969311673993051"><ele>112.42857142857143</ele><time>2026-05-03T08:12:05Z</time></trkpt><trkpt lat="39.49353072639108" lon="8.969376550166142"><ele>112.28571428571428</ele><time>2026-05-03T08:12:07Z</time></trkpt><trkpt lat="39.4934730675949" lon="8.969423878306205"><ele>112.14285714285714</ele><time>2026-05-03T08:12:09Z</time></trkpt><trkpt lat="39.49341186025648" lon="8.969457292839143"><ele>112.0</ele><time>2026-05-03T08:12:11Z</time></trkpt><trkpt lat="39.493351596830365" lon="8.969498788582284"><ele>112.0</ele><time>2026-05-03T08:12:13Z</time></trkpt><trkpt lat="39.493290611934825" lon="8.969527081072005"><ele>112.0</ele><time>2026-05-03T08:12:15Z</time></trkpt><trkpt lat="39.49322739914366" lon="8.969548546589746"><ele>112.0</ele><time>2026-05-03T08:12:17Z</time></trkpt><trkpt lat="39.49316401784778" lon="8.969557617017353"><ele>112.0</ele><time>2026-05-03T08:12:19Z</time></trkpt><trkpt lat="39.493099382459455" lon="8.96957080574236"><ele>112.0</ele><time>2026-05-03T08:12:21Z</time></trkpt><trkpt lat="39.4930338826614" lon="8.969573239405909"><ele>112.0</ele><time>2026-05-03T08:12:23Z</time></trkpt><trkpt lat="39.492938801259484" lon="8.969567024584537"><ele>112.0</ele><time>2026-05-03T08:12:26Z</time></trkpt><trkpt lat="39.49287452897594" lon="8.969549854630783"><ele>111.85714285714286</ele><time>2026-05-03T08:12:28Z</time></trkpt><trkpt lat="39.49281168061682" lon="8.969531606177666"><ele>111.71428571428572</ele><time>2026-05-03T08:12:30Z</time></trkpt><trkpt lat="39.49274610722823" lon="8.969495281054263"><ele>111.57142857142857</ele><time>2026-05-03T08:12:32Z</time></trkpt><trkpt lat="39.49268111221792" lon="8.969458595761845"><ele>111.42857142857143</ele><time>2026-05-03T08:12:34Z</time></trkpt><trkpt lat="39.49261864350037" lon="8.969414317055596"><ele>111.28571428571429</ele><time>2026-05-03T08:12:36Z</time></trkpt><trkpt lat="39.49255429274939" lon="8.969355380170498"><ele>111.14285714285714</ele><time>2026-05-03T08:12:38Z</time></trkpt><trkpt lat="39.49249140437772" lon="8.969291394135112"><ele>111.0</ele><time>2026-05-03T08:12:40Z</time></trkpt><trkpt lat="39.492433026436494" lon="8.969223620207286"><ele>111.0</ele><time>2026-05-03T08:12:42Z</time></trkpt><trkpt lat="39.49237550968882" lon="8.969158031122603"><ele>111.0</ele><time>2026-05-03T08:12:44Z</time></trkpt><trkpt lat="39.49231829012968" lon="8.96909106821246"><ele>111.0</ele><time>2026-05-03T08:12:46Z</time></trkpt><trkpt lat="39.49225773834481" lon="8.969017395917525"><ele>111.0</ele><time>2026-05-03T08:12:48Z</time></trkpt><trkpt lat="39.49219886231501" lon="8.968945765218471"><ele>111.0</ele><time>2026-05-03T08:12:50Z</time></trkpt><trkpt lat="39.49213900594864" lon="8.968872257892517"><ele>111.0</ele><time>2026-05-03T08:12:52Z</time></trkpt><trkpt lat="39.49207684302607" lon="8.968796891891994"><ele>111.0</ele><time>2026-05-03T08:12:54Z</time></trkpt><trkpt lat="39.492008096357374" lon="8.96871871914827"><ele>111.0</ele><time>2026-05-03T08:12:56Z</time></trkpt><trkpt lat="39.49194343297941" lon="8.968642269704262"><ele>111.0</ele><time>2026-05-03T08:12:58Z</time></trkpt><trkpt lat="39.491877205215424" lon="8.96856230984485"><ele>111.0</ele><time>2026-05-03T08:13:00Z</time></trkpt><trkpt lat="39.49180723667071" lon="8.968482152685697"><ele>111.0</ele><time>2026-05-03T08:13:02Z</time></trkpt><trkpt lat="39.49173747164908" lon="8.96839729035529"><ele>111.0</ele><time>2026-05-03T08:13:04Z</time></trkpt><trkpt lat="39.49166616382125" lon="8.968307461130303"><ele>111.0</ele><time>2026-05-03T08:13:06Z</time></trkpt><trkpt lat="39.49159893967531" lon="8.968217245179519"><ele>111.0</ele><time>2026-05-03T08:13:08Z</time></trkpt><trkpt lat="39.49153306373002" lon="8.968113392067671"><ele>111.0</ele><time>2026-05-03T08:13:10Z</time></trkpt><trkpt lat="39.49148398666299" lon="8.968003670416682"><ele>111.0</ele><time>2026-05-03T08:13:12Z</time></trkpt><trkpt lat="39.49143988496793" lon="8.967876523726778"><ele>111.0</ele><time>2026-05-03T08:13:14Z</time></trkpt><trkpt lat="39.49140834641631" lon="8.967745948194937"><ele>111.0</ele><time>2026-05-03T08:13:16Z</time></trkpt><trkpt lat="39.49137812948723" lon="8.967613701530329"><ele>111.0</ele><time>2026-05-03T08:13:18Z</time></trkpt><trkpt lat="39.49134465292502" lon="8.967484239824888"><ele>111.0</ele><time>2026-05-03T08:13:20Z</time></trkpt><trkpt lat="39.49131818117934" lon="8.967337230021299"><ele>111.0</ele><time>2026-05-03T08:13:22Z</time></trkpt><trkpt lat="39.49130450780024" lon="8.96718791241736"><ele>110.0</ele><time>2026-05-03T08:13:24Z</time></trkpt><trkpt lat="39.49130013445207" lon="8.967030201203343"><ele>109.0</ele><time>2026-05-03T08:13:26Z</time></trkpt><trkpt lat="39.491293419812514" lon="8.966873437547182"><ele>108.0</ele><time>2026-05-03T08:13:28Z</time></trkpt><trkpt lat="39.4912912190614" lon="8.966787608575876"><ele>107.0</ele><time>2026-05-03T08:13:29Z</time></trkpt><trkpt lat="39.49128483956757" lon="8.96669954610662"><ele>106.0</ele><time>2026-05-03T08:13:30Z</time></trkpt><trkpt lat="39.491251117534404" lon="8.966617024728725"><ele>105.85714285714286</ele><time>2026-05-03T08:13:31Z</time></trkpt><trkpt lat="39.491252912939586" lon="8.966526926343846"><ele>105.71428571428571</ele><time>2026-05-03T08:13:32Z</time></trkpt><trkpt lat="39.49125257709134" lon="8.966438885411668"><ele>105.57142857142857</ele><time>2026-05-03T08:13:33Z</time></trkpt><trkpt lat="39.49125227110999" lon="8.966350543839729"><ele>105.42857142857143</ele><time>2026-05-03T08:13:34Z</time></trkpt><trkpt lat="39.49130497445294" lon="8.966259482794797"><ele>105.28571428571428</ele><time>2026-05-03T08:13:35Z</time></trkpt><trkpt lat="39.491322000023686" lon="8.966170702449647"><ele>105.14285714285714</ele><time>2026-05-03T08:13:36Z</time></trkpt><trkpt lat="39.49135068170429" lon="8.966082991198874"><ele>105.0</ele><time>2026-05-03T08:13:37Z</time></trkpt><trkpt lat="39.49138809242253" lon="8.966002959644616"><ele>105.0</ele><time>2026-05-03T08:13:38Z</time></trkpt><trkpt lat="39.49141747124649" lon="8.965915764633719"><ele>105.0</ele><time>2026-05-03T08:13:39Z</time></trkpt><trkpt lat="39.49146048789132" lon="8.965840935249387"><ele>105.0</ele><time>2026-05-03T08:13:40Z</time></trkpt><trkpt lat="39.49153632296777" lon="8.965799849471514"><ele>105.0</ele><time>2026-05-03T08:13:41Z</time></trkpt><trkpt lat="39.4915973389679" lon="8.96574811523941"><ele>105.0</ele><time>2026-05-03T08:13:42Z</time></trkpt><trkpt lat="39.49165256550902" lon="8.965685842553397"><ele>105.0</ele><time>2026-05-03T08:13:43Z</time></trkpt><trkpt lat="39.491731214548835" lon="8.96567735140092"><ele>105.33333333333333</ele><time>2026-05-03T08:13:44Z</time></trkpt><trkpt lat="39.49180240002127" lon="8.965656847515794"><ele>105.66666666666666</ele><time>2026-05-03T08:13:45Z</time></trkpt><trkpt lat="39.49187032422042" lon="8.965643708237392"><ele>106.0</ele><time>2026-05-03T08:13:46Z</time></trkpt><trkpt lat="39.4919382395698" lon="8.965638862880319"><ele>106.33333333333333</ele><time>2026-05-03T08:13:47Z</time></trkpt><trkpt lat="39.492002628441234" lon="8.965633174352487"><ele>106.66666666666666</ele><time>2026-05-03T08:13:48Z</time></trkpt><trkpt lat="39.49212106349506" lon="8.965583519606092"><ele>107.0</ele><time>2026-05-03T08:13:50Z</time></trkpt><trkpt lat="39.492168758066754" lon="8.965523638845722"><ele>107.49999999999999</ele><time>2026-05-03T08:13:51Z</time></trkpt><trkpt lat="39.49219232230855" lon="8.96543673892268"><ele>108.0</ele><time>2026-05-03T08:13:52Z</time></trkpt><trkpt lat="39.49219055717087" lon="8.965344008987797"><ele>108.5</ele><time>2026-05-03T08:13:53Z</time></trkpt><trkpt lat="39.492184765808766" lon="8.965256782857388"><ele>109.0</ele><time>2026-05-03T08:13:54Z</time></trkpt><trkpt lat="39.49221606169719" lon="8.965103744814764"><ele>109.49999999999999</ele><time>2026-05-03T08:13:56Z</time></trkpt><trkpt lat="39.49226959925208" lon="8.965054864565657"><ele>110.0</ele><time>2026-05-03T08:13:57Z</time></trkpt><trkpt lat="39.49233499968358" lon="8.96504228486503"><ele>110.0</ele><time>2026-05-03T08:13:58Z</time></trkpt><trkpt lat="39.49239791618518" lon="8.965058818781028"><ele>110.0</ele><time>2026-05-03T08:13:59Z</time></trkpt><trkpt lat="39.49250607303153" lon="8.965089422310253"><ele>110.0</ele><time>2026-05-03T08:14:01Z</time></trkpt><trkpt lat="39.49260813579678" lon="8.965110655017668"><ele>110.0</ele><time>2026-05-03T08:14:03Z</time></trkpt><trkpt lat="39.49270465072467" lon="8.96514984425721"><ele>110.0</ele><time>2026-05-03T08:14:05Z</time></trkpt><trkpt lat="39.492802146521726" lon="8.965181519767013"><ele>110.0</ele><time>2026-05-03T08:14:07Z</time></trkpt><trkpt lat="39.49289573908003" lon="8.965225132050223"><ele>110.0</ele><time>2026-05-03T08:14:09Z</time></trkpt><trkpt lat="39.4929875476282" lon="8.965270923025987"><ele>110.0</ele><time>2026-05-03T08:14:11Z</time></trkpt><trkpt lat="39.4930736577656" lon="8.965322351258907"><ele>110.0</ele><time>2026-05-03T08:14:13Z</time></trkpt><trkpt lat="39.49316169900089" lon="8.96538937076272"><ele>110.0</ele><time>2026-05-03T08:14:15Z</time></trkpt><trkpt lat="39.49325019954219" lon="8.965449803940711"><ele>110.6</ele><time>2026-05-03T08:14:17Z</time></trkpt><trkpt lat="39.49333451132244" lon="8.965524957230558"><ele>111.2</ele><time>2026-05-03T08:14:19Z</time></trkpt><trkpt lat="39.493422579425754" lon="8.965594835143998"><ele>111.80000000000001</ele><time>2026-05-03T08:14:21Z</time></trkpt><trkpt lat="39.49350567368642" lon="8.965668908459563"><ele>112.4</ele><time>2026-05-03T08:14:23Z</time></trkpt><trkpt lat="39.493597038085454" lon="8.96574296079751"><ele>113.0</ele><time>2026-05-03T08:14:25Z</time></trkpt><trkpt lat="39.49369507585137" lon="8.965809240827403"><ele>112.75</ele><time>2026-05-03T08:14:27Z</time></trkpt><trkpt lat="39.49380012062409" lon="8.965859609965158"><ele>112.5</ele><time>2026-05-03T08:14:29Z</time></trkpt><trkpt lat="39.49391383078053" lon="8.965883949590514"><ele>112.25</ele><time>2026-05-03T08:14:31Z</time></trkpt><trkpt lat="39.49403087496159" lon="8.965881822000242"><ele>112.0</ele><time>2026-05-03T08:14:33Z</time></trkpt><trkpt lat="39.494147847217484" lon="8.965846390985782"><ele>112.0</ele><time>2026-05-03T08:14:35Z</time></trkpt><trkpt lat="39.4942560296237" lon="8.965788119891316"><ele>112.0</ele><time>2026-05-03T08:14:37Z</time></trkpt><trkpt lat="39.494359741812424" lon="8.965720700007045"><ele>112.0</ele><time>2026-05-03T08:14:39Z</time></trkpt><trkpt lat="39.49446206410681" lon="8.965651761080503"><ele>112.0</ele><time>2026-05-03T08:14:41Z</time></trkpt><trkpt lat="39.4945607906331" lon="8.96558107629751"><ele>112.19999999999999</ele><time>2026-05-03T08:14:43Z</time></trkpt><trkpt lat="39.49465965862297" lon="8.965514377931534"><ele>112.39999999999999</ele><time>2026-05-03T08:14:45Z</time></trkpt><trkpt lat="39.49475742388404" lon="8.96545001993765"><ele>112.60000000000001</ele><time>2026-05-03T08:14:47Z</time></trkpt><trkpt lat="39.49485260870297" lon="8.965386506854959"><ele>112.80000000000001</ele><time>2026-05-03T08:14:49Z</time></trkpt><trkpt lat="39.49494902170544" lon="8.96532444036078"><ele>113.0</ele><time>2026-05-03T08:14:51Z</time></trkpt><trkpt lat="39.49504101935713" lon="8.965261799318263"><ele>113.0</ele><time>2026-05-03T08:14:53Z</time></trkpt><trkpt lat="39.49513415132686" lon="8.965200021303664"><ele>113.00000000000001</ele><time>2026-05-03T08:14:55Z</time></trkpt><trkpt lat="39.495230195964496" lon="8.965143786372533"><ele>113.00000000000001</ele><time>2026-05-03T08:14:57Z</time></trkpt><trkpt lat="39.49532878637979" lon="8.965093024538906"><ele>113.0</ele><time>2026-05-03T08:14:59Z</time></trkpt><trkpt lat="39.49543339911933" lon="8.965040927968614"><ele>113.0</ele><time>2026-05-03T08:15:01Z</time></trkpt><trkpt lat="39.4955408997462" lon="8.964987687168637"><ele>112.66666666666666</ele><time>2026-05-03T08:15:03Z</time></trkpt><trkpt lat="39.495655232197805" lon="8.96493324780771"><ele>112.33333333333333</ele><time>2026-05-03T08:15:05Z</time></trkpt><trkpt lat="39.495714781997506" lon="8.964904083105214"><ele>112.0</ele><time>2026-05-03T08:15:06Z</time></trkpt><trkpt lat="39.4957750170696" lon="8.964872843046729"><ele>111.66666666666666</ele><time>2026-05-03T08:15:07Z</time></trkpt><trkpt lat="39.49583638360572" lon="8.964841747077159"><ele>111.33333333333333</ele><time>2026-05-03T08:15:08Z</time></trkpt><trkpt lat="39.49589798157294" lon="8.964811362239516"><ele>111.0</ele><time>2026-05-03T08:15:09Z</time></trkpt><trkpt lat="39.49596205277759" lon="8.964780068526776"><ele>111.0</ele><time>2026-05-03T08:15:10Z</time></trkpt><trkpt lat="39.49602692141935" lon="8.964749118372966"><ele>111.0</ele><time>2026-05-03T08:15:11Z</time></trkpt><trkpt lat="39.496091466560095" lon="8.964716552011545"><ele>111.0</ele><time>2026-05-03T08:15:12Z</time></trkpt><trkpt lat="39.496158298021506" lon="8.964685512096157"><ele>111.0</ele><time>2026-05-03T08:15:13Z</time></trkpt><trkpt lat="39.49622670677175" lon="8.96465246940189"><ele>111.0</ele><time>2026-05-03T08:15:14Z</time></trkpt><trkpt lat="39.49629463992095" lon="8.964617215107413"><ele>111.0</ele><time>2026-05-03T08:15:15Z</time></trkpt><trkpt lat="39.496362902106576" lon="8.964579143808063"><ele>111.0</ele><time>2026-05-03T08:15:16Z</time></trkpt><trkpt lat="39.496432920426756" lon="8.964544026230335"><ele>111.14285714285714</ele><time>2026-05-03T08:15:17Z</time></trkpt><trkpt lat="39.496504603784864" lon="8.964512296374423"><ele>111.28571428571429</ele><time>2026-05-03T08:15:18Z</time></trkpt><trkpt lat="39.496575613246804" lon="8.96448048709821"><ele>111.42857142857143</ele><time>2026-05-03T08:15:19Z</time></trkpt><trkpt lat="39.49664588971139" lon="8.964447847723495"><ele>111.57142857142857</ele><time>2026-05-03T08:15:20Z</time></trkpt><trkpt lat="39.4967160021321" lon="8.964411294996845"><ele>111.71428571428572</ele><time>2026-05-03T08:15:21Z</time></trkpt><trkpt lat="39.49678410176396" lon="8.964374233198575"><ele>111.85714285714286</ele><time>2026-05-03T08:15:22Z</time></trkpt><trkpt lat="39.49684982643995" lon="8.964338814455214"><ele>112.0</ele><time>2026-05-03T08:15:23Z</time></trkpt><trkpt lat="39.49691280099866" lon="8.964305397863258"><ele>112.0</ele><time>2026-05-03T08:15:24Z</time></trkpt><trkpt lat="39.49697496269109" lon="8.964271673966865"><ele>112.0</ele><time>2026-05-03T08:15:25Z</time></trkpt><trkpt lat="39.497037491454854" lon="8.96423692740287"><ele>112.0</ele><time>2026-05-03T08:15:26Z</time></trkpt><trkpt lat="39.49709934509678" lon="8.964202119140266"><ele>112.0</ele><time>2026-05-03T08:15:27Z</time></trkpt><trkpt lat="39.497162510805126" lon="8.964167978646364"><ele>112.0</ele><time>2026-05-03T08:15:28Z</time></trkpt><trkpt lat="39.49722771964019" lon="8.964129911117068"><ele>112.0</ele><time>2026-05-03T08:15:29Z</time></trkpt><trkpt lat="39.497289309439566" lon="8.964085937347887"><ele>112.0</ele><time>2026-05-03T08:15:30Z</time></trkpt><trkpt lat="39.497348588791304" lon="8.964040851843713"><ele>111.85714285714286</ele><time>2026-05-03T08:15:31Z</time></trkpt><trkpt lat="39.49740825595579" lon="8.963998799531467"><ele>111.71428571428572</ele><time>2026-05-03T08:15:32Z</time></trkpt><trkpt lat="39.49746757166687" lon="8.963958763334652"><ele>111.57142857142857</ele><time>2026-05-03T08:15:33Z</time></trkpt><trkpt lat="39.49752670370883" lon="8.963917058650239"><ele>111.42857142857143</ele><time>2026-05-03T08:15:34Z</time></trkpt><trkpt lat="39.49758130790674" lon="8.96386908250916"><ele>111.28571428571429</ele><time>2026-05-03T08:15:35Z</time></trkpt><trkpt lat="39.49763755352593" lon="8.963819802543838"><ele>111.14285714285714</ele><time>2026-05-03T08:15:36Z</time></trkpt><trkpt lat="39.497695920848756" lon="8.963780110124793"><ele>111.0</ele><time>2026-05-03T08:15:37Z</time></trkpt><trkpt lat="39.497753849088795" lon="8.963733280384833"><ele>111.0</ele><time>2026-05-03T08:15:38Z</time></trkpt><trkpt lat="39.49779139345573" lon="8.963661282754385"><ele>111.0</ele><time>2026-05-03T08:15:39Z</time></trkpt><trkpt lat="39.49780186753034" lon="8.963567556833711"><ele>111.0</ele><time>2026-05-03T08:15:40Z</time></trkpt><trkpt lat="39.497797752515346" lon="8.963475584121595"><ele>111.0</ele><time>2026-05-03T08:15:41Z</time></trkpt><trkpt lat="39.49785784017409" lon="8.963355960377447"><ele>111.0</ele><time>2026-05-03T08:15:43Z</time></trkpt><trkpt lat="39.49791406934231" lon="8.963313905653896"><ele>111.0</ele><time>2026-05-03T08:15:44Z</time></trkpt><trkpt lat="39.49802472765191" lon="8.963236814252305"><ele>110.85714285714285</ele><time>2026-05-03T08:15:46Z</time></trkpt><trkpt lat="39.49808052013616" lon="8.963186277318554"><ele>110.71428571428572</ele><time>2026-05-03T08:15:47Z</time></trkpt><trkpt lat="39.49813506737487" lon="8.96312791491634"><ele>110.57142857142857</ele><time>2026-05-03T08:15:48Z</time></trkpt><trkpt lat="39.49818895910283" lon="8.96306816942143"><ele>110.42857142857142</ele><time>2026-05-03T08:15:49Z</time></trkpt><trkpt lat="39.49824302302028" lon="8.963005382678709"><ele>110.28571428571428</ele><time>2026-05-03T08:15:50Z</time></trkpt><trkpt lat="39.49829522404752" lon="8.962939843983623"><ele>110.14285714285714</ele><time>2026-05-03T08:15:51Z</time></trkpt><trkpt lat="39.49834675997237" lon="8.962877094795985"><ele>110.0</ele><time>2026-05-03T08:15:52Z</time></trkpt><trkpt lat="39.49839497935177" lon="8.962812528418432"><ele>109.99999999999999</ele><time>2026-05-03T08:15:53Z</time></trkpt><trkpt lat="39.49843932232536" lon="8.96274584498861"><ele>110.0</ele><time>2026-05-03T08:15:54Z</time></trkpt><trkpt lat="39.49849454173055" lon="8.962689537914333"><ele>110.0</ele><time>2026-05-03T08:15:55Z</time></trkpt><trkpt lat="39.49854923283061" lon="8.962637073907429"><ele>110.0</ele><time>2026-05-03T08:15:56Z</time></trkpt><trkpt lat="39.49859467659278" lon="8.962575995591914"><ele>109.99999999999999</ele><time>2026-05-03T08:15:57Z</time></trkpt><trkpt lat="39.498679704890634" lon="8.962459140101043"><ele>110.0</ele><time>2026-05-03T08:15:59Z</time></trkpt><trkpt lat="39.49876888979561" lon="8.962358838411355"><ele>110.6</ele><time>2026-05-03T08:16:01Z</time></trkpt><trkpt lat="39.49884569424271" lon="8.962252719259082"><ele>111.2</ele><time>2026-05-03T08:16:03Z</time></trkpt><trkpt lat="39.49892008857012" lon="8.962143751628743"><ele>111.80000000000001</ele><time>2026-05-03T08:16:05Z</time></trkpt><trkpt lat="39.49898502758427" lon="8.962039463416394"><ele>112.4</ele><time>2026-05-03T08:16:07Z</time></trkpt><trkpt lat="39.49905729449895" lon="8.961942294668841"><ele>113.0</ele><time>2026-05-03T08:16:09Z</time></trkpt><trkpt lat="39.499129194622796" lon="8.961841964772816"><ele>113.0</ele><time>2026-05-03T08:16:11Z</time></trkpt><trkpt lat="39.49920280686866" lon="8.961739286234776"><ele>113.00000000000001</ele><time>2026-05-03T08:16:13Z</time></trkpt><trkpt lat="39.49927331332404" lon="8.961640511572103"><ele>113.00000000000001</ele><time>2026-05-03T08:16:15Z</time></trkpt><trkpt lat="39.49934492877816" lon="8.96153940322126"><ele>113.0</ele><time>2026-05-03T08:16:17Z</time></trkpt><trkpt lat="39.49941889041998" lon="8.961444233961835"><ele>113.0</ele><time>2026-05-03T08:16:19Z</time></trkpt><trkpt lat="39.49948868278221" lon="8.961353240312851"><ele>112.0</ele><time>2026-05-03T08:16:21Z</time></trkpt><trkpt lat="39.49955912722061" lon="8.961266934151288"><ele>111.00000000000001</ele><time>2026-05-03T08:16:23Z</time></trkpt><trkpt lat="39.49962518231309" lon="8.961175456715834"><ele>110.00000000000001</ele><time>2026-05-03T08:16:25Z</time></trkpt><trkpt lat="39.49969226049194" lon="8.96108758813036"><ele>109.0</ele><time>2026-05-03T08:16:27Z</time></trkpt><trkpt lat="39.4997367260997" lon="8.960983703165255"><ele>108.0</ele><time>2026-05-03T08:16:29Z</time></trkpt><trkpt lat="39.499775119802294" lon="8.960873627346638"><ele>109.0</ele><time>2026-05-03T08:16:31Z</time></trkpt><trkpt lat="39.49981456828854" lon="8.96076129035146"><ele>110.00000000000001</ele><time>2026-05-03T08:16:33Z</time></trkpt><trkpt lat="39.499853913962475" lon="8.960641791882582"><ele>111.00000000000001</ele><time>2026-05-03T08:16:35Z</time></trkpt><trkpt lat="39.499894028959716" lon="8.960524024214008"><ele>112.0</ele><time>2026-05-03T08:16:37Z</time></trkpt><trkpt lat="39.4999322369967" lon="8.960405607300281"><ele>113.0</ele><time>2026-05-03T08:16:39Z</time></trkpt><trkpt lat="39.49997462651839" lon="8.960294557413219"><ele>112.99999999999999</ele><time>2026-05-03T08:16:41Z</time></trkpt><trkpt lat="39.50001077408773" lon="8.96018734807623"><ele>113.0</ele><time>2026-05-03T08:16:43Z</time></trkpt><trkpt lat="39.500046149867494" lon="8.96008378741234"><ele>113.0</ele><time>2026-05-03T08:16:45Z</time></trkpt><trkpt lat="39.50008186030857" lon="8.959984969578684"><ele>113.0</ele><time>2026-05-03T08:16:47Z</time></trkpt><trkpt lat="39.500117469104914" lon="8.959888855874443"><ele>112.99999999999999</ele><time>2026-05-03T08:16:49Z</time></trkpt><trkpt lat="39.500146635827335" lon="8.959791096773369"><ele>113.0</ele><time>2026-05-03T08:16:51Z</time></trkpt><trkpt lat="39.50016422745261" lon="8.959685123719165"><ele>113.2</ele><time>2026-05-03T08:16:53Z</time></trkpt><trkpt lat="39.50019137949033" lon="8.959568946859024"><ele>113.4</ele><time>2026-05-03T08:16:55Z</time></trkpt><trkpt lat="39.50022381507922" lon="8.959443345665534"><ele>113.60000000000001</ele><time>2026-05-03T08:16:57Z</time></trkpt><trkpt lat="39.50025334534975" lon="8.95931601648931"><ele>113.80000000000001</ele><time>2026-05-03T08:16:59Z</time></trkpt><trkpt lat="39.50027658876678" lon="8.959186882446073"><ele>114.0</ele><time>2026-05-03T08:17:01Z</time></trkpt><trkpt lat="39.500305783911834" lon="8.959063289230714"><ele>113.6</ele><time>2026-05-03T08:17:03Z</time></trkpt><trkpt lat="39.5003327503169" lon="8.958941848462683"><ele>113.2</ele><time>2026-05-03T08:17:05Z</time></trkpt><trkpt lat="39.50034826349457" lon="8.958822351129387"><ele>112.79999999999998</ele><time>2026-05-03T08:17:07Z</time></trkpt><trkpt lat="39.50036612939102" lon="8.958706118593954"><ele>112.39999999999999</ele><time>2026-05-03T08:17:09Z</time></trkpt><trkpt lat="39.50038046673009" lon="8.958580455943899"><ele>112.0</ele><time>2026-05-03T08:17:11Z</time></trkpt><trkpt lat="39.50039312210798" lon="8.958449724440715"><ele>112.39999999999999</ele><time>2026-05-03T08:17:13Z</time></trkpt><trkpt lat="39.500398336237396" lon="8.958314045871846"><ele>112.79999999999998</ele><time>2026-05-03T08:17:15Z</time></trkpt><trkpt lat="39.50040688936147" lon="8.958180605214315"><ele>113.2</ele><time>2026-05-03T08:17:17Z</time></trkpt><trkpt lat="39.50041895225043" lon="8.958046074363995"><ele>113.6</ele><time>2026-05-03T08:17:19Z</time></trkpt><trkpt lat="39.500446345497814" lon="8.957914983498725"><ele>114.0</ele><time>2026-05-03T08:17:21Z</time></trkpt><trkpt lat="39.50048206229891" lon="8.957782830503014"><ele>114.0</ele><time>2026-05-03T08:17:23Z</time></trkpt><trkpt lat="39.50053217316977" lon="8.95764491120244"><ele>114.0</ele><time>2026-05-03T08:17:25Z</time></trkpt><trkpt lat="39.50058702204841" lon="8.957510471919312"><ele>114.0</ele><time>2026-05-03T08:17:27Z</time></trkpt><trkpt lat="39.50063858720201" lon="8.957373308440555"><ele>114.0</ele><time>2026-05-03T08:17:29Z</time></trkpt><trkpt lat="39.50067802715871" lon="8.95723765628237"><ele>113.80000000000001</ele><time>2026-05-03T08:17:31Z</time></trkpt><trkpt lat="39.500713785903756" lon="8.957101077638507"><ele>113.60000000000001</ele><time>2026-05-03T08:17:33Z</time></trkpt><trkpt lat="39.50074669011165" lon="8.956962419830436"><ele>113.4</ele><time>2026-05-03T08:17:35Z</time></trkpt><trkpt lat="39.50077685600887" lon="8.956825057296259"><ele>113.2</ele><time>2026-05-03T08:17:37Z</time></trkpt><trkpt lat="39.500804384766035" lon="8.956685509794132"><ele>113.0</ele><time>2026-05-03T08:17:39Z</time></trkpt><trkpt lat="39.50083090215742" lon="8.956544634463791"><ele>113.0</ele><time>2026-05-03T08:17:41Z</time></trkpt><trkpt lat="39.50085245931672" lon="8.956399448206826"><ele>113.0</ele><time>2026-05-03T08:17:43Z</time></trkpt><trkpt lat="39.500874382894125" lon="8.956254304229002"><ele>113.0</ele><time>2026-05-03T08:17:45Z</time></trkpt><trkpt lat="39.50089611834885" lon="8.956111785919427"><ele>113.0</ele><time>2026-05-03T08:17:47Z</time></trkpt><trkpt lat="39.5009137276172" lon="8.955968502284732"><ele>112.75</ele><time>2026-05-03T08:17:49Z</time></trkpt><trkpt lat="39.50093392825471" lon="8.955824368689845"><ele>112.5</ele><time>2026-05-03T08:17:51Z</time></trkpt><trkpt lat="39.50095195418706" lon="8.955683322313464"><ele>112.25</ele><time>2026-05-03T08:17:53Z</time></trkpt><trkpt lat="39.50096960821099" lon="8.955539253411834"><ele>112.0</ele><time>2026-05-03T08:17:55Z</time></trkpt><trkpt lat="39.500989009600644" lon="8.955392659362596"><ele>112.0</ele><time>2026-05-03T08:17:57Z</time></trkpt><trkpt lat="39.50100923408525" lon="8.955245520282187"><ele>112.0</ele><time>2026-05-03T08:17:59Z</time></trkpt><trkpt lat="39.50102457494261" lon="8.955096962599258"><ele>112.0</ele><time>2026-05-03T08:18:01Z</time></trkpt><trkpt lat="39.50103730743547" lon="8.954947582759386"><ele>112.0</ele><time>2026-05-03T08:18:03Z</time></trkpt><trkpt lat="39.50104248958446" lon="8.954795909607"><ele>111.75</ele><time>2026-05-03T08:18:05Z</time></trkpt><trkpt lat="39.50104326147412" lon="8.954650355123023"><ele>111.5</ele><time>2026-05-03T08:18:07Z</time></trkpt><trkpt lat="39.50102560223221" lon="8.954504618266512"><ele>111.25</ele><time>2026-05-03T08:18:09Z</time></trkpt><trkpt lat="39.50100286246015" lon="8.954358667350148"><ele>111.0</ele><time>2026-05-03T08:18:11Z</time></trkpt><trkpt lat="39.50098014341657" lon="8.954213573888817"><ele>110.75</ele><time>2026-05-03T08:18:13Z</time></trkpt><trkpt lat="39.50095733715838" lon="8.954067058890962"><ele>110.5</ele><time>2026-05-03T08:18:15Z</time></trkpt><trkpt lat="39.500947157936224" lon="8.953921304544139"><ele>110.25</ele><time>2026-05-03T08:18:17Z</time></trkpt><trkpt lat="39.50094325555257" lon="8.95377730740128"><ele>110.0</ele><time>2026-05-03T08:18:19Z</time></trkpt><trkpt lat="39.50093304787749" lon="8.953630590138834"><ele>110.0</ele><time>2026-05-03T08:18:21Z</time></trkpt><trkpt lat="39.50092966361498" lon="8.95348322713543"><ele>110.0</ele><time>2026-05-03T08:18:23Z</time></trkpt><trkpt lat="39.50092377049891" lon="8.95333505230508"><ele>110.0</ele><time>2026-05-03T08:18:25Z</time></trkpt><trkpt lat="39.50091626474197" lon="8.953188898665937"><ele>110.0</ele><time>2026-05-03T08:18:27Z</time></trkpt><trkpt lat="39.50090251134019" lon="8.953046624280027"><ele>110.2</ele><time>2026-05-03T08:18:29Z</time></trkpt><trkpt lat="39.500902452782924" lon="8.95290457258327"><ele>110.4</ele><time>2026-05-03T08:18:31Z</time></trkpt><trkpt lat="39.50090123760356" lon="8.952761133041507"><ele>110.6</ele><time>2026-05-03T08:18:33Z</time></trkpt><trkpt lat="39.50092350875905" lon="8.952624212049411"><ele>110.8</ele><time>2026-05-03T08:18:35Z</time></trkpt><trkpt lat="39.50093641775624" lon="8.952484662646906"><ele>111.0</ele><time>2026-05-03T08:18:37Z</time></trkpt><trkpt lat="39.500957218472664" lon="8.95235184751691"><ele>111.0</ele><time>2026-05-03T08:18:39Z</time></trkpt><trkpt lat="39.50097592205342" lon="8.952221546101095"><ele>111.0</ele><time>2026-05-03T08:18:41Z</time></trkpt><trkpt lat="39.5009664363756" lon="8.952094428537182"><ele>111.0</ele><time>2026-05-03T08:18:43Z</time></trkpt><trkpt lat="39.5009382597418" lon="8.95197203699519"><ele>111.0</ele><time>2026-05-03T08:18:45Z</time></trkpt><trkpt lat="39.500896013283544" lon="8.951860748655179"><ele>111.0</ele><time>2026-05-03T08:18:47Z</time></trkpt><trkpt lat="39.500851634641826" lon="8.951732760900995"><ele>111.0</ele><time>2026-05-03T08:18:49Z</time></trkpt><trkpt lat="39.50080267938915" lon="8.951590768794489"><ele>111.0</ele><time>2026-05-03T08:18:51Z</time></trkpt><trkpt lat="39.500790219519594" lon="8.951510682908392"><ele>111.0</ele><time>2026-05-03T08:18:52Z</time></trkpt><trkpt lat="39.500786924877936" lon="8.95142878873113"><ele>111.0</ele><time>2026-05-03T08:18:53Z</time></trkpt><trkpt lat="39.500787828744286" lon="8.951344945606676"><ele>111.0</ele><time>2026-05-03T08:18:54Z</time></trkpt><trkpt lat="39.50079396083853" lon="8.951262142112453"><ele>111.0</ele><time>2026-05-03T08:18:55Z</time></trkpt><trkpt lat="39.50080201144153" lon="8.951178713770348"><ele>111.0</ele><time>2026-05-03T08:18:56Z</time></trkpt><trkpt lat="39.50081038945364" lon="8.951096068320098"><ele>111.0</ele><time>2026-05-03T08:18:57Z</time></trkpt><trkpt lat="39.50081583240502" lon="8.951012358961643"><ele>111.0</ele><time>2026-05-03T08:18:58Z</time></trkpt><trkpt lat="39.500821699670915" lon="8.950929286802774"><ele>111.0</ele><time>2026-05-03T08:18:59Z</time></trkpt><trkpt lat="39.50083018093694" lon="8.95084365186971"><ele>111.0</ele><time>2026-05-03T08:19:00Z</time></trkpt><trkpt lat="39.50085139864509" lon="8.95068794854665"><ele>111.0</ele><time>2026-05-03T08:19:02Z</time></trkpt><trkpt lat="39.500870900755636" lon="8.95052358196151"><ele>111.0</ele><time>2026-05-03T08:19:04Z</time></trkpt><trkpt lat="39.50087992220877" lon="8.950438034574567"><ele>110.71428571428571</ele><time>2026-05-03T08:19:05Z</time></trkpt><trkpt lat="39.50088855141555" lon="8.950349606843272"><ele>110.42857142857143</ele><time>2026-05-03T08:19:06Z</time></trkpt><trkpt lat="39.500895343343196" lon="8.950264809348212"><ele>110.14285714285714</ele><time>2026-05-03T08:19:07Z</time></trkpt><trkpt lat="39.500908500196786" lon="8.950176299364669"><ele>109.85714285714286</ele><time>2026-05-03T08:19:08Z</time></trkpt><trkpt lat="39.50092365556105" lon="8.950089155829147"><ele>109.57142857142858</ele><time>2026-05-03T08:19:09Z</time></trkpt><trkpt lat="39.50093627798908" lon="8.950000554769897"><ele>109.28571428571429</ele><time>2026-05-03T08:19:10Z</time></trkpt><trkpt lat="39.50094002959945" lon="8.949907645431582"><ele>109.0</ele><time>2026-05-03T08:19:11Z</time></trkpt><trkpt lat="39.50094279570682" lon="8.949817969544913"><ele>109.0</ele><time>2026-05-03T08:19:12Z</time></trkpt><trkpt lat="39.50095374138104" lon="8.94972693810953"><ele>109.0</ele><time>2026-05-03T08:19:13Z</time></trkpt><trkpt lat="39.50096262235707" lon="8.949634887055804"><ele>109.0</ele><time>2026-05-03T08:19:14Z</time></trkpt><trkpt lat="39.500971661275585" lon="8.94953909380247"><ele>109.0</ele><time>2026-05-03T08:19:15Z</time></trkpt><trkpt lat="39.50097748318908" lon="8.949444781430014"><ele>109.0</ele><time>2026-05-03T08:19:16Z</time></trkpt><trkpt lat="39.500982657212155" lon="8.949348502754919"><ele>109.0</ele><time>2026-05-03T08:19:17Z</time></trkpt><trkpt lat="39.50098128194775" lon="8.949253744499352"><ele>109.0</ele><time>2026-05-03T08:19:18Z</time></trkpt><trkpt lat="39.500977850997046" lon="8.949157338897736"><ele>108.85714285714286</ele><time>2026-05-03T08:19:19Z</time></trkpt><trkpt lat="39.500981255926014" lon="8.94905954662312"><ele>108.71428571428572</ele><time>2026-05-03T08:19:20Z</time></trkpt><trkpt lat="39.50098787432733" lon="8.94896273236819"><ele>108.57142857142857</ele><time>2026-05-03T08:19:21Z</time></trkpt><trkpt lat="39.50099680104495" lon="8.948868777357866"><ele>108.42857142857143</ele><time>2026-05-03T08:19:22Z</time></trkpt><trkpt lat="39.501004002796" lon="8.948774773122558"><ele>108.28571428571428</ele><time>2026-05-03T08:19:23Z</time></trkpt><trkpt lat="39.50101107416008" lon="8.948684692350698"><ele>108.14285714285714</ele><time>2026-05-03T08:19:24Z</time></trkpt><trkpt lat="39.50102205793329" lon="8.948591994524088"><ele>108.0</ele><time>2026-05-03T08:19:25Z</time></trkpt><trkpt lat="39.501031087073606" lon="8.948500793876972"><ele>108.0</ele><time>2026-05-03T08:19:26Z</time></trkpt><trkpt lat="39.50104097204427" lon="8.948414650569708"><ele>108.0</ele><time>2026-05-03T08:19:27Z</time></trkpt><trkpt lat="39.501042890788355" lon="8.9483189460433"><ele>108.0</ele><time>2026-05-03T08:19:28Z</time></trkpt><trkpt lat="39.5010396266498" lon="8.9482289702756"><ele>108.0</ele><time>2026-05-03T08:19:29Z</time></trkpt><trkpt lat="39.50103827574869" lon="8.948135167704013"><ele>108.0</ele><time>2026-05-03T08:19:30Z</time></trkpt><trkpt lat="39.50103185089186" lon="8.948039546098304"><ele>108.0</ele><time>2026-05-03T08:19:31Z</time></trkpt><trkpt lat="39.50102130392705" lon="8.947949020751787"><ele>108.0</ele><time>2026-05-03T08:19:32Z</time></trkpt><trkpt lat="39.501008251851324" lon="8.94785588721375"><ele>108.0</ele><time>2026-05-03T08:19:33Z</time></trkpt><trkpt lat="39.50099660739943" lon="8.947763261213801"><ele>108.0</ele><time>2026-05-03T08:19:34Z</time></trkpt><trkpt lat="39.500981110158826" lon="8.947672230051461"><ele>108.0</ele><time>2026-05-03T08:19:35Z</time></trkpt><trkpt lat="39.500965448296355" lon="8.947583092967193"><ele>108.0</ele><time>2026-05-03T08:19:36Z</time></trkpt><trkpt lat="39.50094943727947" lon="8.947488018197653"><ele>108.0</ele><time>2026-05-03T08:19:37Z</time></trkpt><trkpt lat="39.50093710614405" lon="8.947398309831959"><ele>108.0</ele><time>2026-05-03T08:19:38Z</time></trkpt><trkpt lat="39.5009226398129" lon="8.947307843107975"><ele>108.0</ele><time>2026-05-03T08:19:39Z</time></trkpt><trkpt lat="39.50090767983788" lon="8.947218574139379"><ele>107.57142857142857</ele><time>2026-05-03T08:19:40Z</time></trkpt><trkpt lat="39.5008923793647" lon="8.947127611287081"><ele>107.14285714285714</ele><time>2026-05-03T08:19:41Z</time></trkpt><trkpt lat="39.50087792774127" lon="8.947038956775472"><ele>106.71428571428572</ele><time>2026-05-03T08:19:42Z</time></trkpt><trkpt lat="39.50085254663175" lon="8.946956858354204"><ele>106.28571428571428</ele><time>2026-05-03T08:19:43Z</time></trkpt><trkpt lat="39.500828319565684" lon="8.94686689570858"><ele>105.85714285714286</ele><time>2026-05-03T08:19:44Z</time></trkpt><trkpt lat="39.50080646108478" lon="8.946774428830135"><ele>105.42857142857143</ele><time>2026-05-03T08:19:45Z</time></trkpt><trkpt lat="39.50078264532421" lon="8.946686613331968"><ele>105.0</ele><time>2026-05-03T08:19:46Z</time></trkpt><trkpt lat="39.50076175717663" lon="8.946590850710734"><ele>104.83333333333333</ele><time>2026-05-03T08:19:47Z</time></trkpt><trkpt lat="39.50074087447735" lon="8.946496642405677"><ele>104.66666666666666</ele><time>2026-05-03T08:19:48Z</time></trkpt><trkpt lat="39.50071193083036" lon="8.94640200569367"><ele>104.5</ele><time>2026-05-03T08:19:49Z</time></trkpt><trkpt lat="39.50068624119504" lon="8.946312928123305"><ele>104.33333333333333</ele><time>2026-05-03T08:19:50Z</time></trkpt><trkpt lat="39.50067346036049" lon="8.946211557828194"><ele>104.16666666666666</ele><time>2026-05-03T08:19:51Z</time></trkpt><trkpt lat="39.50066796245941" lon="8.946109227185193"><ele>104.0</ele><time>2026-05-03T08:19:52Z</time></trkpt><trkpt lat="39.50066250133369" lon="8.94601164152586"><ele>104.0</ele><time>2026-05-03T08:19:53Z</time></trkpt><trkpt lat="39.50064542750141" lon="8.945917376786172"><ele>104.0</ele><time>2026-05-03T08:19:54Z</time></trkpt><trkpt lat="39.50061885252369" lon="8.94582932933782"><ele>104.0</ele><time>2026-05-03T08:19:55Z</time></trkpt><trkpt lat="39.50060010790945" lon="8.945738059837039"><ele>104.0</ele><time>2026-05-03T08:19:56Z</time></trkpt><trkpt lat="39.50060553851882" lon="8.945639143515637"><ele>104.0</ele><time>2026-05-03T08:19:57Z</time></trkpt><trkpt lat="39.50058722067844" lon="8.945549447790222"><ele>104.0</ele><time>2026-05-03T08:19:58Z</time></trkpt><trkpt lat="39.50057117635308" lon="8.945458357408475"><ele>104.0</ele><time>2026-05-03T08:19:59Z</time></trkpt><trkpt lat="39.500557117635076" lon="8.945366845578274"><ele>103.71428571428571</ele><time>2026-05-03T08:20:00Z</time></trkpt><trkpt lat="39.50054388842932" lon="8.945272666304184"><ele>103.42857142857143</ele><time>2026-05-03T08:20:01Z</time></trkpt><trkpt lat="39.50053090121258" lon="8.945180209672941"><ele>103.14285714285714</ele><time>2026-05-03T08:20:02Z</time></trkpt><trkpt lat="39.500518027383315" lon="8.945088560244413"><ele>102.85714285714286</ele><time>2026-05-03T08:20:03Z</time></trkpt><trkpt lat="39.50050534769514" lon="8.944998292934745"><ele>102.57142857142858</ele><time>2026-05-03T08:20:04Z</time></trkpt><trkpt lat="39.50049224747102" lon="8.944905983168399"><ele>102.28571428571429</ele><time>2026-05-03T08:20:05Z</time></trkpt><trkpt lat="39.500478219385776" lon="8.94481433124955"><ele>102.0</ele><time>2026-05-03T08:20:06Z</time></trkpt><trkpt lat="39.500464524511" lon="8.944724856401951"><ele>102.0</ele><time>2026-05-03T08:20:07Z</time></trkpt><trkpt lat="39.50045075600504" lon="8.944634900473613"><ele>102.0</ele><time>2026-05-03T08:20:08Z</time></trkpt><trkpt lat="39.50043762213171" lon="8.944545055412865"><ele>102.0</ele><time>2026-05-03T08:20:09Z</time></trkpt><trkpt lat="39.500426353626715" lon="8.944453142466413"><ele>102.0</ele><time>2026-05-03T08:20:10Z</time></trkpt><trkpt lat="39.500418145688414" lon="8.944361357760341"><ele>102.0</ele><time>2026-05-03T08:20:11Z</time></trkpt><trkpt lat="39.5003975801564" lon="8.944265806902658"><ele>102.0</ele><time>2026-05-03T08:20:12Z</time></trkpt><trkpt lat="39.500396911929094" lon="8.944167318836024"><ele>102.0</ele><time>2026-05-03T08:20:13Z</time></trkpt><trkpt lat="39.500402435634236" lon="8.944067960623244"><ele>101.85714285714286</ele><time>2026-05-03T08:20:14Z</time></trkpt><trkpt lat="39.50040748107563" lon="8.943970281951538"><ele>101.71428571428572</ele><time>2026-05-03T08:20:15Z</time></trkpt><trkpt lat="39.50040995297844" lon="8.943871565629369"><ele>101.57142857142857</ele><time>2026-05-03T08:20:16Z</time></trkpt><trkpt lat="39.50040854299281" lon="8.943775251096799"><ele>101.42857142857143</ele><time>2026-05-03T08:20:17Z</time></trkpt><trkpt lat="39.50040510146191" lon="8.943681521320434"><ele>101.28571428571428</ele><time>2026-05-03T08:20:18Z</time></trkpt><trkpt lat="39.50040416551563" lon="8.943588809372157"><ele>101.14285714285714</ele><time>2026-05-03T08:20:19Z</time></trkpt><trkpt lat="39.50040649691867" lon="8.943496614474876"><ele>101.0</ele><time>2026-05-03T08:20:20Z</time></trkpt><trkpt lat="39.500409070620385" lon="8.943406493552647"><ele>100.85714285714286</ele><time>2026-05-03T08:20:21Z</time></trkpt><trkpt lat="39.500421132967915" lon="8.943318680564854"><ele>100.71428571428571</ele><time>2026-05-03T08:20:22Z</time></trkpt><trkpt lat="39.50043874646206" lon="8.943231618400455"><ele>100.57142857142858</ele><time>2026-05-03T08:20:23Z</time></trkpt><trkpt lat="39.500455458209714" lon="8.943142099801332"><ele>100.42857142857143</ele><time>2026-05-03T08:20:24Z</time></trkpt><trkpt lat="39.50047236192834" lon="8.943053584955472"><ele>100.28571428571429</ele><time>2026-05-03T08:20:25Z</time></trkpt><trkpt lat="39.500485986161586" lon="8.942961539301995"><ele>100.14285714285715</ele><time>2026-05-03T08:20:26Z</time></trkpt><trkpt lat="39.50049552469137" lon="8.942872278660433"><ele>100.0</ele><time>2026-05-03T08:20:27Z</time></trkpt><trkpt lat="39.500501277233695" lon="8.942779376366655"><ele>100.00000000000001</ele><time>2026-05-03T08:20:28Z</time></trkpt><trkpt lat="39.50050518222083" lon="8.942688936833026"><ele>100.0</ele><time>2026-05-03T08:20:29Z</time></trkpt><trkpt lat="39.500508623910726" lon="8.942598448792273"><ele>100.0</ele><time>2026-05-03T08:20:30Z</time></trkpt><trkpt lat="39.50051384330198" lon="8.942509783360476"><ele>100.0</ele><time>2026-05-03T08:20:31Z</time></trkpt><trkpt lat="39.50051969295023" lon="8.94241941173243"><ele>100.0</ele><time>2026-05-03T08:20:32Z</time></trkpt><trkpt lat="39.50052509852656" lon="8.9423308852795"><ele>100.00000000000001</ele><time>2026-05-03T08:20:33Z</time></trkpt><trkpt lat="39.50053048865578" lon="8.942239044377878"><ele>100.0</ele><time>2026-05-03T08:20:34Z</time></trkpt><trkpt lat="39.50053889658998" lon="8.942145746601819"><ele>99.85714285714286</ele><time>2026-05-03T08:20:35Z</time></trkpt><trkpt lat="39.50054468278495" lon="8.94205162106548"><ele>99.71428571428572</ele><time>2026-05-03T08:20:36Z</time></trkpt><trkpt lat="39.500548049795306" lon="8.941954978332241"><ele>99.57142857142858</ele><time>2026-05-03T08:20:37Z</time></trkpt><trkpt lat="39.500547442617744" lon="8.941858780233442"><ele>99.42857142857143</ele><time>2026-05-03T08:20:38Z</time></trkpt><trkpt lat="39.50053819559621" lon="8.941763480754108"><ele>99.28571428571428</ele><time>2026-05-03T08:20:39Z</time></trkpt><trkpt lat="39.50052368110052" lon="8.941668579002757"><ele>99.14285714285715</ele><time>2026-05-03T08:20:40Z</time></trkpt><trkpt lat="39.50050632632196" lon="8.941576366640628"><ele>99.0</ele><time>2026-05-03T08:20:41Z</time></trkpt><trkpt lat="39.50048517624206" lon="8.941485809388858"><ele>98.85714285714286</ele><time>2026-05-03T08:20:42Z</time></trkpt><trkpt lat="39.500461002927146" lon="8.941397598974454"><ele>98.71428571428571</ele><time>2026-05-03T08:20:43Z</time></trkpt><trkpt lat="39.5004296823585" lon="8.941314959294928"><ele>98.57142857142857</ele><time>2026-05-03T08:20:44Z</time></trkpt><trkpt lat="39.5003978715974" lon="8.94123341146796"><ele>98.42857142857143</ele><time>2026-05-03T08:20:45Z</time></trkpt><trkpt lat="39.500362943348925" lon="8.941155372041305"><ele>98.28571428571428</ele><time>2026-05-03T08:20:46Z</time></trkpt><trkpt lat="39.50032439537058" lon="8.94108025150262"><ele>98.14285714285714</ele><time>2026-05-03T08:20:47Z</time></trkpt><trkpt lat="39.50028502177376" lon="8.941007401413055"><ele>98.0</ele><time>2026-05-03T08:20:48Z</time></trkpt><trkpt lat="39.50024759559217" lon="8.94093675588207"><ele>97.83333333333333</ele><time>2026-05-03T08:20:49Z</time></trkpt><trkpt lat="39.50021160971559" lon="8.940866859321444"><ele>97.66666666666666</ele><time>2026-05-03T08:20:50Z</time></trkpt><trkpt lat="39.50014731081461" lon="8.940730876099446"><ele>97.5</ele><time>2026-05-03T08:20:52Z</time></trkpt><trkpt lat="39.5001223171343" lon="8.940651024342465"><ele>97.33333333333334</ele><time>2026-05-03T08:20:53Z</time></trkpt><trkpt lat="39.50008379435434" lon="8.940583533293992"><ele>97.16666666666667</ele><time>2026-05-03T08:20:54Z</time></trkpt><trkpt lat="39.500039184922855" lon="8.940517451668331"><ele>97.0</ele><time>2026-05-03T08:20:55Z</time></trkpt><trkpt lat="39.500004167849426" lon="8.940445345546872"><ele>97.0</ele><time>2026-05-03T08:20:56Z</time></trkpt><trkpt lat="39.49997288970588" lon="8.940369533157517"><ele>97.0</ele><time>2026-05-03T08:20:57Z</time></trkpt><trkpt lat="39.49994135783149" lon="8.940293781170023"><ele>97.0</ele><time>2026-05-03T08:20:58Z</time></trkpt><trkpt lat="39.49990960606473" lon="8.940218857625712"><ele>97.0</ele><time>2026-05-03T08:20:59Z</time></trkpt><trkpt lat="39.49987846607751" lon="8.940144709977966"><ele>97.0</ele><time>2026-05-03T08:21:00Z</time></trkpt><trkpt lat="39.49984665132174" lon="8.940071676859558"><ele>97.0</ele><time>2026-05-03T08:21:01Z</time></trkpt><trkpt lat="39.499815118429794" lon="8.939998712681037"><ele>97.0</ele><time>2026-05-03T08:21:02Z</time></trkpt><trkpt lat="39.49978053473288" lon="8.93992690706903"><ele>96.83333333333334</ele><time>2026-05-03T08:21:03Z</time></trkpt><trkpt lat="39.49974127050651" lon="8.939859983843338"><ele>96.66666666666667</ele><time>2026-05-03T08:21:04Z</time></trkpt><trkpt lat="39.499703792622654" lon="8.93979028406673"><ele>96.5</ele><time>2026-05-03T08:21:05Z</time></trkpt><trkpt lat="39.49966935563136" lon="8.939721214093042"><ele>96.33333333333334</ele><time>2026-05-03T08:21:06Z</time></trkpt><trkpt lat="39.499606573095626" lon="8.939580721430884"><ele>96.16666666666667</ele><time>2026-05-03T08:21:08Z</time></trkpt><trkpt lat="39.49955540940826" lon="8.93943231261748"><ele>96.0</ele><time>2026-05-03T08:21:10Z</time></trkpt><trkpt lat="39.49950005383938" lon="8.93928821227075"><ele>96.25</ele><time>2026-05-03T08:21:12Z</time></trkpt><trkpt lat="39.4994504197743" lon="8.939139538528375"><ele>96.5</ele><time>2026-05-03T08:21:14Z</time></trkpt><trkpt lat="39.49941150399374" lon="8.938992341592465"><ele>96.75</ele><time>2026-05-03T08:21:16Z</time></trkpt><trkpt lat="39.49937985856113" lon="8.938839835051292"><ele>97.0</ele><time>2026-05-03T08:21:18Z</time></trkpt><trkpt lat="39.499350593986826" lon="8.938698248064439"><ele>97.00000000000001</ele><time>2026-05-03T08:21:20Z</time></trkpt><trkpt lat="39.49934669045427" lon="8.938566305895705"><ele>97.0</ele><time>2026-05-03T08:21:22Z</time></trkpt><trkpt lat="39.49932987010246" lon="8.938446826007466"><ele>97.0</ele><time>2026-05-03T08:21:24Z</time></trkpt><trkpt lat="39.49931889447881" lon="8.938350882214182"><ele>97.0</ele><time>2026-05-03T08:21:26Z</time></trkpt><trkpt lat="39.499313771450794" lon="8.93824937861617"><ele>97.00000000000001</ele><time>2026-05-03T08:21:28Z</time></trkpt><trkpt lat="39.49930266220152" lon="8.938137524833"><ele>97.0</ele><time>2026-05-03T08:21:30Z</time></trkpt><trkpt lat="39.49928281878177" lon="8.938047334748308"><ele>96.6</ele><time>2026-05-03T08:21:32Z</time></trkpt><trkpt lat="39.49927547530416" lon="8.937954149909768"><ele>96.19999999999999</ele><time>2026-05-03T08:21:33Z</time></trkpt><trkpt lat="39.49923744077844" lon="8.937833929820508"><ele>95.8</ele><time>2026-05-03T08:21:35Z</time></trkpt><trkpt lat="39.4991780961113" lon="8.93772335285135"><ele>95.4</ele><time>2026-05-03T08:21:37Z</time></trkpt><trkpt lat="39.499106548647916" lon="8.937617245937775"><ele>95.0</ele><time>2026-05-03T08:21:39Z</time></trkpt><trkpt lat="39.49905584487154" lon="8.937489841717312"><ele>95.0</ele><time>2026-05-03T08:21:41Z</time></trkpt><trkpt lat="39.49897553389787" lon="8.937395018375733"><ele>95.0</ele><time>2026-05-03T08:21:43Z</time></trkpt><trkpt lat="39.49890544524739" lon="8.937275215905833"><ele>95.0</ele><time>2026-05-03T08:21:45Z</time></trkpt><trkpt lat="39.49883249640593" lon="8.937152900827696"><ele>95.0</ele><time>2026-05-03T08:21:47Z</time></trkpt><trkpt lat="39.49878618682254" lon="8.937097569424726"><ele>95.0</ele><time>2026-05-03T08:21:48Z</time></trkpt><trkpt lat="39.49871573599106" lon="8.936981523148878"><ele>94.6</ele><time>2026-05-03T08:21:50Z</time></trkpt><trkpt lat="39.49863567177309" lon="8.9368623198397"><ele>94.2</ele><time>2026-05-03T08:21:52Z</time></trkpt><trkpt lat="39.49858931390551" lon="8.936805594043602"><ele>93.80000000000001</ele><time>2026-05-03T08:21:53Z</time></trkpt><trkpt lat="39.498512046049356" lon="8.936689155022707"><ele>93.4</ele><time>2026-05-03T08:21:55Z</time></trkpt><trkpt lat="39.49843267675789" lon="8.93657222124461"><ele>93.0</ele><time>2026-05-03T08:21:57Z</time></trkpt><trkpt lat="39.49840167281668" lon="8.936499717959205"><ele>93.0</ele><time>2026-05-03T08:21:58Z</time></trkpt><trkpt lat="39.498341031565765" lon="8.936367498091943"><ele>93.0</ele><time>2026-05-03T08:22:00Z</time></trkpt><trkpt lat="39.49826842548363" lon="8.936248178032077"><ele>93.0</ele><time>2026-05-03T08:22:02Z</time></trkpt><trkpt lat="39.498195343551274" lon="8.936129942044609"><ele>93.0</ele><time>2026-05-03T08:22:04Z</time></trkpt><trkpt lat="39.498122663430614" lon="8.936017586271669"><ele>93.0</ele><time>2026-05-03T08:22:06Z</time></trkpt><trkpt lat="39.49804707189407" lon="8.935909204965286"><ele>93.0</ele><time>2026-05-03T08:22:08Z</time></trkpt><trkpt lat="39.49796891720293" lon="8.935804195092526"><ele>93.0</ele><time>2026-05-03T08:22:10Z</time></trkpt><trkpt lat="39.4978859942863" lon="8.935706563429584"><ele>93.0</ele><time>2026-05-03T08:22:12Z</time></trkpt><trkpt lat="39.497803826832424" lon="8.935606981933882"><ele>93.2</ele><time>2026-05-03T08:22:14Z</time></trkpt><trkpt lat="39.497734073023864" lon="8.93548832305795"><ele>93.4</ele><time>2026-05-03T08:22:16Z</time></trkpt><trkpt lat="39.49763679944786" lon="8.935414669627459"><ele>93.60000000000001</ele><time>2026-05-03T08:22:18Z</time></trkpt><trkpt lat="39.497553895202515" lon="8.935318602634737"><ele>93.80000000000001</ele><time>2026-05-03T08:22:20Z</time></trkpt><trkpt lat="39.49747486412146" lon="8.935221087756563"><ele>94.0</ele><time>2026-05-03T08:22:22Z</time></trkpt><trkpt lat="39.4973991686116" lon="8.935123863816052"><ele>94.2</ele><time>2026-05-03T08:22:24Z</time></trkpt><trkpt lat="39.49732524927579" lon="8.935026298908527"><ele>94.4</ele><time>2026-05-03T08:22:26Z</time></trkpt><trkpt lat="39.49725605769252" lon="8.934922385033286"><ele>94.6</ele><time>2026-05-03T08:22:28Z</time></trkpt><trkpt lat="39.49718365020839" lon="8.934823385613251"><ele>94.8</ele><time>2026-05-03T08:22:30Z</time></trkpt><trkpt lat="39.49711391090695" lon="8.934723481173727"><ele>95.0</ele><time>2026-05-03T08:22:32Z</time></trkpt><trkpt lat="39.49704438627155" lon="8.93462270171099"><ele>95.0</ele><time>2026-05-03T08:22:34Z</time></trkpt><trkpt lat="39.49697734065315" lon="8.934526558584858"><ele>95.0</ele><time>2026-05-03T08:22:36Z</time></trkpt><trkpt lat="39.496913593396826" lon="8.934431389931792"><ele>95.0</ele><time>2026-05-03T08:22:38Z</time></trkpt><trkpt lat="39.49684937248235" lon="8.934336986777154"><ele>95.0</ele><time>2026-05-03T08:22:40Z</time></trkpt><trkpt lat="39.496784369834224" lon="8.934247424176203"><ele>95.0</ele><time>2026-05-03T08:22:42Z</time></trkpt><trkpt lat="39.49672304797637" lon="8.934157101941043"><ele>95.4</ele><time>2026-05-03T08:22:44Z</time></trkpt><trkpt lat="39.496661101459985" lon="8.934073390111784"><ele>95.8</ele><time>2026-05-03T08:22:46Z</time></trkpt><trkpt lat="39.49659467009505" lon="8.933992508496496"><ele>96.19999999999999</ele><time>2026-05-03T08:22:48Z</time></trkpt><trkpt lat="39.49652408233292" lon="8.933908050110643"><ele>96.6</ele><time>2026-05-03T08:22:50Z</time></trkpt><trkpt lat="39.496451463296104" lon="8.93381973288639"><ele>97.0</ele><time>2026-05-03T08:22:52Z</time></trkpt><trkpt lat="39.49637196148127" lon="8.933734123413025"><ele>97.0</ele><time>2026-05-03T08:22:54Z</time></trkpt><trkpt lat="39.49629174126742" lon="8.933646094766722"><ele>97.0</ele><time>2026-05-03T08:22:56Z</time></trkpt><trkpt lat="39.4962074064434" lon="8.93355485896778"><ele>97.0</ele><time>2026-05-03T08:22:58Z</time></trkpt><trkpt lat="39.49611836876663" lon="8.93346734241029"><ele>97.0</ele><time>2026-05-03T08:23:00Z</time></trkpt><trkpt lat="39.49602693615317" lon="8.933380887469406"><ele>97.0</ele><time>2026-05-03T08:23:02Z</time></trkpt><trkpt lat="39.49594352674637" lon="8.93328695357117"><ele>96.6</ele><time>2026-05-03T08:23:04Z</time></trkpt><trkpt lat="39.49586007719887" lon="8.93319663330084"><ele>96.19999999999999</ele><time>2026-05-03T08:23:06Z</time></trkpt><trkpt lat="39.4957812304697" lon="8.933108111175331"><ele>95.8</ele><time>2026-05-03T08:23:08Z</time></trkpt><trkpt lat="39.49570495801313" lon="8.933015881762103"><ele>95.4</ele><time>2026-05-03T08:23:10Z</time></trkpt><trkpt lat="39.49562968979528" lon="8.932925786745443"><ele>95.0</ele><time>2026-05-03T08:23:12Z</time></trkpt><trkpt lat="39.49555835645342" lon="8.932828869058596"><ele>95.0</ele><time>2026-05-03T08:23:14Z</time></trkpt><trkpt lat="39.49548953696559" lon="8.932727715707628"><ele>95.0</ele><time>2026-05-03T08:23:16Z</time></trkpt><trkpt lat="39.495420358738926" lon="8.932621078244402"><ele>95.0</ele><time>2026-05-03T08:23:18Z</time></trkpt><trkpt lat="39.49535448432546" lon="8.932516216039717"><ele>95.0</ele><time>2026-05-03T08:23:20Z</time></trkpt><trkpt lat="39.495292748651636" lon="8.932410593641185"><ele>95.0</ele><time>2026-05-03T08:23:22Z</time></trkpt><trkpt lat="39.495230925579754" lon="8.932302999399255"><ele>95.4</ele><time>2026-05-03T08:23:24Z</time></trkpt><trkpt lat="39.49516412346592" lon="8.932208514291343"><ele>95.8</ele><time>2026-05-03T08:23:26Z</time></trkpt><trkpt lat="39.495103045613696" lon="8.932105623964045"><ele>96.19999999999999</ele><time>2026-05-03T08:23:28Z</time></trkpt><trkpt lat="39.49503704319513" lon="8.932009160312477"><ele>96.6</ele><time>2026-05-03T08:23:30Z</time></trkpt><trkpt lat="39.49496998530886" lon="8.931909531301779"><ele>97.0</ele><time>2026-05-03T08:23:32Z</time></trkpt><trkpt lat="39.49490098215207" lon="8.931808328992588"><ele>97.19999999999999</ele><time>2026-05-03T08:23:34Z</time></trkpt><trkpt lat="39.49482837584871" lon="8.931718875155573"><ele>97.4</ele><time>2026-05-03T08:23:36Z</time></trkpt><trkpt lat="39.49475754801853" lon="8.931628168012713"><ele>97.6</ele><time>2026-05-03T08:23:38Z</time></trkpt><trkpt lat="39.49468593568187" lon="8.931539996822222"><ele>97.80000000000001</ele><time>2026-05-03T08:23:40Z</time></trkpt><trkpt lat="39.49461199643584" lon="8.931453907939732"><ele>98.0</ele><time>2026-05-03T08:23:42Z</time></trkpt><trkpt lat="39.494539779285255" lon="8.931369954830558"><ele>98.0</ele><time>2026-05-03T08:23:44Z</time></trkpt><trkpt lat="39.49446751914939" lon="8.931281353045232"><ele>98.0</ele><time>2026-05-03T08:23:46Z</time></trkpt><trkpt lat="39.494395726680196" lon="8.931192556054224"><ele>98.0</ele><time>2026-05-03T08:23:48Z</time></trkpt><trkpt lat="39.494322210648065" lon="8.931108512689104"><ele>98.0</ele><time>2026-05-03T08:23:50Z</time></trkpt><trkpt lat="39.49424943763552" lon="8.931022790685875"><ele>98.0</ele><time>2026-05-03T08:23:52Z</time></trkpt><trkpt lat="39.49417573856201" lon="8.93093786574646"><ele>98.0</ele><time>2026-05-03T08:23:54Z</time></trkpt><trkpt lat="39.49410449875816" lon="8.930850009413856"><ele>98.0</ele><time>2026-05-03T08:23:56Z</time></trkpt><trkpt lat="39.49403062874797" lon="8.930764395207001"><ele>98.0</ele><time>2026-05-03T08:23:58Z</time></trkpt><trkpt lat="39.49395907052228" lon="8.930680384300858"><ele>98.0</ele><time>2026-05-03T08:24:00Z</time></trkpt><trkpt lat="39.49388780374202" lon="8.930598603986127"><ele>98.0</ele><time>2026-05-03T08:24:02Z</time></trkpt><trkpt lat="39.4938165908555" lon="8.93051440895893"><ele>97.80000000000001</ele><time>2026-05-03T08:24:04Z</time></trkpt><trkpt lat="39.493744510442525" lon="8.930433830057979"><ele>97.6</ele><time>2026-05-03T08:24:06Z</time></trkpt><trkpt lat="39.4936746400302" lon="8.93034798356727"><ele>97.4</ele><time>2026-05-03T08:24:08Z</time></trkpt><trkpt lat="39.493601162755695" lon="8.930267626083"><ele>97.19999999999999</ele><time>2026-05-03T08:24:10Z</time></trkpt><trkpt lat="39.49352817891012" lon="8.930188323269455"><ele>97.0</ele><time>2026-05-03T08:24:12Z</time></trkpt><trkpt lat="39.49345557833665" lon="8.930103868235722"><ele>97.19999999999999</ele><time>2026-05-03T08:24:14Z</time></trkpt><trkpt lat="39.49338294827409" lon="8.930019737709868"><ele>97.4</ele><time>2026-05-03T08:24:16Z</time></trkpt><trkpt lat="39.493309640192635" lon="8.92993464501726"><ele>97.6</ele><time>2026-05-03T08:24:18Z</time></trkpt><trkpt lat="39.49323291182982" lon="8.929851601056761"><ele>97.80000000000001</ele><time>2026-05-03T08:24:20Z</time></trkpt><trkpt lat="39.49315418920537" lon="8.929771614123537"><ele>98.0</ele><time>2026-05-03T08:24:22Z</time></trkpt><trkpt lat="39.49307368482199" lon="8.929698627319617"><ele>98.0</ele><time>2026-05-03T08:24:24Z</time></trkpt><trkpt lat="39.492990568883066" lon="8.92962922389124"><ele>98.0</ele><time>2026-05-03T08:24:26Z</time></trkpt><trkpt lat="39.492904309185015" lon="8.92956594590353"><ele>98.0</ele><time>2026-05-03T08:24:28Z</time></trkpt><trkpt lat="39.49281514589495" lon="8.929503499127243"><ele>98.0</ele><time>2026-05-03T08:24:30Z</time></trkpt><trkpt lat="39.492727031757596" lon="8.929445145753105"><ele>98.0</ele><time>2026-05-03T08:24:32Z</time></trkpt><trkpt lat="39.492638620632675" lon="8.929384899263477"><ele>97.80000000000001</ele><time>2026-05-03T08:24:34Z</time></trkpt><trkpt lat="39.49255054220503" lon="8.929322299171131"><ele>97.6</ele><time>2026-05-03T08:24:36Z</time></trkpt><trkpt lat="39.49246349444371" lon="8.929260821525311"><ele>97.4</ele><time>2026-05-03T08:24:38Z</time></trkpt><trkpt lat="39.49237777295216" lon="8.929197568477758"><ele>97.19999999999999</ele><time>2026-05-03T08:24:40Z</time></trkpt><trkpt lat="39.49229301471478" lon="8.929134427643715"><ele>97.0</ele><time>2026-05-03T08:24:42Z</time></trkpt><trkpt lat="39.4922104799123" lon="8.9290703470735"><ele>97.0</ele><time>2026-05-03T08:24:44Z</time></trkpt><trkpt lat="39.49212627417554" lon="8.929006025595019"><ele>97.0</ele><time>2026-05-03T08:24:46Z</time></trkpt><trkpt lat="39.49204310332893" lon="8.928945463021043"><ele>97.0</ele><time>2026-05-03T08:24:48Z</time></trkpt><trkpt lat="39.491971529056904" lon="8.928862981002421"><ele>97.0</ele><time>2026-05-03T08:24:50Z</time></trkpt><trkpt lat="39.49189433038263" lon="8.928788239972295"><ele>97.0</ele><time>2026-05-03T08:24:52Z</time></trkpt><trkpt lat="39.49182100522164" lon="8.928702340887588"><ele>96.8</ele><time>2026-05-03T08:24:54Z</time></trkpt><trkpt lat="39.49174491518863" lon="8.928616512568594"><ele>96.6</ele><time>2026-05-03T08:24:56Z</time></trkpt><trkpt lat="39.491666650578466" lon="8.928532845474978"><ele>96.39999999999999</ele><time>2026-05-03T08:24:58Z</time></trkpt><trkpt lat="39.49158949858855" lon="8.92844996286368"><ele>96.19999999999999</ele><time>2026-05-03T08:25:00Z</time></trkpt><trkpt lat="39.49151148257732" lon="8.92836551742534"><ele>96.0</ele><time>2026-05-03T08:25:02Z</time></trkpt><trkpt lat="39.49143289283902" lon="8.928278280318137"><ele>96.0</ele><time>2026-05-03T08:25:04Z</time></trkpt><trkpt lat="39.49136091638642" lon="8.92818184239856"><ele>96.0</ele><time>2026-05-03T08:25:06Z</time></trkpt><trkpt lat="39.49129493952766" lon="8.92808836616636"><ele>96.0</ele><time>2026-05-03T08:25:08Z</time></trkpt><trkpt lat="39.491239975060225" lon="8.928001594953649"><ele>96.0</ele><time>2026-05-03T08:25:10Z</time></trkpt><trkpt lat="39.491186244758985" lon="8.927910691100857"><ele>96.0</ele><time>2026-05-03T08:25:12Z</time></trkpt><trkpt lat="39.49114080770694" lon="8.927815783351317"><ele>96.19999999999999</ele><time>2026-05-03T08:25:14Z</time></trkpt><trkpt lat="39.4910879921944" lon="8.927710676286669"><ele>96.39999999999999</ele><time>2026-05-03T08:25:16Z</time></trkpt><trkpt lat="39.491040032729195" lon="8.927594028901874"><ele>96.6</ele><time>2026-05-03T08:25:18Z</time></trkpt><trkpt lat="39.49101281901801" lon="8.927465170117468"><ele>96.8</ele><time>2026-05-03T08:25:20Z</time></trkpt><trkpt lat="39.491002698321786" lon="8.927326415886494"><ele>97.0</ele><time>2026-05-03T08:25:22Z</time></trkpt><trkpt lat="39.4910057607863" lon="8.927180376334789"><ele>97.0</ele><time>2026-05-03T08:25:24Z</time></trkpt><trkpt lat="39.491010900326536" lon="8.927027371614267"><ele>97.0</ele><time>2026-05-03T08:25:26Z</time></trkpt><trkpt lat="39.49101967428833" lon="8.926872466193723"><ele>97.0</ele><time>2026-05-03T08:25:28Z</time></trkpt><trkpt lat="39.49103285738809" lon="8.926715718518222"><ele>97.0</ele><time>2026-05-03T08:25:30Z</time></trkpt><trkpt lat="39.491052833688464" lon="8.92656032091402"><ele>96.6</ele><time>2026-05-03T08:25:32Z</time></trkpt><trkpt lat="39.491071308100054" lon="8.926402314962532"><ele>96.19999999999999</ele><time>2026-05-03T08:25:34Z</time></trkpt><trkpt lat="39.491083518636856" lon="8.926240366372411"><ele>95.8</ele><time>2026-05-03T08:25:36Z</time></trkpt><trkpt lat="39.49108288594702" lon="8.926076999988906"><ele>95.4</ele><time>2026-05-03T08:25:38Z</time></trkpt><trkpt lat="39.491077934230674" lon="8.925995547245716"><ele>95.0</ele><time>2026-05-03T08:25:39Z</time></trkpt><trkpt lat="39.4910665604585" lon="8.925913432782487"><ele>94.83333333333334</ele><time>2026-05-03T08:25:40Z</time></trkpt><trkpt lat="39.491051469250735" lon="8.9258309300609"><ele>94.66666666666667</ele><time>2026-05-03T08:25:41Z</time></trkpt><trkpt lat="39.49101429429333" lon="8.925675060411526"><ele>94.5</ele><time>2026-05-03T08:25:43Z</time></trkpt><trkpt lat="39.49099297301954" lon="8.92559715204285"><ele>94.33333333333333</ele><time>2026-05-03T08:25:44Z</time></trkpt><trkpt lat="39.490972727141624" lon="8.925518960541623"><ele>94.16666666666666</ele><time>2026-05-03T08:25:45Z</time></trkpt><trkpt lat="39.49093080231592" lon="8.92536741698668"><ele>94.0</ele><time>2026-05-03T08:25:47Z</time></trkpt><trkpt lat="39.49090974473158" lon="8.925289380702365"><ele>94.0</ele><time>2026-05-03T08:25:48Z</time></trkpt><trkpt lat="39.490869547373435" lon="8.925137834204776"><ele>94.0</ele><time>2026-05-03T08:25:50Z</time></trkpt><trkpt lat="39.490846387390114" lon="8.925061670936303"><ele>94.0</ele><time>2026-05-03T08:25:51Z</time></trkpt><trkpt lat="39.490803258165684" lon="8.9249133843941"><ele>94.0</ele><time>2026-05-03T08:25:53Z</time></trkpt><trkpt lat="39.49075586857891" lon="8.924766523113105"><ele>94.0</ele><time>2026-05-03T08:25:55Z</time></trkpt><trkpt lat="39.49070000260096" lon="8.924626120278152"><ele>93.75</ele><time>2026-05-03T08:25:57Z</time></trkpt><trkpt lat="39.49063286716952" lon="8.924497287475852"><ele>93.5</ele><time>2026-05-03T08:25:59Z</time></trkpt><trkpt lat="39.49055660811266" lon="8.924374860459594"><ele>93.25</ele><time>2026-05-03T08:26:01Z</time></trkpt><trkpt lat="39.49047885162782" lon="8.924254604045046"><ele>93.0</ele><time>2026-05-03T08:26:03Z</time></trkpt><trkpt lat="39.49039883661602" lon="8.92414247222975"><ele>92.25</ele><time>2026-05-03T08:26:05Z</time></trkpt><trkpt lat="39.490320934489525" lon="8.924021723083001"><ele>91.5</ele><time>2026-05-03T08:26:07Z</time></trkpt><trkpt lat="39.49024093584063" lon="8.923907917773418"><ele>90.75</ele><time>2026-05-03T08:26:09Z</time></trkpt><trkpt lat="39.490159648550545" lon="8.923795159906446"><ele>90.0</ele><time>2026-05-03T08:26:11Z</time></trkpt><trkpt lat="39.490079133172124" lon="8.923684390788114"><ele>90.0</ele><time>2026-05-03T08:26:13Z</time></trkpt><trkpt lat="39.489998598324206" lon="8.92357688576105"><ele>90.0</ele><time>2026-05-03T08:26:15Z</time></trkpt><trkpt lat="39.48991669942419" lon="8.92347319925924"><ele>90.0</ele><time>2026-05-03T08:26:17Z</time></trkpt><trkpt lat="39.48983945527576" lon="8.923364571031767"><ele>90.0</ele><time>2026-05-03T08:26:19Z</time></trkpt><trkpt lat="39.48975973433269" lon="8.923266570974679"><ele>90.2</ele><time>2026-05-03T08:26:21Z</time></trkpt><trkpt lat="39.48967812772545" lon="8.923167402463173"><ele>90.4</ele><time>2026-05-03T08:26:23Z</time></trkpt><trkpt lat="39.48959874305389" lon="8.923074123039678"><ele>90.6</ele><time>2026-05-03T08:26:25Z</time></trkpt><trkpt lat="39.48952097701884" lon="8.922979424689753"><ele>90.8</ele><time>2026-05-03T08:26:27Z</time></trkpt><trkpt lat="39.489442734759066" lon="8.92289080033113"><ele>91.0</ele><time>2026-05-03T08:26:29Z</time></trkpt><trkpt lat="39.48936750820315" lon="8.922800235864154"><ele>91.0</ele><time>2026-05-03T08:26:31Z</time></trkpt><trkpt lat="39.48929233974685" lon="8.92271236740169"><ele>91.0</ele><time>2026-05-03T08:26:33Z</time></trkpt><trkpt lat="39.48921713689822" lon="8.922628202923494"><ele>91.0</ele><time>2026-05-03T08:26:35Z</time></trkpt><trkpt lat="39.48914328301557" lon="8.922536054630758"><ele>91.0</ele><time>2026-05-03T08:26:37Z</time></trkpt><trkpt lat="39.48906795337172" lon="8.922446531070506"><ele>91.0</ele><time>2026-05-03T08:26:39Z</time></trkpt><trkpt lat="39.4889930412282" lon="8.922351573460384"><ele>90.8</ele><time>2026-05-03T08:26:41Z</time></trkpt><trkpt lat="39.48891652854099" lon="8.922256827632244"><ele>90.6</ele><time>2026-05-03T08:26:43Z</time></trkpt><trkpt lat="39.488839824763964" lon="8.922167706808866"><ele>90.4</ele><time>2026-05-03T08:26:45Z</time></trkpt><trkpt lat="39.48876480180066" lon="8.922076201257337"><ele>90.2</ele><time>2026-05-03T08:26:47Z</time></trkpt><trkpt lat="39.48868856801469" lon="8.921984340859709"><ele>90.0</ele><time>2026-05-03T08:26:49Z</time></trkpt><trkpt lat="39.488612513596344" lon="8.921892163329854"><ele>89.8</ele><time>2026-05-03T08:26:51Z</time></trkpt><trkpt lat="39.48853652401077" lon="8.92179965113999"><ele>89.6</ele><time>2026-05-03T08:26:53Z</time></trkpt><trkpt lat="39.488461592411475" lon="8.921709549463381"><ele>89.4</ele><time>2026-05-03T08:26:55Z</time></trkpt><trkpt lat="39.48839273230968" lon="8.921614745160337"><ele>89.2</ele><time>2026-05-03T08:26:57Z</time></trkpt><trkpt lat="39.48832578418688" lon="8.921520423868122"><ele>89.0</ele><time>2026-05-03T08:26:59Z</time></trkpt><trkpt lat="39.48826000197727" lon="8.921422242252138"><ele>89.0</ele><time>2026-05-03T08:27:01Z</time></trkpt><trkpt lat="39.488202625043726" lon="8.921318714059536"><ele>89.0</ele><time>2026-05-03T08:27:03Z</time></trkpt><trkpt lat="39.48814652904646" lon="8.9212155608804"><ele>89.0</ele><time>2026-05-03T08:27:05Z</time></trkpt><trkpt lat="39.4880961090245" lon="8.92111078500736"><ele>89.0</ele><time>2026-05-03T08:27:07Z</time></trkpt><trkpt lat="39.48804633664374" lon="8.921005839494446"><ele>89.0</ele><time>2026-05-03T08:27:09Z</time></trkpt><trkpt lat="39.487996426103365" lon="8.920900675303715"><ele>89.2</ele><time>2026-05-03T08:27:11Z</time></trkpt><trkpt lat="39.48794887415177" lon="8.920791893418691"><ele>89.4</ele><time>2026-05-03T08:27:13Z</time></trkpt><trkpt lat="39.48789860679135" lon="8.9206832275482"><ele>89.6</ele><time>2026-05-03T08:27:15Z</time></trkpt><trkpt lat="39.48784581127905" lon="8.920578277630828"><ele>89.8</ele><time>2026-05-03T08:27:17Z</time></trkpt><trkpt lat="39.48779185665247" lon="8.92047277392593"><ele>90.0</ele><time>2026-05-03T08:27:19Z</time></trkpt><trkpt lat="39.48773639460252" lon="8.920366267253538"><ele>90.0</ele><time>2026-05-03T08:27:21Z</time></trkpt><trkpt lat="39.48767172505901" lon="8.920266550334386"><ele>90.0</ele><time>2026-05-03T08:27:23Z</time></trkpt><trkpt lat="39.4876002011726" lon="8.920171468238573"><ele>90.0</ele><time>2026-05-03T08:27:25Z</time></trkpt><trkpt lat="39.48752499457846" lon="8.920075371882984"><ele>90.0</ele><time>2026-05-03T08:27:27Z</time></trkpt><trkpt lat="39.48745480576745" lon="8.919986142441394"><ele>90.0</ele><time>2026-05-03T08:27:29Z</time></trkpt><trkpt lat="39.487388943113224" lon="8.91990231391101"><ele>90.0</ele><time>2026-05-03T08:27:31Z</time></trkpt><trkpt lat="39.48732954595619" lon="8.91982142384002"><ele>90.0</ele><time>2026-05-03T08:27:33Z</time></trkpt><trkpt lat="39.48726728258667" lon="8.919739972949351"><ele>90.0</ele><time>2026-05-03T08:27:35Z</time></trkpt><trkpt lat="39.48720363692098" lon="8.919645398826487"><ele>90.0</ele><time>2026-05-03T08:27:37Z</time></trkpt><trkpt lat="39.487134396471205" lon="8.919547879009793"><ele>90.0</ele><time>2026-05-03T08:27:39Z</time></trkpt><trkpt lat="39.487072026961386" lon="8.919440729163103"><ele>89.6</ele><time>2026-05-03T08:27:41Z</time></trkpt><trkpt lat="39.48700947702936" lon="8.919328843785685"><ele>89.2</ele><time>2026-05-03T08:27:43Z</time></trkpt><trkpt lat="39.486942158424284" lon="8.919218987111675"><ele>88.80000000000001</ele><time>2026-05-03T08:27:45Z</time></trkpt><trkpt lat="39.48687259075635" lon="8.919108489892722"><ele>88.4</ele><time>2026-05-03T08:27:47Z</time></trkpt><trkpt lat="39.486796211588654" lon="8.919004408391098"><ele>88.0</ele><time>2026-05-03T08:27:49Z</time></trkpt><trkpt lat="39.48671510397691" lon="8.918907154363112"><ele>87.80000000000001</ele><time>2026-05-03T08:27:51Z</time></trkpt><trkpt lat="39.48663613277605" lon="8.91881561209831"><ele>87.6</ele><time>2026-05-03T08:27:53Z</time></trkpt><trkpt lat="39.48655281366084" lon="8.91872843931988"><ele>87.4</ele><time>2026-05-03T08:27:55Z</time></trkpt><trkpt lat="39.486470701750754" lon="8.918634577123594"><ele>87.19999999999999</ele><time>2026-05-03T08:27:57Z</time></trkpt><trkpt lat="39.486386311115425" lon="8.918544320129092"><ele>87.0</ele><time>2026-05-03T08:27:59Z</time></trkpt><trkpt lat="39.48630409146259" lon="8.918446918386882"><ele>87.0</ele><time>2026-05-03T08:28:01Z</time></trkpt><trkpt lat="39.486220631804024" lon="8.918352762474013"><ele>87.0</ele><time>2026-05-03T08:28:03Z</time></trkpt><trkpt lat="39.48614217099019" lon="8.918248146988544"><ele>87.0</ele><time>2026-05-03T08:28:05Z</time></trkpt><trkpt lat="39.486065287892146" lon="8.918139574570967"><ele>87.0</ele><time>2026-05-03T08:28:07Z</time></trkpt><trkpt lat="39.48600046870293" lon="8.918025490451216"><ele>87.0</ele><time>2026-05-03T08:28:09Z</time></trkpt><trkpt lat="39.485944076391895" lon="8.917905438329578"><ele>87.0</ele><time>2026-05-03T08:28:11Z</time></trkpt><trkpt lat="39.4858922386405" lon="8.917782731551045"><ele>87.0</ele><time>2026-05-03T08:28:13Z</time></trkpt><trkpt lat="39.48583962082381" lon="8.917654281444939"><ele>87.0</ele><time>2026-05-03T08:28:15Z</time></trkpt><trkpt lat="39.485791789520626" lon="8.91752018708741"><ele>87.0</ele><time>2026-05-03T08:28:17Z</time></trkpt><trkpt lat="39.48574248440451" lon="8.917386078055218"><ele>87.0</ele><time>2026-05-03T08:28:19Z</time></trkpt><trkpt lat="39.485691530385104" lon="8.91725170131179"><ele>87.0</ele><time>2026-05-03T08:28:21Z</time></trkpt><trkpt lat="39.485635758908515" lon="8.917121800816439"><ele>87.0</ele><time>2026-05-03T08:28:23Z</time></trkpt><trkpt lat="39.48557154170826" lon="8.9169941161453"><ele>87.0</ele><time>2026-05-03T08:28:25Z</time></trkpt><trkpt lat="39.48550239344753" lon="8.916870897812101"><ele>87.0</ele><time>2026-05-03T08:28:27Z</time></trkpt><trkpt lat="39.48543280919122" lon="8.916743495161965"><ele>86.8</ele><time>2026-05-03T08:28:29Z</time></trkpt><trkpt lat="39.48536891051401" lon="8.916617184437147"><ele>86.6</ele><time>2026-05-03T08:28:31Z</time></trkpt><trkpt lat="39.485302258872636" lon="8.916504895618687"><ele>86.39999999999999</ele><time>2026-05-03T08:28:33Z</time></trkpt><trkpt lat="39.48523585516476" lon="8.916391796867067"><ele>86.19999999999999</ele><time>2026-05-03T08:28:35Z</time></trkpt><trkpt lat="39.48517954982287" lon="8.916273224675418"><ele>86.0</ele><time>2026-05-03T08:28:37Z</time></trkpt><trkpt lat="39.4851210617395" lon="8.916156968802555"><ele>86.0</ele><time>2026-05-03T08:28:39Z</time></trkpt><trkpt lat="39.485067231795895" lon="8.916042592577679"><ele>86.0</ele><time>2026-05-03T08:28:41Z</time></trkpt><trkpt lat="39.48500639266154" lon="8.915934034730363"><ele>86.0</ele><time>2026-05-03T08:28:43Z</time></trkpt><trkpt lat="39.48494627513448" lon="8.915828038597743"><ele>86.0</ele><time>2026-05-03T08:28:45Z</time></trkpt><trkpt lat="39.48488729918153" lon="8.915717217833457"><ele>86.0</ele><time>2026-05-03T08:28:47Z</time></trkpt><trkpt lat="39.48482513742328" lon="8.915614238337461"><ele>85.8</ele><time>2026-05-03T08:28:49Z</time></trkpt><trkpt lat="39.48476778520106" lon="8.915507397206326"><ele>85.6</ele><time>2026-05-03T08:28:51Z</time></trkpt><trkpt lat="39.484706995268546" lon="8.915399515978933"><ele>85.4</ele><time>2026-05-03T08:28:53Z</time></trkpt><trkpt lat="39.484639296871435" lon="8.915294921407114"><ele>85.2</ele><time>2026-05-03T08:28:55Z</time></trkpt><trkpt lat="39.484580174034875" lon="8.91517638477513"><ele>85.0</ele><time>2026-05-03T08:28:57Z</time></trkpt><trkpt lat="39.48450979585903" lon="8.915066903590782"><ele>84.4</ele><time>2026-05-03T08:28:59Z</time></trkpt><trkpt lat="39.48443520923919" lon="8.91496792023944"><ele>83.8</ele><time>2026-05-03T08:29:01Z</time></trkpt><trkpt lat="39.48436499408972" lon="8.91487405605445"><ele>83.19999999999999</ele><time>2026-05-03T08:29:03Z</time></trkpt><trkpt lat="39.484339311365616" lon="8.914737512790165"><ele>82.6</ele><time>2026-05-03T08:29:05Z</time></trkpt><trkpt lat="39.48430378346645" lon="8.914602170318172"><ele>82.0</ele><time>2026-05-03T08:29:07Z</time></trkpt><trkpt lat="39.48426733759428" lon="8.91446479503605"><ele>82.0</ele><time>2026-05-03T08:29:09Z</time></trkpt><trkpt lat="39.48423019046003" lon="8.914328752270633"><ele>82.0</ele><time>2026-05-03T08:29:11Z</time></trkpt><trkpt lat="39.48419154404261" lon="8.914192295579378"><ele>82.0</ele><time>2026-05-03T08:29:13Z</time></trkpt><trkpt lat="39.48415452474896" lon="8.914053795924318"><ele>82.0</ele><time>2026-05-03T08:29:15Z</time></trkpt><trkpt lat="39.48411519233372" lon="8.913915312588191"><ele>81.75</ele><time>2026-05-03T08:29:17Z</time></trkpt><trkpt lat="39.48407598982974" lon="8.913774366729893"><ele>81.5</ele><time>2026-05-03T08:29:19Z</time></trkpt><trkpt lat="39.484035386035664" lon="8.913632107415523"><ele>81.25</ele><time>2026-05-03T08:29:21Z</time></trkpt><trkpt lat="39.48399770842761" lon="8.913487060552885"><ele>81.0</ele><time>2026-05-03T08:29:23Z</time></trkpt><trkpt lat="39.48395905803197" lon="8.913335519002226"><ele>80.5</ele><time>2026-05-03T08:29:25Z</time></trkpt><trkpt lat="39.48392364256194" lon="8.91318898873699"><ele>80.0</ele><time>2026-05-03T08:29:27Z</time></trkpt><trkpt lat="39.48389250510603" lon="8.91303948954541"><ele>79.5</ele><time>2026-05-03T08:29:29Z</time></trkpt><trkpt lat="39.48384444703184" lon="8.912902829364251"><ele>79.0</ele><time>2026-05-03T08:29:31Z</time></trkpt><trkpt lat="39.48380745217104" lon="8.912774596783608"><ele>79.0</ele><time>2026-05-03T08:29:33Z</time></trkpt><trkpt lat="39.483773228920676" lon="8.912663485288869"><ele>79.0</ele><time>2026-05-03T08:29:35Z</time></trkpt><trkpt lat="39.48374859859744" lon="8.912542806478358"><ele>79.0</ele><time>2026-05-03T08:29:37Z</time></trkpt><trkpt lat="39.48371881176704" lon="8.912422570403068"><ele>79.0</ele><time>2026-05-03T08:29:39Z</time></trkpt><trkpt lat="39.48369065928772" lon="8.912298938076956"><ele>79.0</ele><time>2026-05-03T08:29:41Z</time></trkpt><trkpt lat="39.483670363311795" lon="8.912172788257168"><ele>79.4</ele><time>2026-05-03T08:29:43Z</time></trkpt><trkpt lat="39.48364833517497" lon="8.912043643424663"><ele>79.80000000000001</ele><time>2026-05-03T08:29:45Z</time></trkpt><trkpt lat="39.4836278628293" lon="8.911910462492065"><ele>80.19999999999999</ele><time>2026-05-03T08:29:47Z</time></trkpt><trkpt lat="39.48360172942633" lon="8.911774464970675"><ele>80.6</ele><time>2026-05-03T08:29:49Z</time></trkpt><trkpt lat="39.483579073714225" lon="8.911629011233574"><ele>81.0</ele><time>2026-05-03T08:29:51Z</time></trkpt><trkpt lat="39.48355860755595" lon="8.911478434550371"><ele>81.0</ele><time>2026-05-03T08:29:53Z</time></trkpt><trkpt lat="39.483532887027934" lon="8.911328905917202"><ele>81.0</ele><time>2026-05-03T08:29:55Z</time></trkpt><trkpt lat="39.48350629895945" lon="8.911169269991863"><ele>81.0</ele><time>2026-05-03T08:29:57Z</time></trkpt><trkpt lat="39.48349633631979" lon="8.91108650812001"><ele>81.0</ele><time>2026-05-03T08:29:58Z</time></trkpt><trkpt lat="39.483467699279316" lon="8.910923286678168"><ele>81.0</ele><time>2026-05-03T08:30:00Z</time></trkpt><trkpt lat="39.48345672668931" lon="8.9108362060193"><ele>80.85714285714286</ele><time>2026-05-03T08:30:01Z</time></trkpt><trkpt lat="39.483436652549734" lon="8.910750651222282"><ele>80.71428571428571</ele><time>2026-05-03T08:30:02Z</time></trkpt><trkpt lat="39.483413924663445" lon="8.910670722605758"><ele>80.57142857142857</ele><time>2026-05-03T08:30:03Z</time></trkpt><trkpt lat="39.4833897793245" lon="8.910582062879092"><ele>80.42857142857143</ele><time>2026-05-03T08:30:04Z</time></trkpt><trkpt lat="39.483360095856106" lon="8.910494315892143"><ele>80.28571428571429</ele><time>2026-05-03T08:30:05Z</time></trkpt><trkpt lat="39.483320114247185" lon="8.910411691062347"><ele>80.14285714285714</ele><time>2026-05-03T08:30:06Z</time></trkpt><trkpt lat="39.48327601528791" lon="8.910331363654489"><ele>80.0</ele><time>2026-05-03T08:30:07Z</time></trkpt><trkpt lat="39.4832387536114" lon="8.910237206735415"><ele>80.0</ele><time>2026-05-03T08:30:08Z</time></trkpt><trkpt lat="39.483191681914434" lon="8.910156163337675"><ele>80.0</ele><time>2026-05-03T08:30:09Z</time></trkpt><trkpt lat="39.48315065130445" lon="8.910071333588055"><ele>80.0</ele><time>2026-05-03T08:30:10Z</time></trkpt><trkpt lat="39.483111866713585" lon="8.909974526342046"><ele>80.0</ele><time>2026-05-03T08:30:11Z</time></trkpt><trkpt lat="39.48307316423894" lon="8.909865811804863"><ele>80.0</ele><time>2026-05-03T08:30:12Z</time></trkpt><trkpt lat="39.48303061978951" lon="8.909768057799386"><ele>80.0</ele><time>2026-05-03T08:30:13Z</time></trkpt><trkpt lat="39.48298491052373" lon="8.909671133716229"><ele>79.4</ele><time>2026-05-03T08:30:14Z</time></trkpt><trkpt lat="39.48293924870274" lon="8.909569051234214"><ele>78.8</ele><time>2026-05-03T08:30:15Z</time></trkpt><trkpt lat="39.4828999284543" lon="8.909467294720256"><ele>78.2</ele><time>2026-05-03T08:30:16Z</time></trkpt><trkpt lat="39.48286496082829" lon="8.909368208473586"><ele>77.6</ele><time>2026-05-03T08:30:17Z</time></trkpt><trkpt lat="39.48284312706743" lon="8.909245484569276"><ele>77.0</ele><time>2026-05-03T08:30:18Z</time></trkpt><trkpt lat="39.48283749868243" lon="8.9091194383681"><ele>75.6</ele><time>2026-05-03T08:30:19Z</time></trkpt><trkpt lat="39.48281989203131" lon="8.90899694074579"><ele>74.2</ele><time>2026-05-03T08:30:20Z</time></trkpt><trkpt lat="39.48279981378233" lon="8.908872329761504"><ele>72.8</ele><time>2026-05-03T08:30:21Z</time></trkpt><trkpt lat="39.48277978199486" lon="8.908748400164772"><ele>71.4</ele><time>2026-05-03T08:30:22Z</time></trkpt><trkpt lat="39.48275653543925" lon="8.908629035585928"><ele>70.0</ele><time>2026-05-03T08:30:23Z</time></trkpt><trkpt lat="39.48273525569779" lon="8.908511333400218"><ele>68.6</ele><time>2026-05-03T08:30:24Z</time></trkpt><trkpt lat="39.48270507319763" lon="8.908402058940112"><ele>67.2</ele><time>2026-05-03T08:30:25Z</time></trkpt><trkpt lat="39.482693014188015" lon="8.90829130984469"><ele>65.8</ele><time>2026-05-03T08:30:26Z</time></trkpt><trkpt lat="39.482682952464664" lon="8.908207514452656"><ele>64.4</ele><time>2026-05-03T08:30:27Z</time></trkpt><trkpt lat="39.482679591565656" lon="8.908051872997603"><ele>63.0</ele><time>2026-05-03T08:30:29Z</time></trkpt><trkpt lat="39.48268066304184" lon="8.907887297153772"><ele>63.0</ele><time>2026-05-03T08:30:31Z</time></trkpt><trkpt lat="39.48268606270274" lon="8.907801773156566"><ele>63.0</ele><time>2026-05-03T08:30:32Z</time></trkpt><trkpt lat="39.48268672591877" lon="8.907703860877897"><ele>63.0</ele><time>2026-05-03T08:30:33Z</time></trkpt><trkpt lat="39.48268514421945" lon="8.907614979134486"><ele>63.0</ele><time>2026-05-03T08:30:34Z</time></trkpt><trkpt lat="39.48268733069353" lon="8.907525265504004"><ele>63.0</ele><time>2026-05-03T08:30:35Z</time></trkpt><trkpt lat="39.4827009459245" lon="8.907441583315617"><ele>63.0</ele><time>2026-05-03T08:30:36Z</time></trkpt><trkpt lat="39.48270986370557" lon="8.907311057049712"><ele>63.0</ele><time>2026-05-03T08:30:38Z</time></trkpt><trkpt lat="39.482689572364876" lon="8.907181076319887"><ele>61.8</ele><time>2026-05-03T08:30:40Z</time></trkpt><trkpt lat="39.48264693101068" lon="8.907079117579993"><ele>60.599999999999994</ele><time>2026-05-03T08:30:42Z</time></trkpt><trkpt lat="39.48260319546397" lon="8.906948408966805"><ele>59.400000000000006</ele><time>2026-05-03T08:30:44Z</time></trkpt><trkpt lat="39.482553031155184" lon="8.906824393991538"><ele>58.2</ele><time>2026-05-03T08:30:46Z</time></trkpt><trkpt lat="39.48250559217437" lon="8.906706145933052"><ele>57.0</ele><time>2026-05-03T08:30:48Z</time></trkpt><trkpt lat="39.482457766418676" lon="8.906581857256018"><ele>56.5</ele><time>2026-05-03T08:30:50Z</time></trkpt><trkpt lat="39.482430752076176" lon="8.906498673467112"><ele>56.0</ele><time>2026-05-03T08:30:52Z</time></trkpt><trkpt lat="39.48248800151168" lon="8.906409651812547"><ele>55.5</ele><time>2026-05-03T08:30:54Z</time></trkpt><trkpt lat="39.48255458878505" lon="8.906348425575773"><ele>55.0</ele><time>2026-05-03T08:30:56Z</time></trkpt><trkpt lat="39.482624815424174" lon="8.906279525236153"><ele>54.5</ele><time>2026-05-03T08:30:58Z</time></trkpt><trkpt lat="39.48269400758072" lon="8.906221911749276"><ele>54.0</ele><time>2026-05-03T08:31:00Z</time></trkpt><trkpt lat="39.48275092713498" lon="8.906155744887792"><ele>54.0</ele><time>2026-05-03T08:31:02Z</time></trkpt><trkpt lat="39.48278997368825" lon="8.906086329789671"><ele>54.00000000000001</ele><time>2026-05-03T08:31:04Z</time></trkpt><trkpt lat="39.48269327054013" lon="8.905971682686463"><ele>54.00000000000001</ele><time>2026-05-03T08:31:06Z</time></trkpt><trkpt lat="39.48263397616155" lon="8.905889250231713"><ele>54.0</ele><time>2026-05-03T08:31:08Z</time></trkpt><trkpt lat="39.48257364097716" lon="8.905800333834128"><ele>54.0</ele><time>2026-05-03T08:31:10Z</time></trkpt><trkpt lat="39.482506730862696" lon="8.90571101255786"><ele>54.0</ele><time>2026-05-03T08:31:12Z</time></trkpt><trkpt lat="39.482439941018804" lon="8.905616606252531"><ele>54.0</ele><time>2026-05-03T08:31:14Z</time></trkpt><trkpt lat="39.482379086936675" lon="8.905538168698618"><ele>54.0</ele><time>2026-05-03T08:31:16Z</time></trkpt><trkpt lat="39.48232652280414" lon="8.905456188117297"><ele>54.0</ele><time>2026-05-03T08:31:18Z</time></trkpt><trkpt lat="39.48228145881545" lon="8.905390232849367"><ele>54.0</ele><time>2026-05-03T08:31:20Z</time></trkpt><trkpt lat="39.482198747781155" lon="8.905362880496961"><ele>54.0</ele><time>2026-05-03T08:31:23Z</time></trkpt><trkpt lat="39.48212535053265" lon="8.90540662059337"><ele>53.833333333333336</ele><time>2026-05-03T08:31:25Z</time></trkpt><trkpt lat="39.482041546023666" lon="8.905442814785204"><ele>53.66666666666667</ele><time>2026-05-03T08:31:27Z</time></trkpt><trkpt lat="39.481962245362816" lon="8.905474978606831"><ele>53.5</ele><time>2026-05-03T08:31:29Z</time></trkpt><trkpt lat="39.48187402088328" lon="8.905515231913858"><ele>53.333333333333336</ele><time>2026-05-03T08:31:31Z</time></trkpt><trkpt lat="39.48179561659063" lon="8.905543972417435"><ele>53.16666666666667</ele><time>2026-05-03T08:31:33Z</time></trkpt><trkpt lat="39.481711693310885" lon="8.90558760820111"><ele>53.0</ele><time>2026-05-03T08:31:35Z</time></trkpt><trkpt lat="39.481619017168335" lon="8.905616098130944"><ele>53.00000000000001</ele><time>2026-05-03T08:31:37Z</time></trkpt><trkpt lat="39.481535331103025" lon="8.905646141296707"><ele>53.0</ele><time>2026-05-03T08:31:39Z</time></trkpt><trkpt lat="39.481462663796066" lon="8.905673194594387"><ele>53.0</ele><time>2026-05-03T08:31:41Z</time></trkpt><trkpt lat="39.48137315113861" lon="8.905659841512326"><ele>53.0</ele><time>2026-05-03T08:31:43Z</time></trkpt><trkpt lat="39.48130037568107" lon="8.905661861338327"><ele>53.00000000000001</ele><time>2026-05-03T08:31:45Z</time></trkpt><trkpt lat="39.48121557187784" lon="8.905649357966771"><ele>53.0</ele><time>2026-05-03T08:31:47Z</time></trkpt><trkpt lat="39.48113642145933" lon="8.905607374372174"><ele>53.00000000000001</ele><time>2026-05-03T08:31:49Z</time></trkpt><trkpt lat="39.48112356545237" lon="8.905515014339821"><ele>53.0</ele><time>2026-05-03T08:31:51Z</time></trkpt><trkpt lat="39.481173890996224" lon="8.90540995222629"><ele>53.0</ele><time>2026-05-03T08:31:53Z</time></trkpt><trkpt lat="39.48121114092306" lon="8.905304312368981"><ele>53.0</ele><time>2026-05-03T08:31:55Z</time></trkpt><trkpt lat="39.48124564933296" lon="8.90519383778561"><ele>53.00000000000001</ele><time>2026-05-03T08:31:57Z</time></trkpt><trkpt lat="39.481279616017424" lon="8.905079624073617"><ele>53.0</ele><time>2026-05-03T08:31:59Z</time></trkpt><trkpt lat="39.48132028413642" lon="8.904984735517697"><ele>53.00000000000001</ele><time>2026-05-03T08:32:01Z</time></trkpt><trkpt lat="39.48135938058054" lon="8.904868779637555"><ele>53.0</ele><time>2026-05-03T08:32:03Z</time></trkpt><trkpt lat="39.481406279013456" lon="8.904752373710686"><ele>53.0</ele><time>2026-05-03T08:32:05Z</time></trkpt><trkpt lat="39.481442271250366" lon="8.90465057074478"><ele>53.0</ele><time>2026-05-03T08:32:07Z</time></trkpt><trkpt lat="39.481487354312534" lon="8.904581968354062"><ele>53.00000000000001</ele><time>2026-05-03T08:32:09Z</time></trkpt><trkpt lat="39.48152641806634" lon="8.90447793975998"><ele>53.0</ele><time>2026-05-03T08:32:11Z</time></trkpt><trkpt lat="39.48155805008759" lon="8.904370280847735"><ele>53.0</ele><time>2026-05-03T08:32:13Z</time></trkpt><trkpt lat="39.48160163560961" lon="8.904261618492765"><ele>53.0</ele><time>2026-05-03T08:32:15Z</time></trkpt><trkpt lat="39.48164540529928" lon="8.904157477626992"><ele>53.0</ele><time>2026-05-03T08:32:17Z</time></trkpt><trkpt lat="39.48168990043624" lon="8.904047991894593"><ele>53.0</ele><time>2026-05-03T08:32:19Z</time></trkpt><trkpt lat="39.48173289380533" lon="8.903943283084201"><ele>53.0</ele><time>2026-05-03T08:32:21Z</time></trkpt><trkpt lat="39.48177701285842" lon="8.903832528070543"><ele>52.8</ele><time>2026-05-03T08:32:23Z</time></trkpt><trkpt lat="39.48182017346572" lon="8.903724645979073"><ele>52.599999999999994</ele><time>2026-05-03T08:32:25Z</time></trkpt><trkpt lat="39.481863554502944" lon="8.903626549839327"><ele>52.400000000000006</ele><time>2026-05-03T08:32:27Z</time></trkpt><trkpt lat="39.481903885540476" lon="8.903521507732517"><ele>52.2</ele><time>2026-05-03T08:32:29Z</time></trkpt><trkpt lat="39.48194670811602" lon="8.903414048786585"><ele>52.0</ele><time>2026-05-03T08:32:31Z</time></trkpt><trkpt lat="39.48199102747255" lon="8.903314859563759"><ele>51.99999999999999</ele><time>2026-05-03T08:32:33Z</time></trkpt><trkpt lat="39.482033998386214" lon="8.903214785886782"><ele>52.0</ele><time>2026-05-03T08:32:35Z</time></trkpt><trkpt lat="39.48207563605613" lon="8.903110233652939"><ele>52.0</ele><time>2026-05-03T08:32:37Z</time></trkpt><trkpt lat="39.48211543281214" lon="8.903014096928125"><ele>52.0</ele><time>2026-05-03T08:32:39Z</time></trkpt><trkpt lat="39.48214937885773" lon="8.902910370028968"><ele>51.99999999999999</ele><time>2026-05-03T08:32:41Z</time></trkpt><trkpt lat="39.482187553879676" lon="8.902810420964254"><ele>52.0</ele><time>2026-05-03T08:32:43Z</time></trkpt><trkpt lat="39.48223227023305" lon="8.902698429556517"><ele>52.2</ele><time>2026-05-03T08:32:45Z</time></trkpt><trkpt lat="39.482267307179704" lon="8.90259089360361"><ele>52.400000000000006</ele><time>2026-05-03T08:32:47Z</time></trkpt><trkpt lat="39.48230579899614" lon="8.902485057949935"><ele>52.599999999999994</ele><time>2026-05-03T08:32:49Z</time></trkpt><trkpt lat="39.48234782247803" lon="8.902378036537122"><ele>52.8</ele><time>2026-05-03T08:32:51Z</time></trkpt><trkpt lat="39.48238471816746" lon="8.902274916407785"><ele>53.0</ele><time>2026-05-03T08:32:53Z</time></trkpt><trkpt lat="39.482424975576464" lon="8.902172066646441"><ele>52.599999999999994</ele><time>2026-05-03T08:32:55Z</time></trkpt><trkpt lat="39.48246778776468" lon="8.90206354518232"><ele>52.199999999999996</ele><time>2026-05-03T08:32:57Z</time></trkpt><trkpt lat="39.48251079956531" lon="8.901953512350522"><ele>51.8</ele><time>2026-05-03T08:32:59Z</time></trkpt><trkpt lat="39.482555704281815" lon="8.901842633321225"><ele>51.4</ele><time>2026-05-03T08:33:01Z</time></trkpt><trkpt lat="39.48260262440619" lon="8.901726481022058"><ele>51.0</ele><time>2026-05-03T08:33:03Z</time></trkpt><trkpt lat="39.4826467247105" lon="8.901611509033406"><ele>50.4</ele><time>2026-05-03T08:33:05Z</time></trkpt><trkpt lat="39.482692961171026" lon="8.901497101736332"><ele>49.8</ele><time>2026-05-03T08:33:07Z</time></trkpt><trkpt lat="39.482739196239" lon="8.90137851929031"><ele>49.199999999999996</ele><time>2026-05-03T08:33:09Z</time></trkpt><trkpt lat="39.4827841164871" lon="8.901262881826263"><ele>48.599999999999994</ele><time>2026-05-03T08:33:11Z</time></trkpt><trkpt lat="39.482829751940635" lon="8.901157802841125"><ele>48.0</ele><time>2026-05-03T08:33:13Z</time></trkpt><trkpt lat="39.48290304774465" lon="8.901061146009"><ele>48.4</ele><time>2026-05-03T08:33:15Z</time></trkpt><trkpt lat="39.482939236255106" lon="8.900929526793812"><ele>48.8</ele><time>2026-05-03T08:33:17Z</time></trkpt><trkpt lat="39.48297685640158" lon="8.900793026559851"><ele>49.2</ele><time>2026-05-03T08:33:19Z</time></trkpt><trkpt lat="39.48301753565078" lon="8.900655212691504"><ele>49.6</ele><time>2026-05-03T08:33:21Z</time></trkpt><trkpt lat="39.48306901231144" lon="8.900524787331538"><ele>50.0</ele><time>2026-05-03T08:33:23Z</time></trkpt><trkpt lat="39.483128524378664" lon="8.90038699998182"><ele>50.6</ele><time>2026-05-03T08:33:25Z</time></trkpt><trkpt lat="39.48318915915028" lon="8.900249135706419"><ele>51.2</ele><time>2026-05-03T08:33:27Z</time></trkpt><trkpt lat="39.48321831718525" lon="8.900176558772815"><ele>51.8</ele><time>2026-05-03T08:33:28Z</time></trkpt><trkpt lat="39.4832674511559" lon="8.900041707983815"><ele>52.4</ele><time>2026-05-03T08:33:30Z</time></trkpt><trkpt lat="39.48332270721582" lon="8.899918516623558"><ele>53.0</ele><time>2026-05-03T08:33:32Z</time></trkpt><trkpt lat="39.48336822261409" lon="8.899789783920507"><ele>53.0</ele><time>2026-05-03T08:33:34Z</time></trkpt><trkpt lat="39.483415301376176" lon="8.899659727582938"><ele>53.0</ele><time>2026-05-03T08:33:36Z</time></trkpt><trkpt lat="39.48346436900928" lon="8.899529162293023"><ele>53.0</ele><time>2026-05-03T08:33:38Z</time></trkpt><trkpt lat="39.48351262836668" lon="8.899402993443815"><ele>53.0</ele><time>2026-05-03T08:33:40Z</time></trkpt><trkpt lat="39.48355461308195" lon="8.899277563995225"><ele>53.0</ele><time>2026-05-03T08:33:42Z</time></trkpt><trkpt lat="39.483573405741126" lon="8.899193603293794"><ele>53.0</ele><time>2026-05-03T08:33:44Z</time></trkpt><trkpt lat="39.48346469874103" lon="8.899150932689047"><ele>53.0</ele><time>2026-05-03T08:33:45Z</time></trkpt><trkpt lat="39.48338858113523" lon="8.899135565144505"><ele>53.0</ele><time>2026-05-03T08:33:47Z</time></trkpt><trkpt lat="39.48349609524802" lon="8.899219938032406"><ele>53.0</ele><time>2026-05-03T08:33:49Z</time></trkpt><trkpt lat="39.483484297100745" lon="8.899021929362577"><ele>53.0</ele><time>2026-05-03T08:33:52Z</time></trkpt><trkpt lat="39.48355904212408" lon="8.898987968353957"><ele>53.0</ele><time>2026-05-03T08:33:55Z</time></trkpt><trkpt lat="39.48363865650943" lon="8.898958244498832"><ele>53.0</ele><time>2026-05-03T08:33:58Z</time></trkpt><trkpt lat="39.48370606050618" lon="8.898933084099943"><ele>53.0</ele><time>2026-05-03T08:34:01Z</time></trkpt><trkpt lat="39.48376617167706" lon="8.898908055034063"><ele>53.0</ele><time>2026-05-03T08:34:05Z</time></trkpt><trkpt lat="39.48369948568059" lon="8.898950951666544"><ele>53.0</ele><time>2026-05-03T08:34:10Z</time></trkpt><trkpt lat="39.483631712341996" lon="8.898972009371484"><ele>53.0</ele><time>2026-05-03T08:34:13Z</time></trkpt><trkpt lat="39.483562477207904" lon="8.898997007826486"><ele>53.00000000000001</ele><time>2026-05-03T08:34:16Z</time></trkpt><trkpt lat="39.483479255057745" lon="8.899022789003661"><ele>53.0</ele><time>2026-05-03T08:34:20Z</time></trkpt><trkpt lat="39.48341057981543" lon="8.89906152469682"><ele>53.0</ele><time>2026-05-03T08:34:24Z</time></trkpt><trkpt lat="39.48334654727232" lon="8.899112213199817"><ele>53.0</ele><time>2026-05-03T08:34:29Z</time></trkpt><trkpt lat="39.4833037915438" lon="8.899028317569169"><ele>53.00000000000001</ele><time>2026-05-03T08:34:34Z</time></trkpt><trkpt lat="39.48326271699761" lon="8.898946597032396"><ele>53.0</ele><time>2026-05-03T08:34:43Z</time></trkpt><trkpt lat="39.483229623136225" lon="8.898858721482249"><ele>53.00000000000001</ele><time>2026-05-03T08:34:47Z</time></trkpt><trkpt lat="39.48316318385918" lon="8.898856364626454"><ele>53.0</ele><time>2026-05-03T08:34:51Z</time></trkpt><trkpt lat="39.48307579292625" lon="8.898888142261955"><ele>53.0</ele><time>2026-05-03T08:34:55Z</time></trkpt><trkpt lat="39.483002461759774" lon="8.89890764375588"><ele>53.0</ele><time>2026-05-03T08:34:57Z</time></trkpt><trkpt lat="39.48291853141716" lon="8.89892861604715"><ele>53.00000000000001</ele><time>2026-05-03T08:34:59Z</time></trkpt><trkpt lat="39.48284069920884" lon="8.898950791419912"><ele>53.0</ele><time>2026-05-03T08:35:01Z</time></trkpt><trkpt lat="39.4829118783853" lon="8.898944568614201"><ele>53.00000000000001</ele><time>2026-05-03T08:35:08Z</time></trkpt><trkpt lat="39.482983859156846" lon="8.898918749778579"><ele>53.0</ele><time>2026-05-03T08:35:10Z</time></trkpt><trkpt lat="39.48307935332472" lon="8.898886335252126"><ele>53.0</ele><time>2026-05-03T08:35:12Z</time></trkpt><trkpt lat="39.48315574400647" lon="8.89886008434042"><ele>53.0</ele><time>2026-05-03T08:35:14Z</time></trkpt><trkpt lat="39.483156949678346" lon="8.898770965079486"><ele>53.00000000000001</ele><time>2026-05-03T08:35:17Z</time></trkpt><trkpt lat="39.48323080574961" lon="8.898716194032467"><ele>53.0</ele><time>2026-05-03T08:35:20Z</time></trkpt><trkpt lat="39.4833003567318" lon="8.898758190012453"><ele>53.00000000000001</ele><time>2026-05-03T08:35:23Z</time></trkpt><trkpt lat="39.483358854520795" lon="8.898794951466583"><ele>53.0</ele><time>2026-05-03T08:35:25Z</time></trkpt><trkpt lat="39.48343360334223" lon="8.898792177408264"><ele>53.0</ele><time>2026-05-03T08:35:27Z</time></trkpt><trkpt lat="39.483506809373694" lon="8.89873919401802"><ele>53.0</ele><time>2026-05-03T08:35:29Z</time></trkpt><trkpt lat="39.4835707449399" lon="8.898654419721433"><ele>53.00000000000001</ele><time>2026-05-03T08:35:31Z</time></trkpt><trkpt lat="39.4836293340662" lon="8.898566298381711"><ele>53.0</ele><time>2026-05-03T08:35:33Z</time></trkpt><trkpt lat="39.48367766114228" lon="8.898461737862824"><ele>53.0</ele><time>2026-05-03T08:35:35Z</time></trkpt><trkpt lat="39.483726655998055" lon="8.898358813087798"><ele>53.0</ele><time>2026-05-03T08:35:37Z</time></trkpt><trkpt lat="39.483768365543966" lon="8.898251343175295"><ele>53.0</ele><time>2026-05-03T08:35:39Z</time></trkpt><trkpt lat="39.4838074633" lon="8.898136667354766"><ele>53.0</ele><time>2026-05-03T08:35:41Z</time></trkpt><trkpt lat="39.48384186999412" lon="8.898023253921787"><ele>53.0</ele><time>2026-05-03T08:35:43Z</time></trkpt><trkpt lat="39.48388581136158" lon="8.897909596646729"><ele>53.0</ele><time>2026-05-03T08:35:45Z</time></trkpt><trkpt lat="39.48393146102106" lon="8.897802187538547"><ele>53.0</ele><time>2026-05-03T08:35:47Z</time></trkpt><trkpt lat="39.48398019396903" lon="8.897694013241056"><ele>53.0</ele><time>2026-05-03T08:35:49Z</time></trkpt><trkpt lat="39.484028451845965" lon="8.897582518553566"><ele>53.0</ele><time>2026-05-03T08:35:51Z</time></trkpt><trkpt lat="39.484081714440066" lon="8.897486799711855"><ele>53.0</ele><time>2026-05-03T08:35:53Z</time></trkpt><trkpt lat="39.48416226949356" lon="8.897406968249507"><ele>53.0</ele><time>2026-05-03T08:35:55Z</time></trkpt><trkpt lat="39.48423837060876" lon="8.897331729211496"><ele>53.0</ele><time>2026-05-03T08:35:57Z</time></trkpt><trkpt lat="39.484312008275325" lon="8.897247328451817"><ele>53.0</ele><time>2026-05-03T08:35:59Z</time></trkpt><trkpt lat="39.484382915993415" lon="8.897163195114844"><ele>53.0</ele><time>2026-05-03T08:36:01Z</time></trkpt><trkpt lat="39.48445850460669" lon="8.897089091194287"><ele>53.0</ele><time>2026-05-03T08:36:03Z</time></trkpt><trkpt lat="39.48453304153501" lon="8.897023145975357"><ele>53.2</ele><time>2026-05-03T08:36:05Z</time></trkpt><trkpt lat="39.48461013402451" lon="8.896956425380193"><ele>53.4</ele><time>2026-05-03T08:36:07Z</time></trkpt><trkpt lat="39.48468631866922" lon="8.896884347670081"><ele>53.60000000000001</ele><time>2026-05-03T08:36:09Z</time></trkpt><trkpt lat="39.48475729275903" lon="8.896813419747831"><ele>53.800000000000004</ele><time>2026-05-03T08:36:11Z</time></trkpt><trkpt lat="39.484845763144385" lon="8.896755481452324"><ele>54.0</ele><time>2026-05-03T08:36:13Z</time></trkpt><trkpt lat="39.48492424473031" lon="8.896692503503493"><ele>54.0</ele><time>2026-05-03T08:36:15Z</time></trkpt><trkpt lat="39.48501087456117" lon="8.896650556754311"><ele>54.0</ele><time>2026-05-03T08:36:17Z</time></trkpt><trkpt lat="39.48510932337735" lon="8.896651844836205"><ele>54.0</ele><time>2026-05-03T08:36:19Z</time></trkpt><trkpt lat="39.48520265605559" lon="8.896654728691196"><ele>54.0</ele><time>2026-05-03T08:36:21Z</time></trkpt><trkpt lat="39.48528815817969" lon="8.89666282479461"><ele>54.0</ele><time>2026-05-03T08:36:23Z</time></trkpt><trkpt lat="39.48536682622756" lon="8.896673918724103"><ele>54.0</ele><time>2026-05-03T08:36:25Z</time></trkpt><trkpt lat="39.485432316442996" lon="8.896697480592785"><ele>54.0</ele><time>2026-05-03T08:36:27Z</time></trkpt><trkpt lat="39.48549608602259" lon="8.896729921925994"><ele>54.0</ele><time>2026-05-03T08:36:29Z</time></trkpt><trkpt lat="39.4855148607432" lon="8.896817665661544"><ele>54.0</ele><time>2026-05-03T08:36:32Z</time></trkpt><trkpt lat="39.48546280220559" lon="8.89692026269773"><ele>54.0</ele><time>2026-05-03T08:36:35Z</time></trkpt><trkpt lat="39.48541880239266" lon="8.897019899258359"><ele>54.0</ele><time>2026-05-03T08:36:38Z</time></trkpt><trkpt lat="39.485397563347995" lon="8.897109263556985"><ele>54.0</ele><time>2026-05-03T08:36:41Z</time></trkpt><trkpt lat="39.485365976628614" lon="8.897188682977472"><ele>54.166666666666664</ele><time>2026-05-03T08:36:44Z</time></trkpt><trkpt lat="39.485320674943125" lon="8.897272606808762"><ele>54.33333333333333</ele><time>2026-05-03T08:36:47Z</time></trkpt><trkpt lat="39.48528569843037" lon="8.897364361988513"><ele>54.5</ele><time>2026-05-03T08:36:50Z</time></trkpt><trkpt lat="39.48525569596394" lon="8.897449965204984"><ele>54.666666666666664</ele><time>2026-05-03T08:36:54Z</time></trkpt><trkpt lat="39.4853212788414" lon="8.89752938589202"><ele>54.83333333333333</ele><time>2026-05-03T08:38:15Z</time></trkpt><trkpt lat="39.48537151656805" lon="8.897592980774107"><ele>55.0</ele><time>2026-05-03T08:38:18Z</time></trkpt><trkpt lat="39.48543172106074" lon="8.897560382911296"><ele>55.0</ele><time>2026-05-03T08:38:29Z</time></trkpt></trkseg></trk></gpx>